<?xml version="1.0" encoding="UTF-8" standalone="no" ?>
<gpx xmlns="http://www.topografix.com/GPX/1/1" xmlns:xsi="http://www.w3.org/2001/XMLSchema-instance" xsi:schemaLocation="http://www.topografix.com/GPX/1/1 http://www.topografix.com/GPX/1/1/gpx.xsd" version="1.1" creator="VisuGPX - https://www.visugpx.com">
  <metadata>
    <name>Champagnat Cyclisme sur route</name>
  </metadata>
  <trk>
    <name><![CDATA[Champagnat Cyclisme sur route_1]]></name>
    <trkseg>
      <trkpt lat="46.48729" lon="5.38203">
        <ele>293</ele>
        <time>2021-12-31T12:01:42Z</time>
      </trkpt>
      <trkpt lat="46.48751" lon="5.38229">
        <ele>291.4</ele>
        <time>2021-12-31T12:01:44Z</time>
      </trkpt>
      <trkpt lat="46.4876" lon="5.38241">
        <ele>289.6</ele>
        <time>2021-12-31T12:01:45Z</time>
      </trkpt>
      <trkpt lat="46.48779" lon="5.38262">
        <ele>288</ele>
        <time>2021-12-31T12:01:47Z</time>
      </trkpt>
      <trkpt lat="46.488" lon="5.3828">
        <ele>286.2</ele>
        <time>2021-12-31T12:01:49Z</time>
      </trkpt>
      <trkpt lat="46.48821" lon="5.38295">
        <ele>285</ele>
        <time>2021-12-31T12:01:51Z</time>
      </trkpt>
      <trkpt lat="46.48841" lon="5.3831">
        <ele>283.8</ele>
        <time>2021-12-31T12:01:53Z</time>
      </trkpt>
      <trkpt lat="46.48854" lon="5.38321">
        <ele>282.4</ele>
        <time>2021-12-31T12:01:54Z</time>
      </trkpt>
      <trkpt lat="46.48875" lon="5.38338">
        <ele>280.4</ele>
        <time>2021-12-31T12:01:56Z</time>
      </trkpt>
      <trkpt lat="46.48896" lon="5.38349">
        <ele>278.8</ele>
        <time>2021-12-31T12:01:58Z</time>
      </trkpt>
      <trkpt lat="46.48921" lon="5.38365">
        <ele>277.4</ele>
        <time>2021-12-31T12:02:00Z</time>
      </trkpt>
      <trkpt lat="46.48931" lon="5.38375">
        <ele>276.2</ele>
        <time>2021-12-31T12:02:01Z</time>
      </trkpt>
      <trkpt lat="46.48939" lon="5.38388">
        <ele>275.4</ele>
        <time>2021-12-31T12:02:02Z</time>
      </trkpt>
      <trkpt lat="46.48944" lon="5.38399">
        <ele>274.2</ele>
        <time>2021-12-31T12:02:03Z</time>
      </trkpt>
      <trkpt lat="46.4895" lon="5.38417">
        <ele>273.4</ele>
        <time>2021-12-31T12:02:04Z</time>
      </trkpt>
      <trkpt lat="46.48953" lon="5.38432">
        <ele>272.2</ele>
        <time>2021-12-31T12:02:05Z</time>
      </trkpt>
      <trkpt lat="46.48961" lon="5.38458">
        <ele>271.4</ele>
        <time>2021-12-31T12:02:07Z</time>
      </trkpt>
      <trkpt lat="46.48966" lon="5.38467">
        <ele>271</ele>
        <time>2021-12-31T12:02:08Z</time>
      </trkpt>
      <trkpt lat="46.48973" lon="5.38476">
        <ele>270.6</ele>
        <time>2021-12-31T12:02:09Z</time>
      </trkpt>
      <trkpt lat="46.48992" lon="5.38491">
        <ele>269.8</ele>
        <time>2021-12-31T12:02:11Z</time>
      </trkpt>
      <trkpt lat="46.49029" lon="5.38507">
        <ele>268.6</ele>
        <time>2021-12-31T12:02:15Z</time>
      </trkpt>
      <trkpt lat="46.49039" lon="5.3851">
        <ele>268.4</ele>
        <time>2021-12-31T12:02:16Z</time>
      </trkpt>
      <trkpt lat="46.49086" lon="5.38519">
        <ele>267.4</ele>
        <time>2021-12-31T12:02:21Z</time>
      </trkpt>
      <trkpt lat="46.49094" lon="5.3852">
        <ele>267.2</ele>
        <time>2021-12-31T12:02:22Z</time>
      </trkpt>
      <trkpt lat="46.49126" lon="5.38526">
        <ele>266.2</ele>
        <time>2021-12-31T12:02:26Z</time>
      </trkpt>
      <trkpt lat="46.49139" lon="5.3853">
        <ele>266</ele>
        <time>2021-12-31T12:02:28Z</time>
      </trkpt>
      <trkpt lat="46.49148" lon="5.38533">
        <ele>266</ele>
        <time>2021-12-31T12:02:29Z</time>
      </trkpt>
      <trkpt lat="46.4916" lon="5.38538">
        <ele>266</ele>
        <time>2021-12-31T12:02:31Z</time>
      </trkpt>
      <trkpt lat="46.49165" lon="5.38538">
        <ele>266</ele>
        <time>2021-12-31T12:02:32Z</time>
      </trkpt>
      <trkpt lat="46.4917" lon="5.38538">
        <ele>266</ele>
        <time>2021-12-31T12:02:33Z</time>
      </trkpt>
      <trkpt lat="46.49177" lon="5.38545">
        <ele>266.2</ele>
        <time>2021-12-31T12:02:35Z</time>
      </trkpt>
      <trkpt lat="46.49183" lon="5.38564">
        <ele>266.4</ele>
        <time>2021-12-31T12:02:38Z</time>
      </trkpt>
      <trkpt lat="46.49184" lon="5.38568">
        <ele>266.6</ele>
        <time>2021-12-31T12:02:39Z</time>
      </trkpt>
      <trkpt lat="46.49193" lon="5.38599">
        <ele>267.4</ele>
        <time>2021-12-31T12:02:44Z</time>
      </trkpt>
      <trkpt lat="46.49196" lon="5.38603">
        <ele>267.8</ele>
        <time>2021-12-31T12:02:45Z</time>
      </trkpt>
      <trkpt lat="46.49199" lon="5.38607">
        <ele>268.2</ele>
        <time>2021-12-31T12:02:46Z</time>
      </trkpt>
      <trkpt lat="46.49202" lon="5.38611">
        <ele>268.6</ele>
        <time>2021-12-31T12:02:47Z</time>
      </trkpt>
      <trkpt lat="46.49206" lon="5.38612">
        <ele>268.6</ele>
        <time>2021-12-31T12:02:48Z</time>
      </trkpt>
      <trkpt lat="46.4921" lon="5.3861">
        <ele>268.8</ele>
        <time>2021-12-31T12:02:49Z</time>
      </trkpt>
      <trkpt lat="46.49212" lon="5.38607">
        <ele>269</ele>
        <time>2021-12-31T12:02:50Z</time>
      </trkpt>
      <trkpt lat="46.49217" lon="5.38595">
        <ele>269.6</ele>
        <time>2021-12-31T12:02:52Z</time>
      </trkpt>
      <trkpt lat="46.49221" lon="5.38563">
        <ele>269.8</ele>
        <time>2021-12-31T12:02:56Z</time>
      </trkpt>
      <trkpt lat="46.4923" lon="5.38505">
        <ele>268.8</ele>
        <time>2021-12-31T12:03:02Z</time>
      </trkpt>
      <trkpt lat="46.49233" lon="5.38493">
        <ele>268.6</ele>
        <time>2021-12-31T12:03:03Z</time>
      </trkpt>
      <trkpt lat="46.49239" lon="5.38454">
        <ele>267.6</ele>
        <time>2021-12-31T12:03:07Z</time>
      </trkpt>
      <trkpt lat="46.49245" lon="5.3842">
        <ele>267</ele>
        <time>2021-12-31T12:03:10Z</time>
      </trkpt>
      <trkpt lat="46.4925" lon="5.38388">
        <ele>266.2</ele>
        <time>2021-12-31T12:03:13Z</time>
      </trkpt>
      <trkpt lat="46.49252" lon="5.38373">
        <ele>265.2</ele>
        <time>2021-12-31T12:03:15Z</time>
      </trkpt>
      <trkpt lat="46.49254" lon="5.38365">
        <ele>265</ele>
        <time>2021-12-31T12:03:16Z</time>
      </trkpt>
      <trkpt lat="46.49257" lon="5.38356">
        <ele>264.8</ele>
        <time>2021-12-31T12:03:17Z</time>
      </trkpt>
      <trkpt lat="46.49262" lon="5.38325">
        <ele>264</ele>
        <time>2021-12-31T12:03:20Z</time>
      </trkpt>
      <trkpt lat="46.49264" lon="5.38314">
        <ele>263.4</ele>
        <time>2021-12-31T12:03:21Z</time>
      </trkpt>
      <trkpt lat="46.49271" lon="5.38282">
        <ele>262.8</ele>
        <time>2021-12-31T12:03:24Z</time>
      </trkpt>
      <trkpt lat="46.49278" lon="5.38239">
        <ele>261.6</ele>
        <time>2021-12-31T12:03:28Z</time>
      </trkpt>
      <trkpt lat="46.49287" lon="5.38192">
        <ele>260.4</ele>
        <time>2021-12-31T12:03:32Z</time>
      </trkpt>
      <trkpt lat="46.49299" lon="5.38132">
        <ele>259.2</ele>
        <time>2021-12-31T12:03:37Z</time>
      </trkpt>
      <trkpt lat="46.4931" lon="5.38074">
        <ele>258.2</ele>
        <time>2021-12-31T12:03:42Z</time>
      </trkpt>
      <trkpt lat="46.4932" lon="5.38019">
        <ele>257</ele>
        <time>2021-12-31T12:03:47Z</time>
      </trkpt>
      <trkpt lat="46.49331" lon="5.37962">
        <ele>256.2</ele>
        <time>2021-12-31T12:03:52Z</time>
      </trkpt>
      <trkpt lat="46.49343" lon="5.37901">
        <ele>255.4</ele>
        <time>2021-12-31T12:03:58Z</time>
      </trkpt>
      <trkpt lat="46.49357" lon="5.3785">
        <ele>255.8</ele>
        <time>2021-12-31T12:04:04Z</time>
      </trkpt>
      <trkpt lat="46.4938" lon="5.3778">
        <ele>257</ele>
        <time>2021-12-31T12:04:12Z</time>
      </trkpt>
      <trkpt lat="46.49407" lon="5.37708">
        <ele>256.8</ele>
        <time>2021-12-31T12:04:20Z</time>
      </trkpt>
      <trkpt lat="46.49418" lon="5.37686">
        <ele>256.4</ele>
        <time>2021-12-31T12:04:22Z</time>
      </trkpt>
      <trkpt lat="46.49431" lon="5.3767">
        <ele>255.8</ele>
        <time>2021-12-31T12:04:24Z</time>
      </trkpt>
      <trkpt lat="46.49446" lon="5.37655">
        <ele>255</ele>
        <time>2021-12-31T12:04:26Z</time>
      </trkpt>
      <trkpt lat="46.4947" lon="5.37635">
        <ele>253.8</ele>
        <time>2021-12-31T12:04:29Z</time>
      </trkpt>
      <trkpt lat="46.49495" lon="5.37615">
        <ele>252.2</ele>
        <time>2021-12-31T12:04:32Z</time>
      </trkpt>
      <trkpt lat="46.49519" lon="5.37594">
        <ele>251.2</ele>
        <time>2021-12-31T12:04:35Z</time>
      </trkpt>
      <trkpt lat="46.49535" lon="5.3758">
        <ele>250</ele>
        <time>2021-12-31T12:04:37Z</time>
      </trkpt>
      <trkpt lat="46.49557" lon="5.37562">
        <ele>248.8</ele>
        <time>2021-12-31T12:04:40Z</time>
      </trkpt>
      <trkpt lat="46.49579" lon="5.37543">
        <ele>247.8</ele>
        <time>2021-12-31T12:04:43Z</time>
      </trkpt>
      <trkpt lat="46.496" lon="5.37525">
        <ele>246.6</ele>
        <time>2021-12-31T12:04:46Z</time>
      </trkpt>
      <trkpt lat="46.49618" lon="5.37513">
        <ele>246</ele>
        <time>2021-12-31T12:04:48Z</time>
      </trkpt>
      <trkpt lat="46.49627" lon="5.37511">
        <ele>245.8</ele>
        <time>2021-12-31T12:04:49Z</time>
      </trkpt>
      <trkpt lat="46.49635" lon="5.37513">
        <ele>245.4</ele>
        <time>2021-12-31T12:04:50Z</time>
      </trkpt>
      <trkpt lat="46.49651" lon="5.3752">
        <ele>244.6</ele>
        <time>2021-12-31T12:04:52Z</time>
      </trkpt>
      <trkpt lat="46.49661" lon="5.37525">
        <ele>244.4</ele>
        <time>2021-12-31T12:04:53Z</time>
      </trkpt>
      <trkpt lat="46.49678" lon="5.37534">
        <ele>243.4</ele>
        <time>2021-12-31T12:04:55Z</time>
      </trkpt>
      <trkpt lat="46.49695" lon="5.37542">
        <ele>243.2</ele>
        <time>2021-12-31T12:04:57Z</time>
      </trkpt>
      <trkpt lat="46.49728" lon="5.3756">
        <ele>242.8</ele>
        <time>2021-12-31T12:05:01Z</time>
      </trkpt>
      <trkpt lat="46.49781" lon="5.37595">
        <ele>242.8</ele>
        <time>2021-12-31T12:05:08Z</time>
      </trkpt>
      <trkpt lat="46.49789" lon="5.376">
        <ele>242.8</ele>
        <time>2021-12-31T12:05:09Z</time>
      </trkpt>
      <trkpt lat="46.49839" lon="5.37629">
        <ele>243</ele>
        <time>2021-12-31T12:05:16Z</time>
      </trkpt>
      <trkpt lat="46.49899" lon="5.37651">
        <ele>243.2</ele>
        <time>2021-12-31T12:05:24Z</time>
      </trkpt>
      <trkpt lat="46.49947" lon="5.37668">
        <ele>243.6</ele>
        <time>2021-12-31T12:05:31Z</time>
      </trkpt>
      <trkpt lat="46.4998" lon="5.37684">
        <ele>244.2</ele>
        <time>2021-12-31T12:05:36Z</time>
      </trkpt>
      <trkpt lat="46.49993" lon="5.3769">
        <ele>244.2</ele>
        <time>2021-12-31T12:05:38Z</time>
      </trkpt>
      <trkpt lat="46.50038" lon="5.37711">
        <ele>244.6</ele>
        <time>2021-12-31T12:05:45Z</time>
      </trkpt>
      <trkpt lat="46.50089" lon="5.37734">
        <ele>245.2</ele>
        <time>2021-12-31T12:05:53Z</time>
      </trkpt>
      <trkpt lat="46.50147" lon="5.37751">
        <ele>245</ele>
        <time>2021-12-31T12:06:01Z</time>
      </trkpt>
      <trkpt lat="46.50203" lon="5.37768">
        <ele>243.6</ele>
        <time>2021-12-31T12:06:08Z</time>
      </trkpt>
      <trkpt lat="46.50225" lon="5.37781">
        <ele>243</ele>
        <time>2021-12-31T12:06:11Z</time>
      </trkpt>
      <trkpt lat="46.50231" lon="5.37786">
        <ele>242.8</ele>
        <time>2021-12-31T12:06:12Z</time>
      </trkpt>
      <trkpt lat="46.50267" lon="5.37817">
        <ele>242.6</ele>
        <time>2021-12-31T12:06:18Z</time>
      </trkpt>
      <trkpt lat="46.503" lon="5.37851">
        <ele>243.4</ele>
        <time>2021-12-31T12:06:24Z</time>
      </trkpt>
      <trkpt lat="46.50305" lon="5.37857">
        <ele>243.4</ele>
        <time>2021-12-31T12:06:25Z</time>
      </trkpt>
      <trkpt lat="46.50339" lon="5.37892">
        <ele>243.6</ele>
        <time>2021-12-31T12:06:31Z</time>
      </trkpt>
      <trkpt lat="46.50349" lon="5.37907">
        <ele>243.8</ele>
        <time>2021-12-31T12:06:33Z</time>
      </trkpt>
      <trkpt lat="46.50355" lon="5.37923">
        <ele>243.8</ele>
        <time>2021-12-31T12:06:35Z</time>
      </trkpt>
      <trkpt lat="46.50357" lon="5.37932">
        <ele>243.8</ele>
        <time>2021-12-31T12:06:36Z</time>
      </trkpt>
      <trkpt lat="46.50361" lon="5.37958">
        <ele>244</ele>
        <time>2021-12-31T12:06:39Z</time>
      </trkpt>
      <trkpt lat="46.5036" lon="5.37976">
        <ele>244.2</ele>
        <time>2021-12-31T12:06:41Z</time>
      </trkpt>
      <trkpt lat="46.50356" lon="5.38013">
        <ele>244.4</ele>
        <time>2021-12-31T12:06:45Z</time>
      </trkpt>
      <trkpt lat="46.50357" lon="5.38021">
        <ele>244.4</ele>
        <time>2021-12-31T12:06:46Z</time>
      </trkpt>
      <trkpt lat="46.50359" lon="5.38029">
        <ele>244.2</ele>
        <time>2021-12-31T12:06:47Z</time>
      </trkpt>
      <trkpt lat="46.50364" lon="5.3804">
        <ele>243.8</ele>
        <time>2021-12-31T12:06:49Z</time>
      </trkpt>
      <trkpt lat="46.5037" lon="5.38045">
        <ele>243.6</ele>
        <time>2021-12-31T12:06:52Z</time>
      </trkpt>
      <trkpt lat="46.5037" lon="5.38045">
        <ele>243.4</ele>
        <time>2021-12-31T12:06:55Z</time>
      </trkpt>
      <trkpt lat="46.50376" lon="5.38047">
        <ele>242.8</ele>
        <time>2021-12-31T12:07:07Z</time>
      </trkpt>
      <trkpt lat="46.50379" lon="5.38046">
        <ele>242.8</ele>
        <time>2021-12-31T12:07:08Z</time>
      </trkpt>
      <trkpt lat="46.50391" lon="5.38036">
        <ele>242.8</ele>
        <time>2021-12-31T12:07:11Z</time>
      </trkpt>
      <trkpt lat="46.50395" lon="5.38031">
        <ele>242.6</ele>
        <time>2021-12-31T12:07:12Z</time>
      </trkpt>
      <trkpt lat="46.50404" lon="5.38015">
        <ele>242.4</ele>
        <time>2021-12-31T12:07:14Z</time>
      </trkpt>
      <trkpt lat="46.50429" lon="5.37973">
        <ele>241.6</ele>
        <time>2021-12-31T12:07:19Z</time>
      </trkpt>
      <trkpt lat="46.50435" lon="5.37964">
        <ele>241.6</ele>
        <time>2021-12-31T12:07:20Z</time>
      </trkpt>
      <trkpt lat="46.5045" lon="5.37936">
        <ele>240.6</ele>
        <time>2021-12-31T12:07:23Z</time>
      </trkpt>
      <trkpt lat="46.50463" lon="5.37917">
        <ele>240.2</ele>
        <time>2021-12-31T12:07:25Z</time>
      </trkpt>
      <trkpt lat="46.50475" lon="5.37899">
        <ele>239.4</ele>
        <time>2021-12-31T12:07:27Z</time>
      </trkpt>
      <trkpt lat="46.50495" lon="5.3787">
        <ele>238</ele>
        <time>2021-12-31T12:07:30Z</time>
      </trkpt>
      <trkpt lat="46.50515" lon="5.37839">
        <ele>237</ele>
        <time>2021-12-31T12:07:33Z</time>
      </trkpt>
      <trkpt lat="46.50522" lon="5.37829">
        <ele>236.8</ele>
        <time>2021-12-31T12:07:34Z</time>
      </trkpt>
      <trkpt lat="46.50541" lon="5.37799">
        <ele>235.6</ele>
        <time>2021-12-31T12:07:37Z</time>
      </trkpt>
      <trkpt lat="46.50567" lon="5.37759">
        <ele>234.4</ele>
        <time>2021-12-31T12:07:41Z</time>
      </trkpt>
      <trkpt lat="46.50587" lon="5.37729">
        <ele>232.8</ele>
        <time>2021-12-31T12:07:44Z</time>
      </trkpt>
      <trkpt lat="46.50613" lon="5.37689">
        <ele>231.4</ele>
        <time>2021-12-31T12:07:48Z</time>
      </trkpt>
      <trkpt lat="46.50627" lon="5.37669">
        <ele>230.4</ele>
        <time>2021-12-31T12:07:50Z</time>
      </trkpt>
      <trkpt lat="46.50633" lon="5.37659">
        <ele>230</ele>
        <time>2021-12-31T12:07:51Z</time>
      </trkpt>
      <trkpt lat="46.50658" lon="5.3762">
        <ele>229</ele>
        <time>2021-12-31T12:07:55Z</time>
      </trkpt>
      <trkpt lat="46.50664" lon="5.37612">
        <ele>228.8</ele>
        <time>2021-12-31T12:07:56Z</time>
      </trkpt>
      <trkpt lat="46.5068" lon="5.37585">
        <ele>228</ele>
        <time>2021-12-31T12:07:59Z</time>
      </trkpt>
      <trkpt lat="46.50685" lon="5.37576">
        <ele>227.8</ele>
        <time>2021-12-31T12:08:00Z</time>
      </trkpt>
      <trkpt lat="46.50691" lon="5.37569">
        <ele>227.8</ele>
        <time>2021-12-31T12:08:01Z</time>
      </trkpt>
      <trkpt lat="46.50704" lon="5.37567">
        <ele>227.6</ele>
        <time>2021-12-31T12:08:03Z</time>
      </trkpt>
      <trkpt lat="46.50715" lon="5.37578">
        <ele>227.2</ele>
        <time>2021-12-31T12:08:05Z</time>
      </trkpt>
      <trkpt lat="46.5072" lon="5.37585">
        <ele>227.2</ele>
        <time>2021-12-31T12:08:06Z</time>
      </trkpt>
      <trkpt lat="46.50731" lon="5.37607">
        <ele>226.4</ele>
        <time>2021-12-31T12:08:09Z</time>
      </trkpt>
      <trkpt lat="46.50736" lon="5.37623">
        <ele>226.2</ele>
        <time>2021-12-31T12:08:11Z</time>
      </trkpt>
      <trkpt lat="46.5074" lon="5.37648">
        <ele>226.2</ele>
        <time>2021-12-31T12:08:14Z</time>
      </trkpt>
      <trkpt lat="46.50741" lon="5.37663">
        <ele>226.8</ele>
        <time>2021-12-31T12:08:16Z</time>
      </trkpt>
      <trkpt lat="46.50742" lon="5.37686">
        <ele>227.4</ele>
        <time>2021-12-31T12:08:19Z</time>
      </trkpt>
      <trkpt lat="46.50744" lon="5.37706">
        <ele>228.4</ele>
        <time>2021-12-31T12:08:22Z</time>
      </trkpt>
      <trkpt lat="46.50745" lon="5.37715">
        <ele>228.8</ele>
        <time>2021-12-31T12:08:23Z</time>
      </trkpt>
      <trkpt lat="46.50748" lon="5.37744">
        <ele>230</ele>
        <time>2021-12-31T12:08:27Z</time>
      </trkpt>
      <trkpt lat="46.50752" lon="5.37769">
        <ele>230.8</ele>
        <time>2021-12-31T12:08:30Z</time>
      </trkpt>
      <trkpt lat="46.5076" lon="5.37802">
        <ele>231</ele>
        <time>2021-12-31T12:08:34Z</time>
      </trkpt>
      <trkpt lat="46.50766" lon="5.37817">
        <ele>231.6</ele>
        <time>2021-12-31T12:08:36Z</time>
      </trkpt>
      <trkpt lat="46.50776" lon="5.37838">
        <ele>232</ele>
        <time>2021-12-31T12:08:39Z</time>
      </trkpt>
      <trkpt lat="46.50792" lon="5.37863">
        <ele>232.4</ele>
        <time>2021-12-31T12:08:43Z</time>
      </trkpt>
      <trkpt lat="46.50815" lon="5.3789">
        <ele>232.8</ele>
        <time>2021-12-31T12:08:48Z</time>
      </trkpt>
      <trkpt lat="46.50821" lon="5.37894">
        <ele>232.8</ele>
        <time>2021-12-31T12:08:49Z</time>
      </trkpt>
      <trkpt lat="46.50827" lon="5.37896">
        <ele>232.8</ele>
        <time>2021-12-31T12:08:50Z</time>
      </trkpt>
      <trkpt lat="46.50834" lon="5.37898">
        <ele>232.8</ele>
        <time>2021-12-31T12:08:51Z</time>
      </trkpt>
      <trkpt lat="46.50853" lon="5.37901">
        <ele>233.2</ele>
        <time>2021-12-31T12:08:54Z</time>
      </trkpt>
      <trkpt lat="46.50911" lon="5.37904">
        <ele>233.4</ele>
        <time>2021-12-31T12:09:03Z</time>
      </trkpt>
      <trkpt lat="46.5093" lon="5.379">
        <ele>233.4</ele>
        <time>2021-12-31T12:09:06Z</time>
      </trkpt>
      <trkpt lat="46.50947" lon="5.37894">
        <ele>233.4</ele>
        <time>2021-12-31T12:09:09Z</time>
      </trkpt>
      <trkpt lat="46.50996" lon="5.37882">
        <ele>233.4</ele>
        <time>2021-12-31T12:09:17Z</time>
      </trkpt>
      <trkpt lat="46.51052" lon="5.37873">
        <ele>233</ele>
        <time>2021-12-31T12:09:25Z</time>
      </trkpt>
      <trkpt lat="46.511" lon="5.37865">
        <ele>232</ele>
        <time>2021-12-31T12:09:31Z</time>
      </trkpt>
      <trkpt lat="46.51115" lon="5.37857">
        <ele>231.8</ele>
        <time>2021-12-31T12:09:33Z</time>
      </trkpt>
      <trkpt lat="46.51138" lon="5.37843">
        <ele>230.4</ele>
        <time>2021-12-31T12:09:36Z</time>
      </trkpt>
      <trkpt lat="46.51145" lon="5.37837">
        <ele>230.4</ele>
        <time>2021-12-31T12:09:37Z</time>
      </trkpt>
      <trkpt lat="46.51167" lon="5.3782">
        <ele>229.4</ele>
        <time>2021-12-31T12:09:40Z</time>
      </trkpt>
      <trkpt lat="46.51182" lon="5.37812">
        <ele>228.8</ele>
        <time>2021-12-31T12:09:42Z</time>
      </trkpt>
      <trkpt lat="46.5119" lon="5.37809">
        <ele>228.6</ele>
        <time>2021-12-31T12:09:43Z</time>
      </trkpt>
      <trkpt lat="46.51207" lon="5.37806">
        <ele>228.2</ele>
        <time>2021-12-31T12:09:45Z</time>
      </trkpt>
      <trkpt lat="46.51241" lon="5.37801">
        <ele>227.2</ele>
        <time>2021-12-31T12:09:49Z</time>
      </trkpt>
      <trkpt lat="46.51249" lon="5.37799">
        <ele>227</ele>
        <time>2021-12-31T12:09:50Z</time>
      </trkpt>
      <trkpt lat="46.5126" lon="5.37796">
        <ele>226.8</ele>
        <time>2021-12-31T12:09:51Z</time>
      </trkpt>
      <trkpt lat="46.51282" lon="5.37785">
        <ele>226</ele>
        <time>2021-12-31T12:09:54Z</time>
      </trkpt>
      <trkpt lat="46.51298" lon="5.37777">
        <ele>225.8</ele>
        <time>2021-12-31T12:09:56Z</time>
      </trkpt>
      <trkpt lat="46.51357" lon="5.37747">
        <ele>224.4</ele>
        <time>2021-12-31T12:10:03Z</time>
      </trkpt>
      <trkpt lat="46.5138" lon="5.37735">
        <ele>223.8</ele>
        <time>2021-12-31T12:10:06Z</time>
      </trkpt>
      <trkpt lat="46.51397" lon="5.37727">
        <ele>223.2</ele>
        <time>2021-12-31T12:10:08Z</time>
      </trkpt>
      <trkpt lat="46.51431" lon="5.37716">
        <ele>222.2</ele>
        <time>2021-12-31T12:10:12Z</time>
      </trkpt>
      <trkpt lat="46.51441" lon="5.37713">
        <ele>222</ele>
        <time>2021-12-31T12:10:13Z</time>
      </trkpt>
      <trkpt lat="46.5149" lon="5.37702">
        <ele>221</ele>
        <time>2021-12-31T12:10:19Z</time>
      </trkpt>
      <trkpt lat="46.51499" lon="5.37699">
        <ele>220.8</ele>
        <time>2021-12-31T12:10:20Z</time>
      </trkpt>
      <trkpt lat="46.51533" lon="5.37691">
        <ele>219.8</ele>
        <time>2021-12-31T12:10:24Z</time>
      </trkpt>
      <trkpt lat="46.51579" lon="5.37682">
        <ele>218.8</ele>
        <time>2021-12-31T12:10:29Z</time>
      </trkpt>
      <trkpt lat="46.51597" lon="5.37681">
        <ele>218.4</ele>
        <time>2021-12-31T12:10:31Z</time>
      </trkpt>
      <trkpt lat="46.51632" lon="5.37671">
        <ele>217.8</ele>
        <time>2021-12-31T12:10:35Z</time>
      </trkpt>
      <trkpt lat="46.51641" lon="5.37667">
        <ele>217.6</ele>
        <time>2021-12-31T12:10:36Z</time>
      </trkpt>
      <trkpt lat="46.51672" lon="5.37651">
        <ele>216.6</ele>
        <time>2021-12-31T12:10:40Z</time>
      </trkpt>
      <trkpt lat="46.51684" lon="5.3764">
        <ele>216.4</ele>
        <time>2021-12-31T12:10:42Z</time>
      </trkpt>
      <trkpt lat="46.51691" lon="5.37635">
        <ele>216.4</ele>
        <time>2021-12-31T12:10:43Z</time>
      </trkpt>
      <trkpt lat="46.51708" lon="5.37631">
        <ele>216</ele>
        <time>2021-12-31T12:10:45Z</time>
      </trkpt>
      <trkpt lat="46.51751" lon="5.37642">
        <ele>216.4</ele>
        <time>2021-12-31T12:10:51Z</time>
      </trkpt>
      <trkpt lat="46.51783" lon="5.37651">
        <ele>216.6</ele>
        <time>2021-12-31T12:10:56Z</time>
      </trkpt>
      <trkpt lat="46.51789" lon="5.37651">
        <ele>216.8</ele>
        <time>2021-12-31T12:10:57Z</time>
      </trkpt>
      <trkpt lat="46.51827" lon="5.3765">
        <ele>217.8</ele>
        <time>2021-12-31T12:11:03Z</time>
      </trkpt>
      <trkpt lat="46.51872" lon="5.3765">
        <ele>219</ele>
        <time>2021-12-31T12:11:10Z</time>
      </trkpt>
      <trkpt lat="46.51898" lon="5.37649">
        <ele>219.4</ele>
        <time>2021-12-31T12:11:14Z</time>
      </trkpt>
      <trkpt lat="46.51953" lon="5.37639">
        <ele>219.8</ele>
        <time>2021-12-31T12:11:22Z</time>
      </trkpt>
      <trkpt lat="46.5201" lon="5.3763">
        <ele>219.4</ele>
        <time>2021-12-31T12:11:31Z</time>
      </trkpt>
      <trkpt lat="46.52015" lon="5.3763">
        <ele>219.4</ele>
        <time>2021-12-31T12:11:32Z</time>
      </trkpt>
      <trkpt lat="46.52022" lon="5.37624">
        <ele>219.2</ele>
        <time>2021-12-31T12:11:34Z</time>
      </trkpt>
      <trkpt lat="46.52028" lon="5.37611">
        <ele>219</ele>
        <time>2021-12-31T12:11:36Z</time>
      </trkpt>
      <trkpt lat="46.52031" lon="5.37603">
        <ele>219</ele>
        <time>2021-12-31T12:11:37Z</time>
      </trkpt>
      <trkpt lat="46.52041" lon="5.37555">
        <ele>218.8</ele>
        <time>2021-12-31T12:11:42Z</time>
      </trkpt>
      <trkpt lat="46.52055" lon="5.3749">
        <ele>218.6</ele>
        <time>2021-12-31T12:11:49Z</time>
      </trkpt>
      <trkpt lat="46.52072" lon="5.37413">
        <ele>218.6</ele>
        <time>2021-12-31T12:11:58Z</time>
      </trkpt>
      <trkpt lat="46.52083" lon="5.37363">
        <ele>218.6</ele>
        <time>2021-12-31T12:12:04Z</time>
      </trkpt>
      <trkpt lat="46.52091" lon="5.37347">
        <ele>218.6</ele>
        <time>2021-12-31T12:12:06Z</time>
      </trkpt>
      <trkpt lat="46.52103" lon="5.37336">
        <ele>218.4</ele>
        <time>2021-12-31T12:12:08Z</time>
      </trkpt>
      <trkpt lat="46.52116" lon="5.37326">
        <ele>218.2</ele>
        <time>2021-12-31T12:12:10Z</time>
      </trkpt>
      <trkpt lat="46.52123" lon="5.37321">
        <ele>217.8</ele>
        <time>2021-12-31T12:12:11Z</time>
      </trkpt>
      <trkpt lat="46.52154" lon="5.373">
        <ele>216.6</ele>
        <time>2021-12-31T12:12:15Z</time>
      </trkpt>
      <trkpt lat="46.52162" lon="5.37294">
        <ele>215.8</ele>
        <time>2021-12-31T12:12:16Z</time>
      </trkpt>
      <trkpt lat="46.52179" lon="5.37282">
        <ele>214.8</ele>
        <time>2021-12-31T12:12:18Z</time>
      </trkpt>
      <trkpt lat="46.52204" lon="5.37263">
        <ele>213.4</ele>
        <time>2021-12-31T12:12:21Z</time>
      </trkpt>
      <trkpt lat="46.52229" lon="5.37242">
        <ele>212.2</ele>
        <time>2021-12-31T12:12:24Z</time>
      </trkpt>
      <trkpt lat="46.5226" lon="5.37212">
        <ele>211</ele>
        <time>2021-12-31T12:12:28Z</time>
      </trkpt>
      <trkpt lat="46.52294" lon="5.37176">
        <ele>210</ele>
        <time>2021-12-31T12:12:32Z</time>
      </trkpt>
      <trkpt lat="46.52318" lon="5.3715">
        <ele>208.2</ele>
        <time>2021-12-31T12:12:35Z</time>
      </trkpt>
      <trkpt lat="46.52343" lon="5.37125">
        <ele>207.2</ele>
        <time>2021-12-31T12:12:38Z</time>
      </trkpt>
      <trkpt lat="46.52368" lon="5.371">
        <ele>206</ele>
        <time>2021-12-31T12:12:41Z</time>
      </trkpt>
      <trkpt lat="46.52391" lon="5.37075">
        <ele>204.6</ele>
        <time>2021-12-31T12:12:44Z</time>
      </trkpt>
      <trkpt lat="46.52404" lon="5.37056">
        <ele>204</ele>
        <time>2021-12-31T12:12:46Z</time>
      </trkpt>
      <trkpt lat="46.52415" lon="5.37038">
        <ele>203.4</ele>
        <time>2021-12-31T12:12:48Z</time>
      </trkpt>
      <trkpt lat="46.52435" lon="5.36999">
        <ele>202.8</ele>
        <time>2021-12-31T12:12:52Z</time>
      </trkpt>
      <trkpt lat="46.52442" lon="5.36978">
        <ele>202.4</ele>
        <time>2021-12-31T12:12:54Z</time>
      </trkpt>
      <trkpt lat="46.52449" lon="5.36942">
        <ele>201.8</ele>
        <time>2021-12-31T12:12:57Z</time>
      </trkpt>
      <trkpt lat="46.5246" lon="5.36864">
        <ele>201.4</ele>
        <time>2021-12-31T12:13:04Z</time>
      </trkpt>
      <trkpt lat="46.52463" lon="5.36842">
        <ele>201.2</ele>
        <time>2021-12-31T12:13:06Z</time>
      </trkpt>
      <trkpt lat="46.52468" lon="5.36769">
        <ele>201</ele>
        <time>2021-12-31T12:13:13Z</time>
      </trkpt>
      <trkpt lat="46.52471" lon="5.36685">
        <ele>200.6</ele>
        <time>2021-12-31T12:13:21Z</time>
      </trkpt>
      <trkpt lat="46.52475" lon="5.36606">
        <ele>200.4</ele>
        <time>2021-12-31T12:13:29Z</time>
      </trkpt>
      <trkpt lat="46.52476" lon="5.36596">
        <ele>200.4</ele>
        <time>2021-12-31T12:13:30Z</time>
      </trkpt>
      <trkpt lat="46.52482" lon="5.3651">
        <ele>200.2</ele>
        <time>2021-12-31T12:13:39Z</time>
      </trkpt>
      <trkpt lat="46.52483" lon="5.36498">
        <ele>200.2</ele>
        <time>2021-12-31T12:13:40Z</time>
      </trkpt>
      <trkpt lat="46.52493" lon="5.36419">
        <ele>199.2</ele>
        <time>2021-12-31T12:13:48Z</time>
      </trkpt>
      <trkpt lat="46.52494" lon="5.36409">
        <ele>199.2</ele>
        <time>2021-12-31T12:13:49Z</time>
      </trkpt>
      <trkpt lat="46.52499" lon="5.36376">
        <ele>199</ele>
        <time>2021-12-31T12:13:52Z</time>
      </trkpt>
      <trkpt lat="46.52505" lon="5.36349">
        <ele>198.8</ele>
        <time>2021-12-31T12:13:55Z</time>
      </trkpt>
      <trkpt lat="46.52509" lon="5.36338">
        <ele>198.8</ele>
        <time>2021-12-31T12:13:56Z</time>
      </trkpt>
      <trkpt lat="46.5252" lon="5.36325">
        <ele>198.6</ele>
        <time>2021-12-31T12:13:58Z</time>
      </trkpt>
      <trkpt lat="46.52535" lon="5.36316">
        <ele>198.4</ele>
        <time>2021-12-31T12:14:00Z</time>
      </trkpt>
      <trkpt lat="46.52542" lon="5.36314">
        <ele>198.4</ele>
        <time>2021-12-31T12:14:01Z</time>
      </trkpt>
      <trkpt lat="46.52549" lon="5.36314">
        <ele>198.4</ele>
        <time>2021-12-31T12:14:02Z</time>
      </trkpt>
      <trkpt lat="46.5256" lon="5.36316">
        <ele>198.4</ele>
        <time>2021-12-31T12:14:04Z</time>
      </trkpt>
      <trkpt lat="46.52567" lon="5.36316">
        <ele>198.4</ele>
        <time>2021-12-31T12:14:05Z</time>
      </trkpt>
      <trkpt lat="46.52579" lon="5.36308">
        <ele>198.4</ele>
        <time>2021-12-31T12:14:07Z</time>
      </trkpt>
      <trkpt lat="46.52607" lon="5.3628">
        <ele>198.4</ele>
        <time>2021-12-31T12:14:12Z</time>
      </trkpt>
      <trkpt lat="46.52652" lon="5.36252">
        <ele>198.4</ele>
        <time>2021-12-31T12:14:19Z</time>
      </trkpt>
      <trkpt lat="46.5269" lon="5.36225">
        <ele>198.4</ele>
        <time>2021-12-31T12:14:25Z</time>
      </trkpt>
      <trkpt lat="46.52695" lon="5.36219">
        <ele>198.4</ele>
        <time>2021-12-31T12:14:26Z</time>
      </trkpt>
      <trkpt lat="46.527" lon="5.36213">
        <ele>198.4</ele>
        <time>2021-12-31T12:14:27Z</time>
      </trkpt>
      <trkpt lat="46.52709" lon="5.36199">
        <ele>198.2</ele>
        <time>2021-12-31T12:14:29Z</time>
      </trkpt>
      <trkpt lat="46.52713" lon="5.36191">
        <ele>198.2</ele>
        <time>2021-12-31T12:14:30Z</time>
      </trkpt>
      <trkpt lat="46.52715" lon="5.36183">
        <ele>198.2</ele>
        <time>2021-12-31T12:14:31Z</time>
      </trkpt>
      <trkpt lat="46.5273" lon="5.36134">
        <ele>198.2</ele>
        <time>2021-12-31T12:14:37Z</time>
      </trkpt>
      <trkpt lat="46.52738" lon="5.36111">
        <ele>198.4</ele>
        <time>2021-12-31T12:14:40Z</time>
      </trkpt>
      <trkpt lat="46.52746" lon="5.36085">
        <ele>198.6</ele>
        <time>2021-12-31T12:14:43Z</time>
      </trkpt>
      <trkpt lat="46.52759" lon="5.36055">
        <ele>199</ele>
        <time>2021-12-31T12:14:47Z</time>
      </trkpt>
      <trkpt lat="46.52764" lon="5.3605">
        <ele>199</ele>
        <time>2021-12-31T12:14:48Z</time>
      </trkpt>
      <trkpt lat="46.52768" lon="5.36047">
        <ele>199</ele>
        <time>2021-12-31T12:14:49Z</time>
      </trkpt>
      <trkpt lat="46.5278" lon="5.36045">
        <ele>199.2</ele>
        <time>2021-12-31T12:14:51Z</time>
      </trkpt>
      <trkpt lat="46.52785" lon="5.36046">
        <ele>199.2</ele>
        <time>2021-12-31T12:14:52Z</time>
      </trkpt>
      <trkpt lat="46.52802" lon="5.36053">
        <ele>199.4</ele>
        <time>2021-12-31T12:14:56Z</time>
      </trkpt>
      <trkpt lat="46.5282" lon="5.36058">
        <ele>200.2</ele>
        <time>2021-12-31T12:15:00Z</time>
      </trkpt>
      <trkpt lat="46.5283" lon="5.36062">
        <ele>201</ele>
        <time>2021-12-31T12:15:03Z</time>
      </trkpt>
      <trkpt lat="46.52835" lon="5.36065">
        <ele>201.4</ele>
        <time>2021-12-31T12:15:05Z</time>
      </trkpt>
      <trkpt lat="46.52841" lon="5.36065">
        <ele>201.8</ele>
        <time>2021-12-31T12:15:07Z</time>
      </trkpt>
      <trkpt lat="46.52854" lon="5.36066">
        <ele>202.4</ele>
        <time>2021-12-31T12:15:10Z</time>
      </trkpt>
      <trkpt lat="46.52859" lon="5.36066">
        <ele>202.4</ele>
        <time>2021-12-31T12:15:11Z</time>
      </trkpt>
      <trkpt lat="46.52899" lon="5.3607">
        <ele>203</ele>
        <time>2021-12-31T12:15:19Z</time>
      </trkpt>
      <trkpt lat="46.52914" lon="5.36072">
        <ele>203.4</ele>
        <time>2021-12-31T12:15:22Z</time>
      </trkpt>
      <trkpt lat="46.52929" lon="5.36076">
        <ele>203.8</ele>
        <time>2021-12-31T12:15:25Z</time>
      </trkpt>
      <trkpt lat="46.52939" lon="5.3608">
        <ele>204.4</ele>
        <time>2021-12-31T12:15:27Z</time>
      </trkpt>
      <trkpt lat="46.52943" lon="5.36081">
        <ele>204.2</ele>
        <time>2021-12-31T12:15:28Z</time>
      </trkpt>
      <trkpt lat="46.52949" lon="5.36084">
        <ele>204.6</ele>
        <time>2021-12-31T12:15:29Z</time>
      </trkpt>
      <trkpt lat="46.52956" lon="5.36093">
        <ele>204.8</ele>
        <time>2021-12-31T12:15:31Z</time>
      </trkpt>
      <trkpt lat="46.52964" lon="5.36109">
        <ele>205.4</ele>
        <time>2021-12-31T12:15:34Z</time>
      </trkpt>
      <trkpt lat="46.5297" lon="5.36118">
        <ele>205.8</ele>
        <time>2021-12-31T12:15:36Z</time>
      </trkpt>
      <trkpt lat="46.52973" lon="5.36123">
        <ele>206</ele>
        <time>2021-12-31T12:15:37Z</time>
      </trkpt>
      <trkpt lat="46.52985" lon="5.36134">
        <ele>206.6</ele>
        <time>2021-12-31T12:15:40Z</time>
      </trkpt>
      <trkpt lat="46.52989" lon="5.36136">
        <ele>206.8</ele>
        <time>2021-12-31T12:15:41Z</time>
      </trkpt>
      <trkpt lat="46.52994" lon="5.36137">
        <ele>206.8</ele>
        <time>2021-12-31T12:15:42Z</time>
      </trkpt>
      <trkpt lat="46.53012" lon="5.36138">
        <ele>207.4</ele>
        <time>2021-12-31T12:15:46Z</time>
      </trkpt>
      <trkpt lat="46.53017" lon="5.36139">
        <ele>207.6</ele>
        <time>2021-12-31T12:15:47Z</time>
      </trkpt>
      <trkpt lat="46.53031" lon="5.36143">
        <ele>208.6</ele>
        <time>2021-12-31T12:15:50Z</time>
      </trkpt>
      <trkpt lat="46.53041" lon="5.36143">
        <ele>209.2</ele>
        <time>2021-12-31T12:15:52Z</time>
      </trkpt>
      <trkpt lat="46.53047" lon="5.36142">
        <ele>209.2</ele>
        <time>2021-12-31T12:15:53Z</time>
      </trkpt>
      <trkpt lat="46.5306" lon="5.36135">
        <ele>209.8</ele>
        <time>2021-12-31T12:15:56Z</time>
      </trkpt>
      <trkpt lat="46.53064" lon="5.36133">
        <ele>210</ele>
        <time>2021-12-31T12:15:57Z</time>
      </trkpt>
      <trkpt lat="46.53087" lon="5.36112">
        <ele>210.6</ele>
        <time>2021-12-31T12:16:03Z</time>
      </trkpt>
      <trkpt lat="46.53093" lon="5.36104">
        <ele>211.2</ele>
        <time>2021-12-31T12:16:05Z</time>
      </trkpt>
      <trkpt lat="46.53105" lon="5.36081">
        <ele>212.4</ele>
        <time>2021-12-31T12:16:10Z</time>
      </trkpt>
      <trkpt lat="46.53117" lon="5.36055">
        <ele>213.4</ele>
        <time>2021-12-31T12:16:15Z</time>
      </trkpt>
      <trkpt lat="46.53129" lon="5.36034">
        <ele>214.2</ele>
        <time>2021-12-31T12:16:19Z</time>
      </trkpt>
      <trkpt lat="46.53136" lon="5.36024">
        <ele>214.4</ele>
        <time>2021-12-31T12:16:21Z</time>
      </trkpt>
      <trkpt lat="46.53158" lon="5.35987">
        <ele>215.2</ele>
        <time>2021-12-31T12:16:28Z</time>
      </trkpt>
      <trkpt lat="46.53169" lon="5.35965">
        <ele>215.6</ele>
        <time>2021-12-31T12:16:32Z</time>
      </trkpt>
      <trkpt lat="46.53183" lon="5.3594">
        <ele>216.4</ele>
        <time>2021-12-31T12:16:37Z</time>
      </trkpt>
      <trkpt lat="46.53191" lon="5.35931">
        <ele>216.4</ele>
        <time>2021-12-31T12:16:39Z</time>
      </trkpt>
      <trkpt lat="46.53195" lon="5.35928">
        <ele>216.6</ele>
        <time>2021-12-31T12:16:40Z</time>
      </trkpt>
      <trkpt lat="46.532" lon="5.35925">
        <ele>216.6</ele>
        <time>2021-12-31T12:16:41Z</time>
      </trkpt>
      <trkpt lat="46.53206" lon="5.35922">
        <ele>216.6</ele>
        <time>2021-12-31T12:16:42Z</time>
      </trkpt>
      <trkpt lat="46.53248" lon="5.35905">
        <ele>216.6</ele>
        <time>2021-12-31T12:16:49Z</time>
      </trkpt>
      <trkpt lat="46.53303" lon="5.3588">
        <ele>216.4</ele>
        <time>2021-12-31T12:16:58Z</time>
      </trkpt>
      <trkpt lat="46.53321" lon="5.35873">
        <ele>216.4</ele>
        <time>2021-12-31T12:17:01Z</time>
      </trkpt>
      <trkpt lat="46.53365" lon="5.35861">
        <ele>217</ele>
        <time>2021-12-31T12:17:09Z</time>
      </trkpt>
      <trkpt lat="46.53391" lon="5.35863">
        <ele>217.8</ele>
        <time>2021-12-31T12:17:14Z</time>
      </trkpt>
      <trkpt lat="46.53402" lon="5.35864">
        <ele>218.2</ele>
        <time>2021-12-31T12:17:16Z</time>
      </trkpt>
      <trkpt lat="46.53427" lon="5.35866">
        <ele>218.8</ele>
        <time>2021-12-31T12:17:21Z</time>
      </trkpt>
      <trkpt lat="46.53442" lon="5.35868">
        <ele>219.6</ele>
        <time>2021-12-31T12:17:24Z</time>
      </trkpt>
      <trkpt lat="46.53457" lon="5.35869">
        <ele>220</ele>
        <time>2021-12-31T12:17:27Z</time>
      </trkpt>
      <trkpt lat="46.53463" lon="5.35868">
        <ele>220</ele>
        <time>2021-12-31T12:17:28Z</time>
      </trkpt>
      <trkpt lat="46.53472" lon="5.35865">
        <ele>220.2</ele>
        <time>2021-12-31T12:17:30Z</time>
      </trkpt>
      <trkpt lat="46.53495" lon="5.35853">
        <ele>221.2</ele>
        <time>2021-12-31T12:17:35Z</time>
      </trkpt>
      <trkpt lat="46.53505" lon="5.35848">
        <ele>221.4</ele>
        <time>2021-12-31T12:17:37Z</time>
      </trkpt>
      <trkpt lat="46.53515" lon="5.35847">
        <ele>222</ele>
        <time>2021-12-31T12:17:39Z</time>
      </trkpt>
      <trkpt lat="46.53527" lon="5.35848">
        <ele>222.2</ele>
        <time>2021-12-31T12:17:41Z</time>
      </trkpt>
      <trkpt lat="46.53571" lon="5.35859">
        <ele>222.6</ele>
        <time>2021-12-31T12:17:49Z</time>
      </trkpt>
      <trkpt lat="46.53617" lon="5.35874">
        <ele>222.2</ele>
        <time>2021-12-31T12:17:57Z</time>
      </trkpt>
      <trkpt lat="46.53636" lon="5.35881">
        <ele>221.6</ele>
        <time>2021-12-31T12:18:01Z</time>
      </trkpt>
      <trkpt lat="46.53643" lon="5.35881">
        <ele>221.2</ele>
        <time>2021-12-31T12:18:03Z</time>
      </trkpt>
      <trkpt lat="46.53646" lon="5.35879">
        <ele>221.2</ele>
        <time>2021-12-31T12:18:04Z</time>
      </trkpt>
      <trkpt lat="46.53655" lon="5.35873">
        <ele>220.8</ele>
        <time>2021-12-31T12:18:06Z</time>
      </trkpt>
      <trkpt lat="46.5366" lon="5.35868">
        <ele>220.4</ele>
        <time>2021-12-31T12:18:07Z</time>
      </trkpt>
      <trkpt lat="46.53665" lon="5.35861">
        <ele>220.4</ele>
        <time>2021-12-31T12:18:08Z</time>
      </trkpt>
      <trkpt lat="46.5367" lon="5.35853">
        <ele>220</ele>
        <time>2021-12-31T12:18:09Z</time>
      </trkpt>
      <trkpt lat="46.53681" lon="5.35837">
        <ele>219.8</ele>
        <time>2021-12-31T12:18:11Z</time>
      </trkpt>
      <trkpt lat="46.53693" lon="5.35819">
        <ele>219</ele>
        <time>2021-12-31T12:18:13Z</time>
      </trkpt>
      <trkpt lat="46.53711" lon="5.35792">
        <ele>217.8</ele>
        <time>2021-12-31T12:18:16Z</time>
      </trkpt>
      <trkpt lat="46.53717" lon="5.35783">
        <ele>216.8</ele>
        <time>2021-12-31T12:18:17Z</time>
      </trkpt>
      <trkpt lat="46.53723" lon="5.35773">
        <ele>216.6</ele>
        <time>2021-12-31T12:18:18Z</time>
      </trkpt>
      <trkpt lat="46.53736" lon="5.35743">
        <ele>215.6</ele>
        <time>2021-12-31T12:18:21Z</time>
      </trkpt>
      <trkpt lat="46.5374" lon="5.35732">
        <ele>215.4</ele>
        <time>2021-12-31T12:18:22Z</time>
      </trkpt>
      <trkpt lat="46.53749" lon="5.357">
        <ele>215</ele>
        <time>2021-12-31T12:18:25Z</time>
      </trkpt>
      <trkpt lat="46.53751" lon="5.35689">
        <ele>214.8</ele>
        <time>2021-12-31T12:18:26Z</time>
      </trkpt>
      <trkpt lat="46.53753" lon="5.35667">
        <ele>214.6</ele>
        <time>2021-12-31T12:18:28Z</time>
      </trkpt>
      <trkpt lat="46.53755" lon="5.35614">
        <ele>214.2</ele>
        <time>2021-12-31T12:18:33Z</time>
      </trkpt>
      <trkpt lat="46.53751" lon="5.35593">
        <ele>214</ele>
        <time>2021-12-31T12:18:35Z</time>
      </trkpt>
      <trkpt lat="46.53746" lon="5.35573">
        <ele>213.8</ele>
        <time>2021-12-31T12:18:37Z</time>
      </trkpt>
      <trkpt lat="46.5373" lon="5.35516">
        <ele>213.6</ele>
        <time>2021-12-31T12:18:43Z</time>
      </trkpt>
      <trkpt lat="46.53729" lon="5.35507">
        <ele>213.6</ele>
        <time>2021-12-31T12:18:44Z</time>
      </trkpt>
      <trkpt lat="46.53727" lon="5.35489">
        <ele>213.6</ele>
        <time>2021-12-31T12:18:46Z</time>
      </trkpt>
      <trkpt lat="46.53726" lon="5.35471">
        <ele>213.6</ele>
        <time>2021-12-31T12:18:48Z</time>
      </trkpt>
      <trkpt lat="46.53727" lon="5.35453">
        <ele>213.8</ele>
        <time>2021-12-31T12:18:50Z</time>
      </trkpt>
      <trkpt lat="46.5373" lon="5.35419">
        <ele>214.2</ele>
        <time>2021-12-31T12:18:54Z</time>
      </trkpt>
      <trkpt lat="46.53735" lon="5.35387">
        <ele>214.6</ele>
        <time>2021-12-31T12:18:58Z</time>
      </trkpt>
      <trkpt lat="46.53739" lon="5.35364">
        <ele>215</ele>
        <time>2021-12-31T12:19:01Z</time>
      </trkpt>
      <trkpt lat="46.53746" lon="5.35336">
        <ele>215.8</ele>
        <time>2021-12-31T12:19:05Z</time>
      </trkpt>
      <trkpt lat="46.53752" lon="5.35318">
        <ele>216.6</ele>
        <time>2021-12-31T12:19:08Z</time>
      </trkpt>
      <trkpt lat="46.53755" lon="5.35312">
        <ele>216.8</ele>
        <time>2021-12-31T12:19:09Z</time>
      </trkpt>
      <trkpt lat="46.53758" lon="5.35307">
        <ele>217</ele>
        <time>2021-12-31T12:19:10Z</time>
      </trkpt>
      <trkpt lat="46.53775" lon="5.35278">
        <ele>218</ele>
        <time>2021-12-31T12:19:15Z</time>
      </trkpt>
      <trkpt lat="46.53791" lon="5.35256">
        <ele>219</ele>
        <time>2021-12-31T12:19:19Z</time>
      </trkpt>
      <trkpt lat="46.53805" lon="5.35241">
        <ele>219.2</ele>
        <time>2021-12-31T12:19:22Z</time>
      </trkpt>
      <trkpt lat="46.53839" lon="5.35213">
        <ele>219.2</ele>
        <time>2021-12-31T12:19:28Z</time>
      </trkpt>
      <trkpt lat="46.5389" lon="5.35178">
        <ele>218.6</ele>
        <time>2021-12-31T12:19:36Z</time>
      </trkpt>
      <trkpt lat="46.53916" lon="5.35159">
        <ele>218</ele>
        <time>2021-12-31T12:19:40Z</time>
      </trkpt>
      <trkpt lat="46.53948" lon="5.35131">
        <ele>217.2</ele>
        <time>2021-12-31T12:19:45Z</time>
      </trkpt>
      <trkpt lat="46.53971" lon="5.35105">
        <ele>217</ele>
        <time>2021-12-31T12:19:49Z</time>
      </trkpt>
      <trkpt lat="46.54007" lon="5.35063">
        <ele>216.4</ele>
        <time>2021-12-31T12:19:55Z</time>
      </trkpt>
      <trkpt lat="46.54026" lon="5.35046">
        <ele>216</ele>
        <time>2021-12-31T12:19:58Z</time>
      </trkpt>
      <trkpt lat="46.54046" lon="5.35031">
        <ele>215.4</ele>
        <time>2021-12-31T12:20:01Z</time>
      </trkpt>
      <trkpt lat="46.5407" lon="5.35019">
        <ele>214.8</ele>
        <time>2021-12-31T12:20:04Z</time>
      </trkpt>
      <trkpt lat="46.54093" lon="5.35009">
        <ele>213.8</ele>
        <time>2021-12-31T12:20:07Z</time>
      </trkpt>
      <trkpt lat="46.5414" lon="5.34983">
        <ele>212.6</ele>
        <time>2021-12-31T12:20:13Z</time>
      </trkpt>
      <trkpt lat="46.54147" lon="5.34976">
        <ele>212.4</ele>
        <time>2021-12-31T12:20:14Z</time>
      </trkpt>
      <trkpt lat="46.5418" lon="5.34938">
        <ele>211.4</ele>
        <time>2021-12-31T12:20:19Z</time>
      </trkpt>
      <trkpt lat="46.54194" lon="5.34924">
        <ele>210.8</ele>
        <time>2021-12-31T12:20:21Z</time>
      </trkpt>
      <trkpt lat="46.54215" lon="5.34905">
        <ele>210.4</ele>
        <time>2021-12-31T12:20:24Z</time>
      </trkpt>
      <trkpt lat="46.54234" lon="5.34882">
        <ele>209.6</ele>
        <time>2021-12-31T12:20:27Z</time>
      </trkpt>
      <trkpt lat="46.54245" lon="5.34864">
        <ele>209.4</ele>
        <time>2021-12-31T12:20:29Z</time>
      </trkpt>
      <trkpt lat="46.5426" lon="5.34836">
        <ele>209</ele>
        <time>2021-12-31T12:20:32Z</time>
      </trkpt>
      <trkpt lat="46.54291" lon="5.34799">
        <ele>208.4</ele>
        <time>2021-12-31T12:20:37Z</time>
      </trkpt>
      <trkpt lat="46.54297" lon="5.34792">
        <ele>208.4</ele>
        <time>2021-12-31T12:20:38Z</time>
      </trkpt>
      <trkpt lat="46.54347" lon="5.34748">
        <ele>208.2</ele>
        <time>2021-12-31T12:20:46Z</time>
      </trkpt>
      <trkpt lat="46.54387" lon="5.34733">
        <ele>208.4</ele>
        <time>2021-12-31T12:20:52Z</time>
      </trkpt>
      <trkpt lat="46.54436" lon="5.3471">
        <ele>209</ele>
        <time>2021-12-31T12:21:00Z</time>
      </trkpt>
      <trkpt lat="46.54478" lon="5.34683">
        <ele>209.2</ele>
        <time>2021-12-31T12:21:07Z</time>
      </trkpt>
      <trkpt lat="46.54483" lon="5.34678">
        <ele>209</ele>
        <time>2021-12-31T12:21:08Z</time>
      </trkpt>
      <trkpt lat="46.54509" lon="5.34641">
        <ele>209.2</ele>
        <time>2021-12-31T12:21:14Z</time>
      </trkpt>
      <trkpt lat="46.54527" lon="5.34615">
        <ele>209.4</ele>
        <time>2021-12-31T12:21:18Z</time>
      </trkpt>
      <trkpt lat="46.54542" lon="5.346">
        <ele>209.6</ele>
        <time>2021-12-31T12:21:21Z</time>
      </trkpt>
      <trkpt lat="46.54565" lon="5.3458">
        <ele>210</ele>
        <time>2021-12-31T12:21:26Z</time>
      </trkpt>
      <trkpt lat="46.54573" lon="5.34573">
        <ele>210.4</ele>
        <time>2021-12-31T12:21:28Z</time>
      </trkpt>
      <trkpt lat="46.54593" lon="5.34557">
        <ele>211.4</ele>
        <time>2021-12-31T12:21:33Z</time>
      </trkpt>
      <trkpt lat="46.54597" lon="5.34554">
        <ele>211.6</ele>
        <time>2021-12-31T12:21:34Z</time>
      </trkpt>
      <trkpt lat="46.54611" lon="5.34541">
        <ele>213</ele>
        <time>2021-12-31T12:21:38Z</time>
      </trkpt>
      <trkpt lat="46.54623" lon="5.34531">
        <ele>214</ele>
        <time>2021-12-31T12:21:41Z</time>
      </trkpt>
      <trkpt lat="46.54627" lon="5.34528">
        <ele>214.2</ele>
        <time>2021-12-31T12:21:42Z</time>
      </trkpt>
      <trkpt lat="46.5464" lon="5.34516">
        <ele>215</ele>
        <time>2021-12-31T12:21:45Z</time>
      </trkpt>
      <trkpt lat="46.54658" lon="5.345">
        <ele>215.4</ele>
        <time>2021-12-31T12:21:49Z</time>
      </trkpt>
      <trkpt lat="46.54689" lon="5.34479">
        <ele>216</ele>
        <time>2021-12-31T12:21:55Z</time>
      </trkpt>
      <trkpt lat="46.54734" lon="5.34464">
        <ele>216</ele>
        <time>2021-12-31T12:22:03Z</time>
      </trkpt>
      <trkpt lat="46.54761" lon="5.34456">
        <ele>215.4</ele>
        <time>2021-12-31T12:22:09Z</time>
      </trkpt>
      <trkpt lat="46.54765" lon="5.34453">
        <ele>215</ele>
        <time>2021-12-31T12:22:11Z</time>
      </trkpt>
      <trkpt lat="46.54767" lon="5.34451">
        <ele>214.8</ele>
        <time>2021-12-31T12:22:13Z</time>
      </trkpt>
      <trkpt lat="46.54767" lon="5.34452">
        <ele>214.8</ele>
        <time>2021-12-31T12:22:14Z</time>
      </trkpt>
      <trkpt lat="46.54767" lon="5.34452">
        <ele>214.4</ele>
        <time>2021-12-31T12:22:17Z</time>
      </trkpt>
      <trkpt lat="46.54774" lon="5.3445">
        <ele>214.2</ele>
        <time>2021-12-31T12:23:00Z</time>
      </trkpt>
      <trkpt lat="46.54776" lon="5.34449">
        <ele>214.2</ele>
        <time>2021-12-31T12:23:01Z</time>
      </trkpt>
      <trkpt lat="46.54795" lon="5.34441">
        <ele>214.4</ele>
        <time>2021-12-31T12:23:06Z</time>
      </trkpt>
      <trkpt lat="46.54824" lon="5.34427">
        <ele>214.4</ele>
        <time>2021-12-31T12:23:11Z</time>
      </trkpt>
      <trkpt lat="46.54844" lon="5.34417">
        <ele>214.6</ele>
        <time>2021-12-31T12:23:15Z</time>
      </trkpt>
      <trkpt lat="46.54866" lon="5.34404">
        <ele>215</ele>
        <time>2021-12-31T12:23:18Z</time>
      </trkpt>
      <trkpt lat="46.54872" lon="5.344">
        <ele>215.2</ele>
        <time>2021-12-31T12:23:19Z</time>
      </trkpt>
      <trkpt lat="46.54891" lon="5.34383">
        <ele>215.8</ele>
        <time>2021-12-31T12:23:23Z</time>
      </trkpt>
      <trkpt lat="46.54897" lon="5.34378">
        <ele>216</ele>
        <time>2021-12-31T12:23:24Z</time>
      </trkpt>
      <trkpt lat="46.5492" lon="5.3436">
        <ele>216.2</ele>
        <time>2021-12-31T12:23:28Z</time>
      </trkpt>
      <trkpt lat="46.54932" lon="5.34351">
        <ele>216.4</ele>
        <time>2021-12-31T12:23:30Z</time>
      </trkpt>
      <trkpt lat="46.5496" lon="5.3433">
        <ele>216.2</ele>
        <time>2021-12-31T12:23:34Z</time>
      </trkpt>
      <trkpt lat="46.54966" lon="5.34323">
        <ele>216.2</ele>
        <time>2021-12-31T12:23:35Z</time>
      </trkpt>
      <trkpt lat="46.54998" lon="5.34275">
        <ele>215.8</ele>
        <time>2021-12-31T12:23:42Z</time>
      </trkpt>
      <trkpt lat="46.55025" lon="5.34235">
        <ele>215.2</ele>
        <time>2021-12-31T12:23:48Z</time>
      </trkpt>
      <trkpt lat="46.55047" lon="5.34207">
        <ele>214.6</ele>
        <time>2021-12-31T12:23:53Z</time>
      </trkpt>
      <trkpt lat="46.55066" lon="5.34184">
        <ele>214.4</ele>
        <time>2021-12-31T12:23:57Z</time>
      </trkpt>
      <trkpt lat="46.55079" lon="5.34173">
        <ele>214.2</ele>
        <time>2021-12-31T12:23:59Z</time>
      </trkpt>
      <trkpt lat="46.55114" lon="5.34136">
        <ele>214.2</ele>
        <time>2021-12-31T12:24:05Z</time>
      </trkpt>
      <trkpt lat="46.55151" lon="5.34091">
        <ele>214.4</ele>
        <time>2021-12-31T12:24:12Z</time>
      </trkpt>
      <trkpt lat="46.55171" lon="5.34066">
        <ele>214.2</ele>
        <time>2021-12-31T12:24:16Z</time>
      </trkpt>
      <trkpt lat="46.55178" lon="5.34053">
        <ele>214</ele>
        <time>2021-12-31T12:24:18Z</time>
      </trkpt>
      <trkpt lat="46.55181" lon="5.34048">
        <ele>214</ele>
        <time>2021-12-31T12:24:19Z</time>
      </trkpt>
      <trkpt lat="46.55184" lon="5.34036">
        <ele>213.6</ele>
        <time>2021-12-31T12:24:21Z</time>
      </trkpt>
      <trkpt lat="46.55185" lon="5.34029">
        <ele>213.6</ele>
        <time>2021-12-31T12:24:22Z</time>
      </trkpt>
      <trkpt lat="46.55188" lon="5.34014">
        <ele>213</ele>
        <time>2021-12-31T12:24:24Z</time>
      </trkpt>
      <trkpt lat="46.55192" lon="5.33999">
        <ele>212.8</ele>
        <time>2021-12-31T12:24:26Z</time>
      </trkpt>
      <trkpt lat="46.5521" lon="5.33973">
        <ele>212.4</ele>
        <time>2021-12-31T12:24:30Z</time>
      </trkpt>
      <trkpt lat="46.55239" lon="5.33938">
        <ele>212.2</ele>
        <time>2021-12-31T12:24:36Z</time>
      </trkpt>
      <trkpt lat="46.55264" lon="5.33897">
        <ele>213</ele>
        <time>2021-12-31T12:24:42Z</time>
      </trkpt>
      <trkpt lat="46.55298" lon="5.33841">
        <ele>213.4</ele>
        <time>2021-12-31T12:24:50Z</time>
      </trkpt>
      <trkpt lat="46.55336" lon="5.33798">
        <ele>213.2</ele>
        <time>2021-12-31T12:24:57Z</time>
      </trkpt>
      <trkpt lat="46.55377" lon="5.33761">
        <ele>212.6</ele>
        <time>2021-12-31T12:25:04Z</time>
      </trkpt>
      <trkpt lat="46.55408" lon="5.33739">
        <ele>211.8</ele>
        <time>2021-12-31T12:25:09Z</time>
      </trkpt>
      <trkpt lat="46.55419" lon="5.33726">
        <ele>211.8</ele>
        <time>2021-12-31T12:25:11Z</time>
      </trkpt>
      <trkpt lat="46.55459" lon="5.33671">
        <ele>211.6</ele>
        <time>2021-12-31T12:25:19Z</time>
      </trkpt>
      <trkpt lat="46.55489" lon="5.33629">
        <ele>211.4</ele>
        <time>2021-12-31T12:25:25Z</time>
      </trkpt>
      <trkpt lat="46.55499" lon="5.33614">
        <ele>211.2</ele>
        <time>2021-12-31T12:25:27Z</time>
      </trkpt>
      <trkpt lat="46.55531" lon="5.33571">
        <ele>210.4</ele>
        <time>2021-12-31T12:25:33Z</time>
      </trkpt>
      <trkpt lat="46.55537" lon="5.33563">
        <ele>210</ele>
        <time>2021-12-31T12:25:34Z</time>
      </trkpt>
      <trkpt lat="46.55566" lon="5.33523">
        <ele>209</ele>
        <time>2021-12-31T12:25:39Z</time>
      </trkpt>
      <trkpt lat="46.55586" lon="5.33486">
        <ele>207.6</ele>
        <time>2021-12-31T12:25:43Z</time>
      </trkpt>
      <trkpt lat="46.5559" lon="5.33475">
        <ele>207.2</ele>
        <time>2021-12-31T12:25:44Z</time>
      </trkpt>
      <trkpt lat="46.55592" lon="5.33463">
        <ele>207</ele>
        <time>2021-12-31T12:25:45Z</time>
      </trkpt>
      <trkpt lat="46.55594" lon="5.33451">
        <ele>206</ele>
        <time>2021-12-31T12:25:46Z</time>
      </trkpt>
      <trkpt lat="46.55596" lon="5.33425">
        <ele>205.2</ele>
        <time>2021-12-31T12:25:48Z</time>
      </trkpt>
      <trkpt lat="46.55598" lon="5.334">
        <ele>204.8</ele>
        <time>2021-12-31T12:25:50Z</time>
      </trkpt>
      <trkpt lat="46.55604" lon="5.33352">
        <ele>203.8</ele>
        <time>2021-12-31T12:25:54Z</time>
      </trkpt>
      <trkpt lat="46.55607" lon="5.3334">
        <ele>203.6</ele>
        <time>2021-12-31T12:25:55Z</time>
      </trkpt>
      <trkpt lat="46.55623" lon="5.33286">
        <ele>202.6</ele>
        <time>2021-12-31T12:26:00Z</time>
      </trkpt>
      <trkpt lat="46.55629" lon="5.33265">
        <ele>202.6</ele>
        <time>2021-12-31T12:26:02Z</time>
      </trkpt>
      <trkpt lat="46.55647" lon="5.33205">
        <ele>201.8</ele>
        <time>2021-12-31T12:26:08Z</time>
      </trkpt>
      <trkpt lat="46.55652" lon="5.33186">
        <ele>201.6</ele>
        <time>2021-12-31T12:26:10Z</time>
      </trkpt>
      <trkpt lat="46.55669" lon="5.33116">
        <ele>201.2</ele>
        <time>2021-12-31T12:26:17Z</time>
      </trkpt>
      <trkpt lat="46.55687" lon="5.33035">
        <ele>201</ele>
        <time>2021-12-31T12:26:25Z</time>
      </trkpt>
      <trkpt lat="46.55694" lon="5.32996">
        <ele>200.8</ele>
        <time>2021-12-31T12:26:29Z</time>
      </trkpt>
      <trkpt lat="46.55703" lon="5.32942">
        <ele>201.2</ele>
        <time>2021-12-31T12:26:35Z</time>
      </trkpt>
      <trkpt lat="46.55715" lon="5.32869">
        <ele>201.8</ele>
        <time>2021-12-31T12:26:44Z</time>
      </trkpt>
      <trkpt lat="46.55727" lon="5.32804">
        <ele>202.4</ele>
        <time>2021-12-31T12:26:52Z</time>
      </trkpt>
      <trkpt lat="46.55737" lon="5.32763">
        <ele>202.8</ele>
        <time>2021-12-31T12:26:57Z</time>
      </trkpt>
      <trkpt lat="46.55749" lon="5.32712">
        <ele>202.6</ele>
        <time>2021-12-31T12:27:03Z</time>
      </trkpt>
      <trkpt lat="46.55752" lon="5.32703">
        <ele>202.4</ele>
        <time>2021-12-31T12:27:04Z</time>
      </trkpt>
      <trkpt lat="46.55759" lon="5.32688">
        <ele>202.4</ele>
        <time>2021-12-31T12:27:06Z</time>
      </trkpt>
      <trkpt lat="46.55764" lon="5.32681">
        <ele>202.2</ele>
        <time>2021-12-31T12:27:07Z</time>
      </trkpt>
      <trkpt lat="46.5577" lon="5.32676">
        <ele>202.2</ele>
        <time>2021-12-31T12:27:08Z</time>
      </trkpt>
      <trkpt lat="46.55789" lon="5.32666">
        <ele>202.2</ele>
        <time>2021-12-31T12:27:11Z</time>
      </trkpt>
      <trkpt lat="46.55802" lon="5.32662">
        <ele>202.2</ele>
        <time>2021-12-31T12:27:13Z</time>
      </trkpt>
      <trkpt lat="46.55823" lon="5.32661">
        <ele>202</ele>
        <time>2021-12-31T12:27:16Z</time>
      </trkpt>
      <trkpt lat="46.55871" lon="5.32651">
        <ele>201.6</ele>
        <time>2021-12-31T12:27:23Z</time>
      </trkpt>
      <trkpt lat="46.5589" lon="5.32639">
        <ele>201.6</ele>
        <time>2021-12-31T12:27:26Z</time>
      </trkpt>
      <trkpt lat="46.55901" lon="5.32627">
        <ele>201.6</ele>
        <time>2021-12-31T12:27:28Z</time>
      </trkpt>
      <trkpt lat="46.55912" lon="5.32613">
        <ele>201.6</ele>
        <time>2021-12-31T12:27:30Z</time>
      </trkpt>
      <trkpt lat="46.5592" lon="5.32596">
        <ele>201.8</ele>
        <time>2021-12-31T12:27:32Z</time>
      </trkpt>
      <trkpt lat="46.55949" lon="5.32528">
        <ele>202.4</ele>
        <time>2021-12-31T12:27:40Z</time>
      </trkpt>
      <trkpt lat="46.55962" lon="5.32495">
        <ele>202.6</ele>
        <time>2021-12-31T12:27:44Z</time>
      </trkpt>
      <trkpt lat="46.55993" lon="5.32422">
        <ele>203</ele>
        <time>2021-12-31T12:27:53Z</time>
      </trkpt>
      <trkpt lat="46.55996" lon="5.32414">
        <ele>203</ele>
        <time>2021-12-31T12:27:54Z</time>
      </trkpt>
      <trkpt lat="46.56007" lon="5.32391">
        <ele>203.8</ele>
        <time>2021-12-31T12:27:57Z</time>
      </trkpt>
      <trkpt lat="46.56026" lon="5.32357">
        <ele>204.2</ele>
        <time>2021-12-31T12:28:02Z</time>
      </trkpt>
      <trkpt lat="46.56056" lon="5.32316">
        <ele>204.8</ele>
        <time>2021-12-31T12:28:09Z</time>
      </trkpt>
      <trkpt lat="46.56089" lon="5.32275">
        <ele>205.8</ele>
        <time>2021-12-31T12:28:17Z</time>
      </trkpt>
      <trkpt lat="46.56097" lon="5.32265">
        <ele>206.2</ele>
        <time>2021-12-31T12:28:19Z</time>
      </trkpt>
      <trkpt lat="46.5611" lon="5.3225">
        <ele>207</ele>
        <time>2021-12-31T12:28:22Z</time>
      </trkpt>
      <trkpt lat="46.56149" lon="5.32206">
        <ele>209.4</ele>
        <time>2021-12-31T12:28:31Z</time>
      </trkpt>
      <trkpt lat="46.56153" lon="5.32201">
        <ele>208.4</ele>
        <time>2021-12-31T12:28:32Z</time>
      </trkpt>
      <trkpt lat="46.56179" lon="5.32167">
        <ele>209.4</ele>
        <time>2021-12-31T12:28:38Z</time>
      </trkpt>
      <trkpt lat="46.56183" lon="5.32162">
        <ele>209.4</ele>
        <time>2021-12-31T12:28:39Z</time>
      </trkpt>
      <trkpt lat="46.56186" lon="5.32156">
        <ele>209.4</ele>
        <time>2021-12-31T12:28:40Z</time>
      </trkpt>
      <trkpt lat="46.56208" lon="5.32128">
        <ele>210.2</ele>
        <time>2021-12-31T12:28:45Z</time>
      </trkpt>
      <trkpt lat="46.56217" lon="5.32117">
        <ele>210.4</ele>
        <time>2021-12-31T12:28:47Z</time>
      </trkpt>
      <trkpt lat="46.56244" lon="5.32083">
        <ele>211</ele>
        <time>2021-12-31T12:28:53Z</time>
      </trkpt>
      <trkpt lat="46.56287" lon="5.32043">
        <ele>211.2</ele>
        <time>2021-12-31T12:29:01Z</time>
      </trkpt>
      <trkpt lat="46.5634" lon="5.32005">
        <ele>210.8</ele>
        <time>2021-12-31T12:29:10Z</time>
      </trkpt>
      <trkpt lat="46.56393" lon="5.31969">
        <ele>210.6</ele>
        <time>2021-12-31T12:29:19Z</time>
      </trkpt>
      <trkpt lat="46.56429" lon="5.31961">
        <ele>210.4</ele>
        <time>2021-12-31T12:29:25Z</time>
      </trkpt>
      <trkpt lat="46.56486" lon="5.31961">
        <ele>211</ele>
        <time>2021-12-31T12:29:34Z</time>
      </trkpt>
      <trkpt lat="46.56524" lon="5.31957">
        <ele>211</ele>
        <time>2021-12-31T12:29:40Z</time>
      </trkpt>
      <trkpt lat="46.56575" lon="5.31944">
        <ele>210.6</ele>
        <time>2021-12-31T12:29:48Z</time>
      </trkpt>
      <trkpt lat="46.56606" lon="5.31923">
        <ele>210.6</ele>
        <time>2021-12-31T12:29:53Z</time>
      </trkpt>
      <trkpt lat="46.56646" lon="5.31883">
        <ele>210.2</ele>
        <time>2021-12-31T12:30:00Z</time>
      </trkpt>
      <trkpt lat="46.5665" lon="5.31879">
        <ele>210.2</ele>
        <time>2021-12-31T12:30:01Z</time>
      </trkpt>
      <trkpt lat="46.56694" lon="5.31837">
        <ele>210.4</ele>
        <time>2021-12-31T12:30:09Z</time>
      </trkpt>
      <trkpt lat="46.56735" lon="5.31796">
        <ele>210.6</ele>
        <time>2021-12-31T12:30:17Z</time>
      </trkpt>
      <trkpt lat="46.56777" lon="5.31757">
        <ele>211.4</ele>
        <time>2021-12-31T12:30:25Z</time>
      </trkpt>
      <trkpt lat="46.56788" lon="5.31746">
        <ele>211.4</ele>
        <time>2021-12-31T12:30:27Z</time>
      </trkpt>
      <trkpt lat="46.56834" lon="5.31702">
        <ele>211.4</ele>
        <time>2021-12-31T12:30:35Z</time>
      </trkpt>
      <trkpt lat="46.56846" lon="5.31692">
        <ele>211.2</ele>
        <time>2021-12-31T12:30:37Z</time>
      </trkpt>
      <trkpt lat="46.5686" lon="5.31686">
        <ele>211.2</ele>
        <time>2021-12-31T12:30:39Z</time>
      </trkpt>
      <trkpt lat="46.56874" lon="5.31684">
        <ele>211</ele>
        <time>2021-12-31T12:30:41Z</time>
      </trkpt>
      <trkpt lat="46.56933" lon="5.31685">
        <ele>210.4</ele>
        <time>2021-12-31T12:30:49Z</time>
      </trkpt>
      <trkpt lat="46.5694" lon="5.31685">
        <ele>210.4</ele>
        <time>2021-12-31T12:30:50Z</time>
      </trkpt>
      <trkpt lat="46.56992" lon="5.31678">
        <ele>209.8</ele>
        <time>2021-12-31T12:30:57Z</time>
      </trkpt>
      <trkpt lat="46.57043" lon="5.3167">
        <ele>210</ele>
        <time>2021-12-31T12:31:04Z</time>
      </trkpt>
      <trkpt lat="46.57098" lon="5.31663">
        <ele>210</ele>
        <time>2021-12-31T12:31:12Z</time>
      </trkpt>
      <trkpt lat="46.57112" lon="5.31663">
        <ele>209.8</ele>
        <time>2021-12-31T12:31:14Z</time>
      </trkpt>
      <trkpt lat="46.57171" lon="5.3166">
        <ele>210</ele>
        <time>2021-12-31T12:31:23Z</time>
      </trkpt>
      <trkpt lat="46.57177" lon="5.3166">
        <ele>210</ele>
        <time>2021-12-31T12:31:24Z</time>
      </trkpt>
      <trkpt lat="46.57235" lon="5.31655">
        <ele>210.2</ele>
        <time>2021-12-31T12:31:33Z</time>
      </trkpt>
      <trkpt lat="46.57242" lon="5.31654">
        <ele>210.2</ele>
        <time>2021-12-31T12:31:34Z</time>
      </trkpt>
      <trkpt lat="46.573" lon="5.31647">
        <ele>210</ele>
        <time>2021-12-31T12:31:43Z</time>
      </trkpt>
      <trkpt lat="46.57355" lon="5.31631">
        <ele>209.6</ele>
        <time>2021-12-31T12:31:52Z</time>
      </trkpt>
      <trkpt lat="46.57361" lon="5.31623">
        <ele>209.6</ele>
        <time>2021-12-31T12:31:54Z</time>
      </trkpt>
      <trkpt lat="46.57361" lon="5.31618">
        <ele>209.6</ele>
        <time>2021-12-31T12:31:55Z</time>
      </trkpt>
      <trkpt lat="46.5736" lon="5.31613">
        <ele>209.6</ele>
        <time>2021-12-31T12:31:56Z</time>
      </trkpt>
      <trkpt lat="46.57354" lon="5.31605">
        <ele>209.6</ele>
        <time>2021-12-31T12:31:58Z</time>
      </trkpt>
      <trkpt lat="46.57345" lon="5.31597">
        <ele>209.2</ele>
        <time>2021-12-31T12:32:00Z</time>
      </trkpt>
      <trkpt lat="46.57336" lon="5.31589">
        <ele>209.2</ele>
        <time>2021-12-31T12:32:02Z</time>
      </trkpt>
      <trkpt lat="46.5733" lon="5.31583">
        <ele>209.2</ele>
        <time>2021-12-31T12:32:03Z</time>
      </trkpt>
      <trkpt lat="46.57305" lon="5.31544">
        <ele>209.4</ele>
        <time>2021-12-31T12:32:09Z</time>
      </trkpt>
      <trkpt lat="46.57269" lon="5.31491">
        <ele>209.8</ele>
        <time>2021-12-31T12:32:17Z</time>
      </trkpt>
      <trkpt lat="46.57246" lon="5.31446">
        <ele>209.8</ele>
        <time>2021-12-31T12:32:23Z</time>
      </trkpt>
      <trkpt lat="46.57231" lon="5.31391">
        <ele>209.6</ele>
        <time>2021-12-31T12:32:29Z</time>
      </trkpt>
      <trkpt lat="46.57221" lon="5.31364">
        <ele>209.4</ele>
        <time>2021-12-31T12:32:32Z</time>
      </trkpt>
      <trkpt lat="46.57212" lon="5.31348">
        <ele>209.4</ele>
        <time>2021-12-31T12:32:34Z</time>
      </trkpt>
      <trkpt lat="46.57179" lon="5.31307">
        <ele>208.8</ele>
        <time>2021-12-31T12:32:40Z</time>
      </trkpt>
      <trkpt lat="46.57165" lon="5.31299">
        <ele>208.4</ele>
        <time>2021-12-31T12:32:42Z</time>
      </trkpt>
      <trkpt lat="46.5715" lon="5.31295">
        <ele>208</ele>
        <time>2021-12-31T12:32:44Z</time>
      </trkpt>
      <trkpt lat="46.57118" lon="5.31294">
        <ele>207</ele>
        <time>2021-12-31T12:32:48Z</time>
      </trkpt>
      <trkpt lat="46.57093" lon="5.31291">
        <ele>206.4</ele>
        <time>2021-12-31T12:32:51Z</time>
      </trkpt>
      <trkpt lat="46.57076" lon="5.31284">
        <ele>205.8</ele>
        <time>2021-12-31T12:32:53Z</time>
      </trkpt>
      <trkpt lat="46.57062" lon="5.31274">
        <ele>204.8</ele>
        <time>2021-12-31T12:32:55Z</time>
      </trkpt>
      <trkpt lat="46.57016" lon="5.31234">
        <ele>203.6</ele>
        <time>2021-12-31T12:33:02Z</time>
      </trkpt>
      <trkpt lat="46.56966" lon="5.31189">
        <ele>202.8</ele>
        <time>2021-12-31T12:33:10Z</time>
      </trkpt>
      <trkpt lat="46.56936" lon="5.31163">
        <ele>202.6</ele>
        <time>2021-12-31T12:33:15Z</time>
      </trkpt>
      <trkpt lat="46.5693" lon="5.3116">
        <ele>202.6</ele>
        <time>2021-12-31T12:33:16Z</time>
      </trkpt>
      <trkpt lat="46.56901" lon="5.31154">
        <ele>202.4</ele>
        <time>2021-12-31T12:33:20Z</time>
      </trkpt>
      <trkpt lat="46.56864" lon="5.31146">
        <ele>202</ele>
        <time>2021-12-31T12:33:25Z</time>
      </trkpt>
      <trkpt lat="46.56857" lon="5.31142">
        <ele>202</ele>
        <time>2021-12-31T12:33:26Z</time>
      </trkpt>
      <trkpt lat="46.5685" lon="5.31137">
        <ele>201.8</ele>
        <time>2021-12-31T12:33:27Z</time>
      </trkpt>
      <trkpt lat="46.56844" lon="5.3113">
        <ele>201.6</ele>
        <time>2021-12-31T12:33:28Z</time>
      </trkpt>
      <trkpt lat="46.56833" lon="5.31116">
        <ele>201.2</ele>
        <time>2021-12-31T12:33:30Z</time>
      </trkpt>
      <trkpt lat="46.56828" lon="5.31108">
        <ele>201</ele>
        <time>2021-12-31T12:33:31Z</time>
      </trkpt>
      <trkpt lat="46.56816" lon="5.3108">
        <ele>200.8</ele>
        <time>2021-12-31T12:33:34Z</time>
      </trkpt>
      <trkpt lat="46.56813" lon="5.31071">
        <ele>200.8</ele>
        <time>2021-12-31T12:33:35Z</time>
      </trkpt>
      <trkpt lat="46.5681" lon="5.31052">
        <ele>200.6</ele>
        <time>2021-12-31T12:33:37Z</time>
      </trkpt>
      <trkpt lat="46.56808" lon="5.3104">
        <ele>200.6</ele>
        <time>2021-12-31T12:33:38Z</time>
      </trkpt>
      <trkpt lat="46.56807" lon="5.3103">
        <ele>200.4</ele>
        <time>2021-12-31T12:33:39Z</time>
      </trkpt>
      <trkpt lat="46.56809" lon="5.30989">
        <ele>200.2</ele>
        <time>2021-12-31T12:33:43Z</time>
      </trkpt>
      <trkpt lat="46.5681" lon="5.30916">
        <ele>199.8</ele>
        <time>2021-12-31T12:33:50Z</time>
      </trkpt>
      <trkpt lat="46.56798" lon="5.30838">
        <ele>199.6</ele>
        <time>2021-12-31T12:33:58Z</time>
      </trkpt>
      <trkpt lat="46.56789" lon="5.30804">
        <ele>200</ele>
        <time>2021-12-31T12:34:02Z</time>
      </trkpt>
      <trkpt lat="46.56784" lon="5.30789">
        <ele>200.2</ele>
        <time>2021-12-31T12:34:04Z</time>
      </trkpt>
      <trkpt lat="46.56754" lon="5.30729">
        <ele>201</ele>
        <time>2021-12-31T12:34:13Z</time>
      </trkpt>
      <trkpt lat="46.56745" lon="5.30709">
        <ele>201.6</ele>
        <time>2021-12-31T12:34:16Z</time>
      </trkpt>
      <trkpt lat="46.56722" lon="5.30671">
        <ele>202.6</ele>
        <time>2021-12-31T12:34:22Z</time>
      </trkpt>
      <trkpt lat="46.56718" lon="5.30665">
        <ele>202.6</ele>
        <time>2021-12-31T12:34:23Z</time>
      </trkpt>
      <trkpt lat="46.56691" lon="5.30636">
        <ele>203.2</ele>
        <time>2021-12-31T12:34:29Z</time>
      </trkpt>
      <trkpt lat="46.56686" lon="5.30631">
        <ele>203.2</ele>
        <time>2021-12-31T12:34:30Z</time>
      </trkpt>
      <trkpt lat="46.5667" lon="5.30619">
        <ele>203.8</ele>
        <time>2021-12-31T12:34:33Z</time>
      </trkpt>
      <trkpt lat="46.56665" lon="5.30616">
        <ele>203.8</ele>
        <time>2021-12-31T12:34:34Z</time>
      </trkpt>
      <trkpt lat="46.56626" lon="5.306">
        <ele>204.8</ele>
        <time>2021-12-31T12:34:41Z</time>
      </trkpt>
      <trkpt lat="46.56579" lon="5.30596">
        <ele>205.2</ele>
        <time>2021-12-31T12:34:49Z</time>
      </trkpt>
      <trkpt lat="46.56532" lon="5.30601">
        <ele>205</ele>
        <time>2021-12-31T12:34:57Z</time>
      </trkpt>
      <trkpt lat="46.56477" lon="5.30611">
        <ele>205.2</ele>
        <time>2021-12-31T12:35:06Z</time>
      </trkpt>
      <trkpt lat="46.56471" lon="5.30612">
        <ele>205.2</ele>
        <time>2021-12-31T12:35:07Z</time>
      </trkpt>
      <trkpt lat="46.5646" lon="5.30615">
        <ele>205.2</ele>
        <time>2021-12-31T12:35:09Z</time>
      </trkpt>
      <trkpt lat="46.5644" lon="5.30622">
        <ele>205.4</ele>
        <time>2021-12-31T12:35:13Z</time>
      </trkpt>
      <trkpt lat="46.56432" lon="5.30618">
        <ele>205.6</ele>
        <time>2021-12-31T12:35:15Z</time>
      </trkpt>
      <trkpt lat="46.56431" lon="5.30615">
        <ele>205.6</ele>
        <time>2021-12-31T12:35:16Z</time>
      </trkpt>
      <trkpt lat="46.5643" lon="5.30613">
        <ele>205.8</ele>
        <time>2021-12-31T12:35:17Z</time>
      </trkpt>
      <trkpt lat="46.56431" lon="5.3061">
        <ele>205.8</ele>
        <time>2021-12-31T12:35:19Z</time>
      </trkpt>
      <trkpt lat="46.56431" lon="5.30609">
        <ele>205.8</ele>
        <time>2021-12-31T12:35:20Z</time>
      </trkpt>
      <trkpt lat="46.56433" lon="5.30606">
        <ele>206</ele>
        <time>2021-12-31T12:35:22Z</time>
      </trkpt>
      <trkpt lat="46.56431" lon="5.30602">
        <ele>206</ele>
        <time>2021-12-31T12:35:24Z</time>
      </trkpt>
      <trkpt lat="46.56422" lon="5.3061">
        <ele>206</ele>
        <time>2021-12-31T12:35:27Z</time>
      </trkpt>
      <trkpt lat="46.56418" lon="5.30613">
        <ele>206</ele>
        <time>2021-12-31T12:35:28Z</time>
      </trkpt>
      <trkpt lat="46.5641" lon="5.30611">
        <ele>206</ele>
        <time>2021-12-31T12:35:30Z</time>
      </trkpt>
      <trkpt lat="46.56394" lon="5.30591">
        <ele>206</ele>
        <time>2021-12-31T12:35:34Z</time>
      </trkpt>
      <trkpt lat="46.56371" lon="5.30558">
        <ele>206.2</ele>
        <time>2021-12-31T12:35:40Z</time>
      </trkpt>
      <trkpt lat="46.56362" lon="5.30546">
        <ele>206.6</ele>
        <time>2021-12-31T12:35:42Z</time>
      </trkpt>
      <trkpt lat="46.5635" lon="5.30529">
        <ele>207</ele>
        <time>2021-12-31T12:35:45Z</time>
      </trkpt>
      <trkpt lat="46.56325" lon="5.30494">
        <ele>207.8</ele>
        <time>2021-12-31T12:35:51Z</time>
      </trkpt>
      <trkpt lat="46.56312" lon="5.30476">
        <ele>208</ele>
        <time>2021-12-31T12:35:54Z</time>
      </trkpt>
      <trkpt lat="46.56284" lon="5.30438">
        <ele>208</ele>
        <time>2021-12-31T12:36:00Z</time>
      </trkpt>
      <trkpt lat="46.56242" lon="5.3038">
        <ele>208</ele>
        <time>2021-12-31T12:36:09Z</time>
      </trkpt>
      <trkpt lat="46.56213" lon="5.30328">
        <ele>208</ele>
        <time>2021-12-31T12:36:16Z</time>
      </trkpt>
      <trkpt lat="46.56186" lon="5.30287">
        <ele>208</ele>
        <time>2021-12-31T12:36:22Z</time>
      </trkpt>
      <trkpt lat="46.56144" lon="5.3023">
        <ele>208</ele>
        <time>2021-12-31T12:36:31Z</time>
      </trkpt>
      <trkpt lat="46.56135" lon="5.30218">
        <ele>208.2</ele>
        <time>2021-12-31T12:36:33Z</time>
      </trkpt>
      <trkpt lat="46.56092" lon="5.30161">
        <ele>207.8</ele>
        <time>2021-12-31T12:36:42Z</time>
      </trkpt>
      <trkpt lat="46.56087" lon="5.30154">
        <ele>207.8</ele>
        <time>2021-12-31T12:36:43Z</time>
      </trkpt>
      <trkpt lat="46.56043" lon="5.30094">
        <ele>207.4</ele>
        <time>2021-12-31T12:36:52Z</time>
      </trkpt>
      <trkpt lat="46.56038" lon="5.30087">
        <ele>207.2</ele>
        <time>2021-12-31T12:36:53Z</time>
      </trkpt>
      <trkpt lat="46.56027" lon="5.30073">
        <ele>206.8</ele>
        <time>2021-12-31T12:36:55Z</time>
      </trkpt>
      <trkpt lat="46.56009" lon="5.30049">
        <ele>206.4</ele>
        <time>2021-12-31T12:36:58Z</time>
      </trkpt>
      <trkpt lat="46.5599" lon="5.30024">
        <ele>205.8</ele>
        <time>2021-12-31T12:37:01Z</time>
      </trkpt>
      <trkpt lat="46.55965" lon="5.2999">
        <ele>204.4</ele>
        <time>2021-12-31T12:37:05Z</time>
      </trkpt>
      <trkpt lat="46.5594" lon="5.29957">
        <ele>203</ele>
        <time>2021-12-31T12:37:09Z</time>
      </trkpt>
      <trkpt lat="46.55913" lon="5.29921">
        <ele>202.6</ele>
        <time>2021-12-31T12:37:14Z</time>
      </trkpt>
      <trkpt lat="46.55888" lon="5.29885">
        <ele>203</ele>
        <time>2021-12-31T12:37:20Z</time>
      </trkpt>
      <trkpt lat="46.55862" lon="5.29848">
        <ele>204</ele>
        <time>2021-12-31T12:37:27Z</time>
      </trkpt>
      <trkpt lat="46.55858" lon="5.29843">
        <ele>204</ele>
        <time>2021-12-31T12:37:28Z</time>
      </trkpt>
      <trkpt lat="46.55839" lon="5.29818">
        <ele>205.2</ele>
        <time>2021-12-31T12:37:33Z</time>
      </trkpt>
      <trkpt lat="46.5583" lon="5.29807">
        <ele>205.6</ele>
        <time>2021-12-31T12:37:35Z</time>
      </trkpt>
      <trkpt lat="46.55807" lon="5.29777">
        <ele>206.2</ele>
        <time>2021-12-31T12:37:40Z</time>
      </trkpt>
      <trkpt lat="46.55798" lon="5.29765">
        <ele>206.2</ele>
        <time>2021-12-31T12:37:42Z</time>
      </trkpt>
      <trkpt lat="46.55785" lon="5.29747">
        <ele>206.4</ele>
        <time>2021-12-31T12:37:45Z</time>
      </trkpt>
      <trkpt lat="46.55779" lon="5.29735">
        <ele>206.4</ele>
        <time>2021-12-31T12:37:47Z</time>
      </trkpt>
      <trkpt lat="46.55776" lon="5.2972">
        <ele>206.2</ele>
        <time>2021-12-31T12:37:50Z</time>
      </trkpt>
      <trkpt lat="46.55768" lon="5.29714">
        <ele>206.2</ele>
        <time>2021-12-31T12:37:52Z</time>
      </trkpt>
      <trkpt lat="46.55762" lon="5.29712">
        <ele>206</ele>
        <time>2021-12-31T12:37:53Z</time>
      </trkpt>
      <trkpt lat="46.55729" lon="5.29696">
        <ele>205.4</ele>
        <time>2021-12-31T12:37:58Z</time>
      </trkpt>
      <trkpt lat="46.55721" lon="5.29694">
        <ele>205.2</ele>
        <time>2021-12-31T12:37:59Z</time>
      </trkpt>
      <trkpt lat="46.55688" lon="5.2969">
        <ele>204.4</ele>
        <time>2021-12-31T12:38:03Z</time>
      </trkpt>
      <trkpt lat="46.55679" lon="5.2969">
        <ele>204</ele>
        <time>2021-12-31T12:38:04Z</time>
      </trkpt>
      <trkpt lat="46.55653" lon="5.29685">
        <ele>202.6</ele>
        <time>2021-12-31T12:38:07Z</time>
      </trkpt>
      <trkpt lat="46.55644" lon="5.29682">
        <ele>202.4</ele>
        <time>2021-12-31T12:38:08Z</time>
      </trkpt>
      <trkpt lat="46.55636" lon="5.29678">
        <ele>201.6</ele>
        <time>2021-12-31T12:38:09Z</time>
      </trkpt>
      <trkpt lat="46.55589" lon="5.29655">
        <ele>200.6</ele>
        <time>2021-12-31T12:38:15Z</time>
      </trkpt>
      <trkpt lat="46.55546" lon="5.29628">
        <ele>199.6</ele>
        <time>2021-12-31T12:38:21Z</time>
      </trkpt>
      <trkpt lat="46.55494" lon="5.29589">
        <ele>199</ele>
        <time>2021-12-31T12:38:29Z</time>
      </trkpt>
      <trkpt lat="46.55488" lon="5.29584">
        <ele>199</ele>
        <time>2021-12-31T12:38:30Z</time>
      </trkpt>
      <trkpt lat="46.55439" lon="5.29549">
        <ele>198.6</ele>
        <time>2021-12-31T12:38:38Z</time>
      </trkpt>
      <trkpt lat="46.55427" lon="5.2954">
        <ele>198.6</ele>
        <time>2021-12-31T12:38:40Z</time>
      </trkpt>
      <trkpt lat="46.55421" lon="5.29536">
        <ele>198.6</ele>
        <time>2021-12-31T12:38:41Z</time>
      </trkpt>
      <trkpt lat="46.55384" lon="5.29517">
        <ele>198.4</ele>
        <time>2021-12-31T12:38:47Z</time>
      </trkpt>
      <trkpt lat="46.55333" lon="5.29506">
        <ele>198.6</ele>
        <time>2021-12-31T12:38:55Z</time>
      </trkpt>
      <trkpt lat="46.55299" lon="5.29497">
        <ele>198.8</ele>
        <time>2021-12-31T12:39:01Z</time>
      </trkpt>
      <trkpt lat="46.55289" lon="5.29492">
        <ele>199</ele>
        <time>2021-12-31T12:39:03Z</time>
      </trkpt>
      <trkpt lat="46.55281" lon="5.29482">
        <ele>199</ele>
        <time>2021-12-31T12:39:05Z</time>
      </trkpt>
      <trkpt lat="46.55267" lon="5.2945">
        <ele>200</ele>
        <time>2021-12-31T12:39:10Z</time>
      </trkpt>
      <trkpt lat="46.55261" lon="5.29425">
        <ele>201</ele>
        <time>2021-12-31T12:39:14Z</time>
      </trkpt>
      <trkpt lat="46.5526" lon="5.29419">
        <ele>201.4</ele>
        <time>2021-12-31T12:39:15Z</time>
      </trkpt>
      <trkpt lat="46.55257" lon="5.29407">
        <ele>202.2</ele>
        <time>2021-12-31T12:39:17Z</time>
      </trkpt>
      <trkpt lat="46.55252" lon="5.29381">
        <ele>203.2</ele>
        <time>2021-12-31T12:39:21Z</time>
      </trkpt>
      <trkpt lat="46.55251" lon="5.29373">
        <ele>203.6</ele>
        <time>2021-12-31T12:39:22Z</time>
      </trkpt>
      <trkpt lat="46.55252" lon="5.29358">
        <ele>204</ele>
        <time>2021-12-31T12:39:24Z</time>
      </trkpt>
      <trkpt lat="46.55255" lon="5.29342">
        <ele>204.2</ele>
        <time>2021-12-31T12:39:26Z</time>
      </trkpt>
      <trkpt lat="46.55267" lon="5.29297">
        <ele>204</ele>
        <time>2021-12-31T12:39:31Z</time>
      </trkpt>
      <trkpt lat="46.55283" lon="5.2924">
        <ele>202.2</ele>
        <time>2021-12-31T12:39:36Z</time>
      </trkpt>
      <trkpt lat="46.55286" lon="5.29228">
        <ele>201.8</ele>
        <time>2021-12-31T12:39:37Z</time>
      </trkpt>
      <trkpt lat="46.55289" lon="5.29216">
        <ele>201.2</ele>
        <time>2021-12-31T12:39:38Z</time>
      </trkpt>
      <trkpt lat="46.5529" lon="5.29204">
        <ele>201</ele>
        <time>2021-12-31T12:39:39Z</time>
      </trkpt>
      <trkpt lat="46.55289" lon="5.29192">
        <ele>200.6</ele>
        <time>2021-12-31T12:39:40Z</time>
      </trkpt>
      <trkpt lat="46.55282" lon="5.2917">
        <ele>199.8</ele>
        <time>2021-12-31T12:39:42Z</time>
      </trkpt>
      <trkpt lat="46.55277" lon="5.29161">
        <ele>199.6</ele>
        <time>2021-12-31T12:39:43Z</time>
      </trkpt>
      <trkpt lat="46.55272" lon="5.29153">
        <ele>199.2</ele>
        <time>2021-12-31T12:39:44Z</time>
      </trkpt>
      <trkpt lat="46.55266" lon="5.29146">
        <ele>198.8</ele>
        <time>2021-12-31T12:39:45Z</time>
      </trkpt>
      <trkpt lat="46.55247" lon="5.29121">
        <ele>198.2</ele>
        <time>2021-12-31T12:39:48Z</time>
      </trkpt>
      <trkpt lat="46.55229" lon="5.29092">
        <ele>197.6</ele>
        <time>2021-12-31T12:39:51Z</time>
      </trkpt>
      <trkpt lat="46.55217" lon="5.29069">
        <ele>196.6</ele>
        <time>2021-12-31T12:39:53Z</time>
      </trkpt>
      <trkpt lat="46.55211" lon="5.29058">
        <ele>195.8</ele>
        <time>2021-12-31T12:39:54Z</time>
      </trkpt>
      <trkpt lat="46.55199" lon="5.29038">
        <ele>194.8</ele>
        <time>2021-12-31T12:39:56Z</time>
      </trkpt>
      <trkpt lat="46.55185" lon="5.29013">
        <ele>193.2</ele>
        <time>2021-12-31T12:39:58Z</time>
      </trkpt>
      <trkpt lat="46.55173" lon="5.2899">
        <ele>192.2</ele>
        <time>2021-12-31T12:40:00Z</time>
      </trkpt>
      <trkpt lat="46.55168" lon="5.2898">
        <ele>190.8</ele>
        <time>2021-12-31T12:40:01Z</time>
      </trkpt>
      <trkpt lat="46.55155" lon="5.28953">
        <ele>189.8</ele>
        <time>2021-12-31T12:40:03Z</time>
      </trkpt>
      <trkpt lat="46.55151" lon="5.2894">
        <ele>189.2</ele>
        <time>2021-12-31T12:40:04Z</time>
      </trkpt>
      <trkpt lat="46.55148" lon="5.28926">
        <ele>188</ele>
        <time>2021-12-31T12:40:05Z</time>
      </trkpt>
      <trkpt lat="46.55148" lon="5.28899">
        <ele>187.2</ele>
        <time>2021-12-31T12:40:07Z</time>
      </trkpt>
      <trkpt lat="46.55149" lon="5.28886">
        <ele>186.6</ele>
        <time>2021-12-31T12:40:08Z</time>
      </trkpt>
      <trkpt lat="46.55153" lon="5.28837">
        <ele>185.6</ele>
        <time>2021-12-31T12:40:12Z</time>
      </trkpt>
      <trkpt lat="46.55154" lon="5.28825">
        <ele>185.4</ele>
        <time>2021-12-31T12:40:13Z</time>
      </trkpt>
      <trkpt lat="46.55156" lon="5.28805">
        <ele>185.2</ele>
        <time>2021-12-31T12:40:15Z</time>
      </trkpt>
      <trkpt lat="46.55153" lon="5.28781">
        <ele>185</ele>
        <time>2021-12-31T12:40:17Z</time>
      </trkpt>
      <trkpt lat="46.55145" lon="5.28763">
        <ele>184.8</ele>
        <time>2021-12-31T12:40:19Z</time>
      </trkpt>
      <trkpt lat="46.55141" lon="5.28757">
        <ele>184.8</ele>
        <time>2021-12-31T12:40:20Z</time>
      </trkpt>
      <trkpt lat="46.55107" lon="5.28705">
        <ele>184.8</ele>
        <time>2021-12-31T12:40:27Z</time>
      </trkpt>
      <trkpt lat="46.55095" lon="5.28683">
        <ele>184.6</ele>
        <time>2021-12-31T12:40:30Z</time>
      </trkpt>
      <trkpt lat="46.55066" lon="5.28629">
        <ele>184.6</ele>
        <time>2021-12-31T12:40:37Z</time>
      </trkpt>
      <trkpt lat="46.5504" lon="5.28583">
        <ele>185.2</ele>
        <time>2021-12-31T12:40:44Z</time>
      </trkpt>
      <trkpt lat="46.5503" lon="5.28566">
        <ele>185.6</ele>
        <time>2021-12-31T12:40:47Z</time>
      </trkpt>
      <trkpt lat="46.55017" lon="5.28542">
        <ele>185.8</ele>
        <time>2021-12-31T12:40:51Z</time>
      </trkpt>
      <trkpt lat="46.54998" lon="5.28508">
        <ele>186.6</ele>
        <time>2021-12-31T12:40:57Z</time>
      </trkpt>
      <trkpt lat="46.54989" lon="5.2849">
        <ele>186.8</ele>
        <time>2021-12-31T12:41:00Z</time>
      </trkpt>
      <trkpt lat="46.54971" lon="5.28465">
        <ele>187.2</ele>
        <time>2021-12-31T12:41:05Z</time>
      </trkpt>
      <trkpt lat="46.54968" lon="5.28462">
        <ele>187.4</ele>
        <time>2021-12-31T12:41:06Z</time>
      </trkpt>
      <trkpt lat="46.54963" lon="5.28458">
        <ele>187.4</ele>
        <time>2021-12-31T12:41:07Z</time>
      </trkpt>
      <trkpt lat="46.54955" lon="5.28454">
        <ele>187.8</ele>
        <time>2021-12-31T12:41:09Z</time>
      </trkpt>
      <trkpt lat="46.54945" lon="5.2845">
        <ele>188.2</ele>
        <time>2021-12-31T12:41:11Z</time>
      </trkpt>
      <trkpt lat="46.54933" lon="5.28445">
        <ele>188.8</ele>
        <time>2021-12-31T12:41:14Z</time>
      </trkpt>
      <trkpt lat="46.5491" lon="5.28432">
        <ele>189.8</ele>
        <time>2021-12-31T12:41:19Z</time>
      </trkpt>
      <trkpt lat="46.5488" lon="5.28407">
        <ele>190.8</ele>
        <time>2021-12-31T12:41:26Z</time>
      </trkpt>
      <trkpt lat="46.54845" lon="5.28386">
        <ele>191.6</ele>
        <time>2021-12-31T12:41:34Z</time>
      </trkpt>
      <trkpt lat="46.54836" lon="5.28382">
        <ele>192</ele>
        <time>2021-12-31T12:41:36Z</time>
      </trkpt>
      <trkpt lat="46.54824" lon="5.28376">
        <ele>192.8</ele>
        <time>2021-12-31T12:41:39Z</time>
      </trkpt>
      <trkpt lat="46.54816" lon="5.2837">
        <ele>193</ele>
        <time>2021-12-31T12:41:41Z</time>
      </trkpt>
      <trkpt lat="46.548" lon="5.28358">
        <ele>193.8</ele>
        <time>2021-12-31T12:41:45Z</time>
      </trkpt>
      <trkpt lat="46.54797" lon="5.28352">
        <ele>194</ele>
        <time>2021-12-31T12:41:46Z</time>
      </trkpt>
      <trkpt lat="46.54776" lon="5.28312">
        <ele>194.4</ele>
        <time>2021-12-31T12:41:52Z</time>
      </trkpt>
      <trkpt lat="46.54766" lon="5.28291">
        <ele>194.4</ele>
        <time>2021-12-31T12:41:55Z</time>
      </trkpt>
      <trkpt lat="46.54755" lon="5.28266">
        <ele>194.4</ele>
        <time>2021-12-31T12:41:58Z</time>
      </trkpt>
      <trkpt lat="46.54732" lon="5.28217">
        <ele>194</ele>
        <time>2021-12-31T12:42:05Z</time>
      </trkpt>
      <trkpt lat="46.54728" lon="5.2821">
        <ele>194</ele>
        <time>2021-12-31T12:42:06Z</time>
      </trkpt>
      <trkpt lat="46.5471" lon="5.28186">
        <ele>195</ele>
        <time>2021-12-31T12:42:11Z</time>
      </trkpt>
      <trkpt lat="46.54706" lon="5.28182">
        <ele>195.2</ele>
        <time>2021-12-31T12:42:12Z</time>
      </trkpt>
      <trkpt lat="46.54685" lon="5.28165">
        <ele>196.4</ele>
        <time>2021-12-31T12:42:17Z</time>
      </trkpt>
      <trkpt lat="46.54668" lon="5.28153">
        <ele>197.2</ele>
        <time>2021-12-31T12:42:21Z</time>
      </trkpt>
      <trkpt lat="46.54659" lon="5.28148">
        <ele>197.4</ele>
        <time>2021-12-31T12:42:23Z</time>
      </trkpt>
      <trkpt lat="46.5465" lon="5.28143">
        <ele>197.6</ele>
        <time>2021-12-31T12:42:25Z</time>
      </trkpt>
      <trkpt lat="46.54634" lon="5.28126">
        <ele>198.2</ele>
        <time>2021-12-31T12:42:29Z</time>
      </trkpt>
      <trkpt lat="46.5463" lon="5.28122">
        <ele>198.6</ele>
        <time>2021-12-31T12:42:30Z</time>
      </trkpt>
      <trkpt lat="46.54626" lon="5.28118">
        <ele>198.6</ele>
        <time>2021-12-31T12:42:31Z</time>
      </trkpt>
      <trkpt lat="46.54622" lon="5.28113">
        <ele>199</ele>
        <time>2021-12-31T12:42:32Z</time>
      </trkpt>
      <trkpt lat="46.54611" lon="5.28097">
        <ele>199.6</ele>
        <time>2021-12-31T12:42:35Z</time>
      </trkpt>
      <trkpt lat="46.54593" lon="5.28069">
        <ele>200.6</ele>
        <time>2021-12-31T12:42:40Z</time>
      </trkpt>
      <trkpt lat="46.54576" lon="5.28049">
        <ele>201</ele>
        <time>2021-12-31T12:42:44Z</time>
      </trkpt>
      <trkpt lat="46.54571" lon="5.28038">
        <ele>201.2</ele>
        <time>2021-12-31T12:42:46Z</time>
      </trkpt>
      <trkpt lat="46.54558" lon="5.28014">
        <ele>201.8</ele>
        <time>2021-12-31T12:42:50Z</time>
      </trkpt>
      <trkpt lat="46.54549" lon="5.27997">
        <ele>202</ele>
        <time>2021-12-31T12:42:53Z</time>
      </trkpt>
      <trkpt lat="46.54533" lon="5.27962">
        <ele>202.8</ele>
        <time>2021-12-31T12:42:59Z</time>
      </trkpt>
      <trkpt lat="46.54528" lon="5.27951">
        <ele>203.2</ele>
        <time>2021-12-31T12:43:01Z</time>
      </trkpt>
      <trkpt lat="46.54502" lon="5.27912">
        <ele>204</ele>
        <time>2021-12-31T12:43:09Z</time>
      </trkpt>
      <trkpt lat="46.54498" lon="5.27905">
        <ele>204</ele>
        <time>2021-12-31T12:43:10Z</time>
      </trkpt>
      <trkpt lat="46.5449" lon="5.27894">
        <ele>204.2</ele>
        <time>2021-12-31T12:43:12Z</time>
      </trkpt>
      <trkpt lat="46.54475" lon="5.27873">
        <ele>204.6</ele>
        <time>2021-12-31T12:43:16Z</time>
      </trkpt>
      <trkpt lat="46.54436" lon="5.27833">
        <ele>204.8</ele>
        <time>2021-12-31T12:43:24Z</time>
      </trkpt>
      <trkpt lat="46.54402" lon="5.27778">
        <ele>204.8</ele>
        <time>2021-12-31T12:43:33Z</time>
      </trkpt>
      <trkpt lat="46.54365" lon="5.2773">
        <ele>204.8</ele>
        <time>2021-12-31T12:43:41Z</time>
      </trkpt>
      <trkpt lat="46.54322" lon="5.27677">
        <ele>205</ele>
        <time>2021-12-31T12:43:50Z</time>
      </trkpt>
      <trkpt lat="46.54318" lon="5.27671">
        <ele>205</ele>
        <time>2021-12-31T12:43:51Z</time>
      </trkpt>
      <trkpt lat="46.54275" lon="5.27617">
        <ele>205</ele>
        <time>2021-12-31T12:44:00Z</time>
      </trkpt>
      <trkpt lat="46.54231" lon="5.27562">
        <ele>204.6</ele>
        <time>2021-12-31T12:44:09Z</time>
      </trkpt>
      <trkpt lat="46.54211" lon="5.27535">
        <ele>203.8</ele>
        <time>2021-12-31T12:44:13Z</time>
      </trkpt>
      <trkpt lat="46.54192" lon="5.27505">
        <ele>203.4</ele>
        <time>2021-12-31T12:44:17Z</time>
      </trkpt>
      <trkpt lat="46.54175" lon="5.2747">
        <ele>202.8</ele>
        <time>2021-12-31T12:44:21Z</time>
      </trkpt>
      <trkpt lat="46.54166" lon="5.2745">
        <ele>202.4</ele>
        <time>2021-12-31T12:44:23Z</time>
      </trkpt>
      <trkpt lat="46.54153" lon="5.27418">
        <ele>201.4</ele>
        <time>2021-12-31T12:44:26Z</time>
      </trkpt>
      <trkpt lat="46.54136" lon="5.27375">
        <ele>200.2</ele>
        <time>2021-12-31T12:44:30Z</time>
      </trkpt>
      <trkpt lat="46.54132" lon="5.27364">
        <ele>199.8</ele>
        <time>2021-12-31T12:44:31Z</time>
      </trkpt>
      <trkpt lat="46.54127" lon="5.27354">
        <ele>199.2</ele>
        <time>2021-12-31T12:44:32Z</time>
      </trkpt>
      <trkpt lat="46.54118" lon="5.27331">
        <ele>198</ele>
        <time>2021-12-31T12:44:34Z</time>
      </trkpt>
      <trkpt lat="46.54105" lon="5.27298">
        <ele>196.8</ele>
        <time>2021-12-31T12:44:37Z</time>
      </trkpt>
      <trkpt lat="46.54095" lon="5.27275">
        <ele>195.6</ele>
        <time>2021-12-31T12:44:39Z</time>
      </trkpt>
      <trkpt lat="46.54091" lon="5.27264">
        <ele>195.2</ele>
        <time>2021-12-31T12:44:40Z</time>
      </trkpt>
      <trkpt lat="46.54082" lon="5.27241">
        <ele>194.6</ele>
        <time>2021-12-31T12:44:42Z</time>
      </trkpt>
      <trkpt lat="46.54067" lon="5.27207">
        <ele>193.4</ele>
        <time>2021-12-31T12:44:45Z</time>
      </trkpt>
      <trkpt lat="46.54054" lon="5.27173">
        <ele>192.4</ele>
        <time>2021-12-31T12:44:48Z</time>
      </trkpt>
      <trkpt lat="46.54039" lon="5.2714">
        <ele>190.8</ele>
        <time>2021-12-31T12:44:51Z</time>
      </trkpt>
      <trkpt lat="46.54035" lon="5.27129">
        <ele>190.4</ele>
        <time>2021-12-31T12:44:52Z</time>
      </trkpt>
      <trkpt lat="46.54026" lon="5.27106">
        <ele>189.8</ele>
        <time>2021-12-31T12:44:54Z</time>
      </trkpt>
      <trkpt lat="46.54018" lon="5.27086">
        <ele>188.8</ele>
        <time>2021-12-31T12:44:56Z</time>
      </trkpt>
      <trkpt lat="46.54003" lon="5.27051">
        <ele>187.4</ele>
        <time>2021-12-31T12:44:59Z</time>
      </trkpt>
      <trkpt lat="46.53984" lon="5.27006">
        <ele>186.4</ele>
        <time>2021-12-31T12:45:03Z</time>
      </trkpt>
      <trkpt lat="46.5396" lon="5.26952">
        <ele>185.2</ele>
        <time>2021-12-31T12:45:08Z</time>
      </trkpt>
      <trkpt lat="46.53943" lon="5.26922">
        <ele>184</ele>
        <time>2021-12-31T12:45:11Z</time>
      </trkpt>
      <trkpt lat="46.53928" lon="5.26896">
        <ele>182.8</ele>
        <time>2021-12-31T12:45:14Z</time>
      </trkpt>
      <trkpt lat="46.53918" lon="5.26881">
        <ele>182.4</ele>
        <time>2021-12-31T12:45:16Z</time>
      </trkpt>
      <trkpt lat="46.53881" lon="5.26822">
        <ele>181.8</ele>
        <time>2021-12-31T12:45:24Z</time>
      </trkpt>
      <trkpt lat="46.53856" lon="5.2678">
        <ele>181.8</ele>
        <time>2021-12-31T12:45:30Z</time>
      </trkpt>
      <trkpt lat="46.53852" lon="5.26772">
        <ele>181.8</ele>
        <time>2021-12-31T12:45:31Z</time>
      </trkpt>
      <trkpt lat="46.53841" lon="5.26747">
        <ele>181.6</ele>
        <time>2021-12-31T12:45:35Z</time>
      </trkpt>
      <trkpt lat="46.53839" lon="5.26741">
        <ele>181.6</ele>
        <time>2021-12-31T12:45:36Z</time>
      </trkpt>
      <trkpt lat="46.53838" lon="5.26736">
        <ele>181.6</ele>
        <time>2021-12-31T12:45:37Z</time>
      </trkpt>
      <trkpt lat="46.53836" lon="5.26721">
        <ele>181.4</ele>
        <time>2021-12-31T12:45:39Z</time>
      </trkpt>
      <trkpt lat="46.53836" lon="5.26708">
        <ele>181.4</ele>
        <time>2021-12-31T12:45:41Z</time>
      </trkpt>
      <trkpt lat="46.53837" lon="5.2669">
        <ele>181.4</ele>
        <time>2021-12-31T12:45:44Z</time>
      </trkpt>
      <trkpt lat="46.53838" lon="5.2668">
        <ele>181.4</ele>
        <time>2021-12-31T12:45:46Z</time>
      </trkpt>
      <trkpt lat="46.53842" lon="5.26669">
        <ele>181.4</ele>
        <time>2021-12-31T12:45:50Z</time>
      </trkpt>
      <trkpt lat="46.53845" lon="5.2665">
        <ele>181.4</ele>
        <time>2021-12-31T12:45:55Z</time>
      </trkpt>
      <trkpt lat="46.53838" lon="5.26622">
        <ele>181.4</ele>
        <time>2021-12-31T12:46:00Z</time>
      </trkpt>
      <trkpt lat="46.53833" lon="5.26605">
        <ele>181.4</ele>
        <time>2021-12-31T12:46:03Z</time>
      </trkpt>
      <trkpt lat="46.53828" lon="5.26585">
        <ele>181.8</ele>
        <time>2021-12-31T12:46:06Z</time>
      </trkpt>
      <trkpt lat="46.53827" lon="5.26579">
        <ele>182</ele>
        <time>2021-12-31T12:46:07Z</time>
      </trkpt>
      <trkpt lat="46.53821" lon="5.26541">
        <ele>182.6</ele>
        <time>2021-12-31T12:46:13Z</time>
      </trkpt>
      <trkpt lat="46.53815" lon="5.26513">
        <ele>182.8</ele>
        <time>2021-12-31T12:46:17Z</time>
      </trkpt>
      <trkpt lat="46.53815" lon="5.26507">
        <ele>182.8</ele>
        <time>2021-12-31T12:46:18Z</time>
      </trkpt>
      <trkpt lat="46.53814" lon="5.26502">
        <ele>183</ele>
        <time>2021-12-31T12:46:19Z</time>
      </trkpt>
      <trkpt lat="46.5381" lon="5.26475">
        <ele>183.2</ele>
        <time>2021-12-31T12:46:23Z</time>
      </trkpt>
      <trkpt lat="46.53809" lon="5.26469">
        <ele>183.4</ele>
        <time>2021-12-31T12:46:24Z</time>
      </trkpt>
      <trkpt lat="46.53808" lon="5.26463">
        <ele>183.4</ele>
        <time>2021-12-31T12:46:25Z</time>
      </trkpt>
      <trkpt lat="46.53802" lon="5.26451">
        <ele>183.8</ele>
        <time>2021-12-31T12:46:27Z</time>
      </trkpt>
      <trkpt lat="46.53798" lon="5.26446">
        <ele>184</ele>
        <time>2021-12-31T12:46:28Z</time>
      </trkpt>
      <trkpt lat="46.53795" lon="5.26443">
        <ele>184</ele>
        <time>2021-12-31T12:46:29Z</time>
      </trkpt>
      <trkpt lat="46.53786" lon="5.2644">
        <ele>184.4</ele>
        <time>2021-12-31T12:46:32Z</time>
      </trkpt>
      <trkpt lat="46.53776" lon="5.26444">
        <ele>185</ele>
        <time>2021-12-31T12:46:35Z</time>
      </trkpt>
      <trkpt lat="46.53771" lon="5.26446">
        <ele>185</ele>
        <time>2021-12-31T12:46:36Z</time>
      </trkpt>
      <trkpt lat="46.5375" lon="5.26456">
        <ele>185.2</ele>
        <time>2021-12-31T12:46:40Z</time>
      </trkpt>
      <trkpt lat="46.53705" lon="5.26473">
        <ele>184.4</ele>
        <time>2021-12-31T12:46:47Z</time>
      </trkpt>
      <trkpt lat="46.53662" lon="5.26483">
        <ele>183.8</ele>
        <time>2021-12-31T12:46:53Z</time>
      </trkpt>
      <trkpt lat="46.53634" lon="5.2648">
        <ele>183.6</ele>
        <time>2021-12-31T12:46:57Z</time>
      </trkpt>
      <trkpt lat="46.53614" lon="5.26476">
        <ele>183.8</ele>
        <time>2021-12-31T12:47:00Z</time>
      </trkpt>
      <trkpt lat="46.53568" lon="5.26479">
        <ele>183.2</ele>
        <time>2021-12-31T12:47:07Z</time>
      </trkpt>
      <trkpt lat="46.53528" lon="5.26475">
        <ele>183.2</ele>
        <time>2021-12-31T12:47:13Z</time>
      </trkpt>
      <trkpt lat="46.5347" lon="5.26467">
        <ele>183</ele>
        <time>2021-12-31T12:47:22Z</time>
      </trkpt>
      <trkpt lat="46.53458" lon="5.26467">
        <ele>183</ele>
        <time>2021-12-31T12:47:24Z</time>
      </trkpt>
      <trkpt lat="46.53407" lon="5.26466">
        <ele>182.6</ele>
        <time>2021-12-31T12:47:32Z</time>
      </trkpt>
      <trkpt lat="46.53394" lon="5.26466">
        <ele>182.6</ele>
        <time>2021-12-31T12:47:34Z</time>
      </trkpt>
      <trkpt lat="46.53335" lon="5.26462">
        <ele>183</ele>
        <time>2021-12-31T12:47:43Z</time>
      </trkpt>
      <trkpt lat="46.53328" lon="5.26461">
        <ele>183</ele>
        <time>2021-12-31T12:47:44Z</time>
      </trkpt>
      <trkpt lat="46.5327" lon="5.26452">
        <ele>183</ele>
        <time>2021-12-31T12:47:53Z</time>
      </trkpt>
      <trkpt lat="46.53213" lon="5.26443">
        <ele>183.4</ele>
        <time>2021-12-31T12:48:02Z</time>
      </trkpt>
      <trkpt lat="46.53156" lon="5.26435">
        <ele>183.2</ele>
        <time>2021-12-31T12:48:11Z</time>
      </trkpt>
      <trkpt lat="46.531" lon="5.26424">
        <ele>183.4</ele>
        <time>2021-12-31T12:48:20Z</time>
      </trkpt>
      <trkpt lat="46.53082" lon="5.26417">
        <ele>183.4</ele>
        <time>2021-12-31T12:48:23Z</time>
      </trkpt>
      <trkpt lat="46.53064" lon="5.26407">
        <ele>183.4</ele>
        <time>2021-12-31T12:48:26Z</time>
      </trkpt>
      <trkpt lat="46.5302" lon="5.26381">
        <ele>183.8</ele>
        <time>2021-12-31T12:48:34Z</time>
      </trkpt>
      <trkpt lat="46.53009" lon="5.26374">
        <ele>183.8</ele>
        <time>2021-12-31T12:48:36Z</time>
      </trkpt>
      <trkpt lat="46.52954" lon="5.26343">
        <ele>184</ele>
        <time>2021-12-31T12:48:46Z</time>
      </trkpt>
      <trkpt lat="46.52949" lon="5.2634">
        <ele>184</ele>
        <time>2021-12-31T12:48:47Z</time>
      </trkpt>
      <trkpt lat="46.52895" lon="5.26312">
        <ele>184.6</ele>
        <time>2021-12-31T12:48:57Z</time>
      </trkpt>
      <trkpt lat="46.52889" lon="5.2631">
        <ele>184.8</ele>
        <time>2021-12-31T12:48:58Z</time>
      </trkpt>
      <trkpt lat="46.52872" lon="5.26307">
        <ele>185</ele>
        <time>2021-12-31T12:49:01Z</time>
      </trkpt>
      <trkpt lat="46.52861" lon="5.26306">
        <ele>185.2</ele>
        <time>2021-12-31T12:49:03Z</time>
      </trkpt>
      <trkpt lat="46.52815" lon="5.26309">
        <ele>185.6</ele>
        <time>2021-12-31T12:49:11Z</time>
      </trkpt>
      <trkpt lat="46.5278" lon="5.26299">
        <ele>185.6</ele>
        <time>2021-12-31T12:49:17Z</time>
      </trkpt>
      <trkpt lat="46.52737" lon="5.26279">
        <ele>185.2</ele>
        <time>2021-12-31T12:49:24Z</time>
      </trkpt>
      <trkpt lat="46.52687" lon="5.26257">
        <ele>184.6</ele>
        <time>2021-12-31T12:49:32Z</time>
      </trkpt>
      <trkpt lat="46.52636" lon="5.26228">
        <ele>183.8</ele>
        <time>2021-12-31T12:49:40Z</time>
      </trkpt>
      <trkpt lat="46.52624" lon="5.26219">
        <ele>183.6</ele>
        <time>2021-12-31T12:49:42Z</time>
      </trkpt>
      <trkpt lat="46.52596" lon="5.26191">
        <ele>183.4</ele>
        <time>2021-12-31T12:49:47Z</time>
      </trkpt>
      <trkpt lat="46.52567" lon="5.26141">
        <ele>183.2</ele>
        <time>2021-12-31T12:49:54Z</time>
      </trkpt>
      <trkpt lat="46.52562" lon="5.26125">
        <ele>183</ele>
        <time>2021-12-31T12:49:56Z</time>
      </trkpt>
      <trkpt lat="46.52561" lon="5.26116">
        <ele>183</ele>
        <time>2021-12-31T12:49:57Z</time>
      </trkpt>
      <trkpt lat="46.52563" lon="5.26109">
        <ele>182.8</ele>
        <time>2021-12-31T12:49:58Z</time>
      </trkpt>
      <trkpt lat="46.52566" lon="5.26104">
        <ele>182.8</ele>
        <time>2021-12-31T12:49:59Z</time>
      </trkpt>
      <trkpt lat="46.52578" lon="5.26076">
        <ele>183</ele>
        <time>2021-12-31T12:50:04Z</time>
      </trkpt>
      <trkpt lat="46.52579" lon="5.26071">
        <ele>183.2</ele>
        <time>2021-12-31T12:50:05Z</time>
      </trkpt>
      <trkpt lat="46.52584" lon="5.26047">
        <ele>184.2</ele>
        <time>2021-12-31T12:50:09Z</time>
      </trkpt>
      <trkpt lat="46.52586" lon="5.26035">
        <ele>185</ele>
        <time>2021-12-31T12:50:11Z</time>
      </trkpt>
      <trkpt lat="46.52588" lon="5.26024">
        <ele>185.4</ele>
        <time>2021-12-31T12:50:13Z</time>
      </trkpt>
      <trkpt lat="46.5259" lon="5.26014">
        <ele>186</ele>
        <time>2021-12-31T12:50:15Z</time>
      </trkpt>
      <trkpt lat="46.52597" lon="5.25989">
        <ele>187</ele>
        <time>2021-12-31T12:50:20Z</time>
      </trkpt>
      <trkpt lat="46.52598" lon="5.25985">
        <ele>187.4</ele>
        <time>2021-12-31T12:50:21Z</time>
      </trkpt>
      <trkpt lat="46.52604" lon="5.25974">
        <ele>188.2</ele>
        <time>2021-12-31T12:50:24Z</time>
      </trkpt>
      <trkpt lat="46.5261" lon="5.25967">
        <ele>188.8</ele>
        <time>2021-12-31T12:50:26Z</time>
      </trkpt>
      <trkpt lat="46.52619" lon="5.25959">
        <ele>189.4</ele>
        <time>2021-12-31T12:50:29Z</time>
      </trkpt>
      <trkpt lat="46.52628" lon="5.25954">
        <ele>190.4</ele>
        <time>2021-12-31T12:50:32Z</time>
      </trkpt>
      <trkpt lat="46.52643" lon="5.25951">
        <ele>191.6</ele>
        <time>2021-12-31T12:50:37Z</time>
      </trkpt>
      <trkpt lat="46.52654" lon="5.25945">
        <ele>192.6</ele>
        <time>2021-12-31T12:50:40Z</time>
      </trkpt>
      <trkpt lat="46.52662" lon="5.25938">
        <ele>193.4</ele>
        <time>2021-12-31T12:50:42Z</time>
      </trkpt>
      <trkpt lat="46.52669" lon="5.2593">
        <ele>193.8</ele>
        <time>2021-12-31T12:50:44Z</time>
      </trkpt>
      <trkpt lat="46.52676" lon="5.25915">
        <ele>195</ele>
        <time>2021-12-31T12:50:47Z</time>
      </trkpt>
      <trkpt lat="46.52687" lon="5.2589">
        <ele>196</ele>
        <time>2021-12-31T12:50:52Z</time>
      </trkpt>
      <trkpt lat="46.52688" lon="5.2588">
        <ele>196.2</ele>
        <time>2021-12-31T12:50:54Z</time>
      </trkpt>
      <trkpt lat="46.52688" lon="5.25875">
        <ele>197</ele>
        <time>2021-12-31T12:50:55Z</time>
      </trkpt>
      <trkpt lat="46.5269" lon="5.25854">
        <ele>198</ele>
        <time>2021-12-31T12:50:59Z</time>
      </trkpt>
      <trkpt lat="46.5269" lon="5.25834">
        <ele>199.2</ele>
        <time>2021-12-31T12:51:03Z</time>
      </trkpt>
      <trkpt lat="46.52691" lon="5.25798">
        <ele>200.2</ele>
        <time>2021-12-31T12:51:10Z</time>
      </trkpt>
      <trkpt lat="46.52692" lon="5.25787">
        <ele>200.6</ele>
        <time>2021-12-31T12:51:12Z</time>
      </trkpt>
      <trkpt lat="46.52701" lon="5.25754">
        <ele>201.2</ele>
        <time>2021-12-31T12:51:18Z</time>
      </trkpt>
      <trkpt lat="46.52703" lon="5.25748">
        <ele>201.4</ele>
        <time>2021-12-31T12:51:19Z</time>
      </trkpt>
      <trkpt lat="46.52713" lon="5.25703">
        <ele>202</ele>
        <time>2021-12-31T12:51:26Z</time>
      </trkpt>
      <trkpt lat="46.52716" lon="5.25652">
        <ele>202.2</ele>
        <time>2021-12-31T12:51:33Z</time>
      </trkpt>
      <trkpt lat="46.52718" lon="5.25583">
        <ele>202.2</ele>
        <time>2021-12-31T12:51:42Z</time>
      </trkpt>
      <trkpt lat="46.52719" lon="5.25576">
        <ele>202.4</ele>
        <time>2021-12-31T12:51:43Z</time>
      </trkpt>
      <trkpt lat="46.52722" lon="5.25496">
        <ele>203</ele>
        <time>2021-12-31T12:51:53Z</time>
      </trkpt>
      <trkpt lat="46.52721" lon="5.2548">
        <ele>203.4</ele>
        <time>2021-12-31T12:51:55Z</time>
      </trkpt>
      <trkpt lat="46.5272" lon="5.25473">
        <ele>203.4</ele>
        <time>2021-12-31T12:51:56Z</time>
      </trkpt>
      <trkpt lat="46.52718" lon="5.25465">
        <ele>203.6</ele>
        <time>2021-12-31T12:51:57Z</time>
      </trkpt>
      <trkpt lat="46.52712" lon="5.25451">
        <ele>203.8</ele>
        <time>2021-12-31T12:51:59Z</time>
      </trkpt>
      <trkpt lat="46.52684" lon="5.2541">
        <ele>204</ele>
        <time>2021-12-31T12:52:06Z</time>
      </trkpt>
      <trkpt lat="46.52649" lon="5.25352">
        <ele>204.4</ele>
        <time>2021-12-31T12:52:15Z</time>
      </trkpt>
      <trkpt lat="46.52645" lon="5.25345">
        <ele>204.4</ele>
        <time>2021-12-31T12:52:16Z</time>
      </trkpt>
      <trkpt lat="46.52636" lon="5.25324">
        <ele>204.4</ele>
        <time>2021-12-31T12:52:19Z</time>
      </trkpt>
      <trkpt lat="46.52633" lon="5.25316">
        <ele>204.4</ele>
        <time>2021-12-31T12:52:20Z</time>
      </trkpt>
      <trkpt lat="46.5262" lon="5.25256">
        <ele>205</ele>
        <time>2021-12-31T12:52:27Z</time>
      </trkpt>
      <trkpt lat="46.52618" lon="5.25201">
        <ele>205</ele>
        <time>2021-12-31T12:52:33Z</time>
      </trkpt>
      <trkpt lat="46.52615" lon="5.25117">
        <ele>204.6</ele>
        <time>2021-12-31T12:52:42Z</time>
      </trkpt>
      <trkpt lat="46.52615" lon="5.25108">
        <ele>204.6</ele>
        <time>2021-12-31T12:52:43Z</time>
      </trkpt>
      <trkpt lat="46.52611" lon="5.25032">
        <ele>204.2</ele>
        <time>2021-12-31T12:52:51Z</time>
      </trkpt>
      <trkpt lat="46.52602" lon="5.24964">
        <ele>203.8</ele>
        <time>2021-12-31T12:52:58Z</time>
      </trkpt>
      <trkpt lat="46.52591" lon="5.24885">
        <ele>203.6</ele>
        <time>2021-12-31T12:53:06Z</time>
      </trkpt>
      <trkpt lat="46.52591" lon="5.24878">
        <ele>203.6</ele>
        <time>2021-12-31T12:53:07Z</time>
      </trkpt>
      <trkpt lat="46.52589" lon="5.24801">
        <ele>203.4</ele>
        <time>2021-12-31T12:53:15Z</time>
      </trkpt>
      <trkpt lat="46.52585" lon="5.24717">
        <ele>203.4</ele>
        <time>2021-12-31T12:53:24Z</time>
      </trkpt>
      <trkpt lat="46.52579" lon="5.24646">
        <ele>203.4</ele>
        <time>2021-12-31T12:53:32Z</time>
      </trkpt>
      <trkpt lat="46.52563" lon="5.24595">
        <ele>203.6</ele>
        <time>2021-12-31T12:53:38Z</time>
      </trkpt>
      <trkpt lat="46.52537" lon="5.24524">
        <ele>203.4</ele>
        <time>2021-12-31T12:53:46Z</time>
      </trkpt>
      <trkpt lat="46.52534" lon="5.24515">
        <ele>203.2</ele>
        <time>2021-12-31T12:53:47Z</time>
      </trkpt>
      <trkpt lat="46.52516" lon="5.24448">
        <ele>202.2</ele>
        <time>2021-12-31T12:53:54Z</time>
      </trkpt>
      <trkpt lat="46.52512" lon="5.24428">
        <ele>202.2</ele>
        <time>2021-12-31T12:53:56Z</time>
      </trkpt>
      <trkpt lat="46.52502" lon="5.24359">
        <ele>201.4</ele>
        <time>2021-12-31T12:54:03Z</time>
      </trkpt>
      <trkpt lat="46.52498" lon="5.2433">
        <ele>201</ele>
        <time>2021-12-31T12:54:06Z</time>
      </trkpt>
      <trkpt lat="46.52492" lon="5.24278">
        <ele>200.8</ele>
        <time>2021-12-31T12:54:12Z</time>
      </trkpt>
      <trkpt lat="46.52484" lon="5.24211">
        <ele>201.6</ele>
        <time>2021-12-31T12:54:20Z</time>
      </trkpt>
      <trkpt lat="46.5248" lon="5.24179">
        <ele>202</ele>
        <time>2021-12-31T12:54:24Z</time>
      </trkpt>
      <trkpt lat="46.52476" lon="5.2415">
        <ele>202.4</ele>
        <time>2021-12-31T12:54:28Z</time>
      </trkpt>
      <trkpt lat="46.52477" lon="5.24139">
        <ele>202.6</ele>
        <time>2021-12-31T12:54:30Z</time>
      </trkpt>
      <trkpt lat="46.5248" lon="5.2413">
        <ele>202.8</ele>
        <time>2021-12-31T12:54:32Z</time>
      </trkpt>
      <trkpt lat="46.52481" lon="5.24127">
        <ele>202.8</ele>
        <time>2021-12-31T12:54:33Z</time>
      </trkpt>
      <trkpt lat="46.52478" lon="5.24119">
        <ele>202.8</ele>
        <time>2021-12-31T12:54:35Z</time>
      </trkpt>
      <trkpt lat="46.52475" lon="5.24118">
        <ele>203</ele>
        <time>2021-12-31T12:54:36Z</time>
      </trkpt>
      <trkpt lat="46.52466" lon="5.24116">
        <ele>203</ele>
        <time>2021-12-31T12:54:38Z</time>
      </trkpt>
      <trkpt lat="46.5246" lon="5.24114">
        <ele>203</ele>
        <time>2021-12-31T12:54:39Z</time>
      </trkpt>
      <trkpt lat="46.52448" lon="5.24112">
        <ele>203</ele>
        <time>2021-12-31T12:54:41Z</time>
      </trkpt>
      <trkpt lat="46.52429" lon="5.24109">
        <ele>203</ele>
        <time>2021-12-31T12:54:44Z</time>
      </trkpt>
      <trkpt lat="46.52385" lon="5.24098">
        <ele>203</ele>
        <time>2021-12-31T12:54:51Z</time>
      </trkpt>
      <trkpt lat="46.52373" lon="5.24095">
        <ele>203</ele>
        <time>2021-12-31T12:54:53Z</time>
      </trkpt>
      <trkpt lat="46.52363" lon="5.24082">
        <ele>202.8</ele>
        <time>2021-12-31T12:54:55Z</time>
      </trkpt>
      <trkpt lat="46.52343" lon="5.24033">
        <ele>202.8</ele>
        <time>2021-12-31T12:55:01Z</time>
      </trkpt>
      <trkpt lat="46.52314" lon="5.23961">
        <ele>202.8</ele>
        <time>2021-12-31T12:55:10Z</time>
      </trkpt>
      <trkpt lat="46.52285" lon="5.23898">
        <ele>202.4</ele>
        <time>2021-12-31T12:55:18Z</time>
      </trkpt>
      <trkpt lat="46.52247" lon="5.23836">
        <ele>202.2</ele>
        <time>2021-12-31T12:55:27Z</time>
      </trkpt>
      <trkpt lat="46.52243" lon="5.2383">
        <ele>202</ele>
        <time>2021-12-31T12:55:28Z</time>
      </trkpt>
      <trkpt lat="46.52229" lon="5.2381">
        <ele>202</ele>
        <time>2021-12-31T12:55:31Z</time>
      </trkpt>
      <trkpt lat="46.52194" lon="5.23753">
        <ele>201.8</ele>
        <time>2021-12-31T12:55:39Z</time>
      </trkpt>
      <trkpt lat="46.52158" lon="5.23697">
        <ele>201.6</ele>
        <time>2021-12-31T12:55:47Z</time>
      </trkpt>
      <trkpt lat="46.52132" lon="5.2367">
        <ele>201.8</ele>
        <time>2021-12-31T12:55:52Z</time>
      </trkpt>
      <trkpt lat="46.52114" lon="5.23662">
        <ele>202</ele>
        <time>2021-12-31T12:55:55Z</time>
      </trkpt>
      <trkpt lat="46.52107" lon="5.23661">
        <ele>202</ele>
        <time>2021-12-31T12:55:56Z</time>
      </trkpt>
      <trkpt lat="46.52066" lon="5.23667">
        <ele>201.8</ele>
        <time>2021-12-31T12:56:02Z</time>
      </trkpt>
      <trkpt lat="46.52006" lon="5.23679">
        <ele>201.4</ele>
        <time>2021-12-31T12:56:11Z</time>
      </trkpt>
      <trkpt lat="46.51952" lon="5.23694">
        <ele>201.4</ele>
        <time>2021-12-31T12:56:19Z</time>
      </trkpt>
      <trkpt lat="46.51945" lon="5.23694">
        <ele>201.4</ele>
        <time>2021-12-31T12:56:20Z</time>
      </trkpt>
      <trkpt lat="46.51891" lon="5.23698">
        <ele>201.2</ele>
        <time>2021-12-31T12:56:28Z</time>
      </trkpt>
      <trkpt lat="46.51833" lon="5.23708">
        <ele>201.4</ele>
        <time>2021-12-31T12:56:37Z</time>
      </trkpt>
      <trkpt lat="46.51776" lon="5.23718">
        <ele>201.6</ele>
        <time>2021-12-31T12:56:46Z</time>
      </trkpt>
      <trkpt lat="46.51765" lon="5.2372">
        <ele>201.8</ele>
        <time>2021-12-31T12:56:48Z</time>
      </trkpt>
      <trkpt lat="46.51732" lon="5.23728">
        <ele>202</ele>
        <time>2021-12-31T12:56:53Z</time>
      </trkpt>
      <trkpt lat="46.51719" lon="5.23729">
        <ele>202</ele>
        <time>2021-12-31T12:56:55Z</time>
      </trkpt>
      <trkpt lat="46.51666" lon="5.23735">
        <ele>202.2</ele>
        <time>2021-12-31T12:57:03Z</time>
      </trkpt>
      <trkpt lat="46.51622" lon="5.23731">
        <ele>202.4</ele>
        <time>2021-12-31T12:57:10Z</time>
      </trkpt>
      <trkpt lat="46.51585" lon="5.23718">
        <ele>202.8</ele>
        <time>2021-12-31T12:57:16Z</time>
      </trkpt>
      <trkpt lat="46.51566" lon="5.23711">
        <ele>203</ele>
        <time>2021-12-31T12:57:19Z</time>
      </trkpt>
      <trkpt lat="46.51519" lon="5.23696">
        <ele>203.2</ele>
        <time>2021-12-31T12:57:27Z</time>
      </trkpt>
      <trkpt lat="46.51468" lon="5.23677">
        <ele>203.6</ele>
        <time>2021-12-31T12:57:35Z</time>
      </trkpt>
      <trkpt lat="46.51426" lon="5.23661">
        <ele>203.8</ele>
        <time>2021-12-31T12:57:42Z</time>
      </trkpt>
      <trkpt lat="46.51395" lon="5.23649">
        <ele>203.8</ele>
        <time>2021-12-31T12:57:47Z</time>
      </trkpt>
      <trkpt lat="46.51363" lon="5.23622">
        <ele>204</ele>
        <time>2021-12-31T12:57:53Z</time>
      </trkpt>
      <trkpt lat="46.51319" lon="5.23567">
        <ele>204</ele>
        <time>2021-12-31T12:58:02Z</time>
      </trkpt>
      <trkpt lat="46.51315" lon="5.23561">
        <ele>204</ele>
        <time>2021-12-31T12:58:03Z</time>
      </trkpt>
      <trkpt lat="46.51276" lon="5.23513">
        <ele>204</ele>
        <time>2021-12-31T12:58:11Z</time>
      </trkpt>
      <trkpt lat="46.51235" lon="5.23462">
        <ele>204</ele>
        <time>2021-12-31T12:58:19Z</time>
      </trkpt>
      <trkpt lat="46.51192" lon="5.2341">
        <ele>204</ele>
        <time>2021-12-31T12:58:27Z</time>
      </trkpt>
      <trkpt lat="46.51176" lon="5.23392">
        <ele>204</ele>
        <time>2021-12-31T12:58:30Z</time>
      </trkpt>
      <trkpt lat="46.51133" lon="5.23339">
        <ele>204</ele>
        <time>2021-12-31T12:58:39Z</time>
      </trkpt>
      <trkpt lat="46.51129" lon="5.23333">
        <ele>204</ele>
        <time>2021-12-31T12:58:40Z</time>
      </trkpt>
      <trkpt lat="46.51086" lon="5.23283">
        <ele>204.4</ele>
        <time>2021-12-31T12:58:49Z</time>
      </trkpt>
      <trkpt lat="46.51078" lon="5.23275">
        <ele>204.4</ele>
        <time>2021-12-31T12:58:51Z</time>
      </trkpt>
      <trkpt lat="46.51057" lon="5.23257">
        <ele>204.8</ele>
        <time>2021-12-31T12:58:55Z</time>
      </trkpt>
      <trkpt lat="46.51038" lon="5.23242">
        <ele>204.8</ele>
        <time>2021-12-31T12:58:59Z</time>
      </trkpt>
      <trkpt lat="46.5099" lon="5.23204">
        <ele>205.4</ele>
        <time>2021-12-31T12:59:08Z</time>
      </trkpt>
      <trkpt lat="46.50984" lon="5.23199">
        <ele>205.6</ele>
        <time>2021-12-31T12:59:09Z</time>
      </trkpt>
      <trkpt lat="46.50951" lon="5.23176">
        <ele>205.8</ele>
        <time>2021-12-31T12:59:15Z</time>
      </trkpt>
      <trkpt lat="46.5094" lon="5.23171">
        <ele>205.8</ele>
        <time>2021-12-31T12:59:17Z</time>
      </trkpt>
      <trkpt lat="46.50892" lon="5.23152">
        <ele>206</ele>
        <time>2021-12-31T12:59:25Z</time>
      </trkpt>
      <trkpt lat="46.50845" lon="5.23132">
        <ele>206</ele>
        <time>2021-12-31T12:59:33Z</time>
      </trkpt>
      <trkpt lat="46.50809" lon="5.23104">
        <ele>206</ele>
        <time>2021-12-31T12:59:40Z</time>
      </trkpt>
      <trkpt lat="46.50772" lon="5.23057">
        <ele>206</ele>
        <time>2021-12-31T12:59:48Z</time>
      </trkpt>
      <trkpt lat="46.50733" lon="5.22999">
        <ele>206</ele>
        <time>2021-12-31T12:59:57Z</time>
      </trkpt>
      <trkpt lat="46.50693" lon="5.22943">
        <ele>205.6</ele>
        <time>2021-12-31T13:00:06Z</time>
      </trkpt>
      <trkpt lat="46.50689" lon="5.22936">
        <ele>205.6</ele>
        <time>2021-12-31T13:00:07Z</time>
      </trkpt>
      <trkpt lat="46.50649" lon="5.22879">
        <ele>206</ele>
        <time>2021-12-31T13:00:16Z</time>
      </trkpt>
      <trkpt lat="46.50635" lon="5.22861">
        <ele>206</ele>
        <time>2021-12-31T13:00:19Z</time>
      </trkpt>
      <trkpt lat="46.50588" lon="5.22814">
        <ele>205.8</ele>
        <time>2021-12-31T13:00:28Z</time>
      </trkpt>
      <trkpt lat="46.50583" lon="5.22809">
        <ele>205.8</ele>
        <time>2021-12-31T13:00:29Z</time>
      </trkpt>
      <trkpt lat="46.50541" lon="5.2278">
        <ele>205.8</ele>
        <time>2021-12-31T13:00:36Z</time>
      </trkpt>
      <trkpt lat="46.50503" lon="5.22767">
        <ele>205.4</ele>
        <time>2021-12-31T13:00:42Z</time>
      </trkpt>
      <trkpt lat="46.50447" lon="5.22758">
        <ele>205.4</ele>
        <time>2021-12-31T13:00:51Z</time>
      </trkpt>
      <trkpt lat="46.50399" lon="5.22748">
        <ele>206</ele>
        <time>2021-12-31T13:00:59Z</time>
      </trkpt>
      <trkpt lat="46.50342" lon="5.22743">
        <ele>206.4</ele>
        <time>2021-12-31T13:01:08Z</time>
      </trkpt>
      <trkpt lat="46.50336" lon="5.22743">
        <ele>206.4</ele>
        <time>2021-12-31T13:01:09Z</time>
      </trkpt>
      <trkpt lat="46.50318" lon="5.22742">
        <ele>206.6</ele>
        <time>2021-12-31T13:01:12Z</time>
      </trkpt>
      <trkpt lat="46.50287" lon="5.22742">
        <ele>207.4</ele>
        <time>2021-12-31T13:01:17Z</time>
      </trkpt>
      <trkpt lat="46.5027" lon="5.22744">
        <ele>207.6</ele>
        <time>2021-12-31T13:01:20Z</time>
      </trkpt>
      <trkpt lat="46.5024" lon="5.22749">
        <ele>208</ele>
        <time>2021-12-31T13:01:25Z</time>
      </trkpt>
      <trkpt lat="46.50203" lon="5.22754">
        <ele>208.4</ele>
        <time>2021-12-31T13:01:31Z</time>
      </trkpt>
      <trkpt lat="46.5019" lon="5.22752">
        <ele>208.4</ele>
        <time>2021-12-31T13:01:33Z</time>
      </trkpt>
      <trkpt lat="46.50154" lon="5.22734">
        <ele>208.4</ele>
        <time>2021-12-31T13:01:39Z</time>
      </trkpt>
      <trkpt lat="46.50107" lon="5.22707">
        <ele>208.6</ele>
        <time>2021-12-31T13:01:47Z</time>
      </trkpt>
      <trkpt lat="46.50101" lon="5.22704">
        <ele>208.6</ele>
        <time>2021-12-31T13:01:48Z</time>
      </trkpt>
      <trkpt lat="46.50088" lon="5.22699">
        <ele>208.6</ele>
        <time>2021-12-31T13:01:50Z</time>
      </trkpt>
      <trkpt lat="46.50069" lon="5.22698">
        <ele>208.6</ele>
        <time>2021-12-31T13:01:53Z</time>
      </trkpt>
      <trkpt lat="46.50062" lon="5.22699">
        <ele>208.6</ele>
        <time>2021-12-31T13:01:54Z</time>
      </trkpt>
      <trkpt lat="46.50029" lon="5.22706">
        <ele>208.2</ele>
        <time>2021-12-31T13:01:59Z</time>
      </trkpt>
      <trkpt lat="46.49978" lon="5.22718">
        <ele>207.2</ele>
        <time>2021-12-31T13:02:06Z</time>
      </trkpt>
      <trkpt lat="46.4997" lon="5.2272">
        <ele>206.6</ele>
        <time>2021-12-31T13:02:07Z</time>
      </trkpt>
      <trkpt lat="46.49946" lon="5.22725">
        <ele>205.4</ele>
        <time>2021-12-31T13:02:10Z</time>
      </trkpt>
      <trkpt lat="46.49923" lon="5.22729">
        <ele>204.6</ele>
        <time>2021-12-31T13:02:13Z</time>
      </trkpt>
      <trkpt lat="46.49914" lon="5.2273">
        <ele>204.2</ele>
        <time>2021-12-31T13:02:14Z</time>
      </trkpt>
      <trkpt lat="46.49874" lon="5.22734">
        <ele>203</ele>
        <time>2021-12-31T13:02:19Z</time>
      </trkpt>
      <trkpt lat="46.49815" lon="5.22742">
        <ele>202</ele>
        <time>2021-12-31T13:02:27Z</time>
      </trkpt>
      <trkpt lat="46.49808" lon="5.22744">
        <ele>201.8</ele>
        <time>2021-12-31T13:02:28Z</time>
      </trkpt>
      <trkpt lat="46.49772" lon="5.22749">
        <ele>200.8</ele>
        <time>2021-12-31T13:02:33Z</time>
      </trkpt>
      <trkpt lat="46.49764" lon="5.22749">
        <ele>200.8</ele>
        <time>2021-12-31T13:02:34Z</time>
      </trkpt>
      <trkpt lat="46.49712" lon="5.22754">
        <ele>199.8</ele>
        <time>2021-12-31T13:02:41Z</time>
      </trkpt>
      <trkpt lat="46.49704" lon="5.22755">
        <ele>199.6</ele>
        <time>2021-12-31T13:02:42Z</time>
      </trkpt>
      <trkpt lat="46.49662" lon="5.22759">
        <ele>198.6</ele>
        <time>2021-12-31T13:02:47Z</time>
      </trkpt>
      <trkpt lat="46.49652" lon="5.22759">
        <ele>198.4</ele>
        <time>2021-12-31T13:02:48Z</time>
      </trkpt>
      <trkpt lat="46.49625" lon="5.22761">
        <ele>197.4</ele>
        <time>2021-12-31T13:02:51Z</time>
      </trkpt>
      <trkpt lat="46.49595" lon="5.22763">
        <ele>196.4</ele>
        <time>2021-12-31T13:02:54Z</time>
      </trkpt>
      <trkpt lat="46.49585" lon="5.22764">
        <ele>196</ele>
        <time>2021-12-31T13:02:55Z</time>
      </trkpt>
      <trkpt lat="46.49577" lon="5.22766">
        <ele>195</ele>
        <time>2021-12-31T13:02:56Z</time>
      </trkpt>
      <trkpt lat="46.49549" lon="5.22768">
        <ele>194</ele>
        <time>2021-12-31T13:02:59Z</time>
      </trkpt>
      <trkpt lat="46.49532" lon="5.22769">
        <ele>192.8</ele>
        <time>2021-12-31T13:03:01Z</time>
      </trkpt>
      <trkpt lat="46.49516" lon="5.2277">
        <ele>192.4</ele>
        <time>2021-12-31T13:03:03Z</time>
      </trkpt>
      <trkpt lat="46.49476" lon="5.22773">
        <ele>192.2</ele>
        <time>2021-12-31T13:03:09Z</time>
      </trkpt>
      <trkpt lat="46.49433" lon="5.22775">
        <ele>194</ele>
        <time>2021-12-31T13:03:17Z</time>
      </trkpt>
      <trkpt lat="46.49413" lon="5.22777">
        <ele>195.2</ele>
        <time>2021-12-31T13:03:21Z</time>
      </trkpt>
      <trkpt lat="46.49394" lon="5.22778">
        <ele>196.2</ele>
        <time>2021-12-31T13:03:25Z</time>
      </trkpt>
      <trkpt lat="46.49389" lon="5.22778">
        <ele>196.2</ele>
        <time>2021-12-31T13:03:26Z</time>
      </trkpt>
      <trkpt lat="46.49366" lon="5.22779">
        <ele>197.4</ele>
        <time>2021-12-31T13:03:31Z</time>
      </trkpt>
      <trkpt lat="46.49346" lon="5.22781">
        <ele>198.2</ele>
        <time>2021-12-31T13:03:35Z</time>
      </trkpt>
      <trkpt lat="46.49336" lon="5.22782">
        <ele>198.6</ele>
        <time>2021-12-31T13:03:37Z</time>
      </trkpt>
      <trkpt lat="46.49322" lon="5.22785">
        <ele>199</ele>
        <time>2021-12-31T13:03:40Z</time>
      </trkpt>
      <trkpt lat="46.49309" lon="5.22786">
        <ele>199.6</ele>
        <time>2021-12-31T13:03:43Z</time>
      </trkpt>
      <trkpt lat="46.49305" lon="5.22787">
        <ele>199.6</ele>
        <time>2021-12-31T13:03:44Z</time>
      </trkpt>
      <trkpt lat="46.49293" lon="5.22787">
        <ele>200.6</ele>
        <time>2021-12-31T13:03:47Z</time>
      </trkpt>
      <trkpt lat="46.49284" lon="5.22788">
        <ele>201</ele>
        <time>2021-12-31T13:03:49Z</time>
      </trkpt>
      <trkpt lat="46.49277" lon="5.22788">
        <ele>201.8</ele>
        <time>2021-12-31T13:03:51Z</time>
      </trkpt>
      <trkpt lat="46.49262" lon="5.2279">
        <ele>203</ele>
        <time>2021-12-31T13:03:55Z</time>
      </trkpt>
      <trkpt lat="46.49258" lon="5.2279">
        <ele>203.4</ele>
        <time>2021-12-31T13:03:56Z</time>
      </trkpt>
      <trkpt lat="46.49243" lon="5.22791">
        <ele>204.4</ele>
        <time>2021-12-31T13:04:00Z</time>
      </trkpt>
      <trkpt lat="46.49228" lon="5.22792">
        <ele>205.4</ele>
        <time>2021-12-31T13:04:04Z</time>
      </trkpt>
      <trkpt lat="46.49206" lon="5.22794">
        <ele>206.4</ele>
        <time>2021-12-31T13:04:09Z</time>
      </trkpt>
      <trkpt lat="46.49189" lon="5.22795">
        <ele>207.4</ele>
        <time>2021-12-31T13:04:13Z</time>
      </trkpt>
      <trkpt lat="46.49184" lon="5.22794">
        <ele>207.6</ele>
        <time>2021-12-31T13:04:14Z</time>
      </trkpt>
      <trkpt lat="46.49155" lon="5.22785">
        <ele>208.4</ele>
        <time>2021-12-31T13:04:20Z</time>
      </trkpt>
      <trkpt lat="46.4911" lon="5.22762">
        <ele>208.2</ele>
        <time>2021-12-31T13:04:28Z</time>
      </trkpt>
      <trkpt lat="46.4907" lon="5.2274">
        <ele>208</ele>
        <time>2021-12-31T13:04:35Z</time>
      </trkpt>
      <trkpt lat="46.49019" lon="5.22713">
        <ele>208.2</ele>
        <time>2021-12-31T13:04:44Z</time>
      </trkpt>
      <trkpt lat="46.48975" lon="5.2269">
        <ele>207.8</ele>
        <time>2021-12-31T13:04:51Z</time>
      </trkpt>
      <trkpt lat="46.4892" lon="5.22661">
        <ele>206.8</ele>
        <time>2021-12-31T13:04:59Z</time>
      </trkpt>
      <trkpt lat="46.48883" lon="5.22642">
        <ele>206.6</ele>
        <time>2021-12-31T13:05:04Z</time>
      </trkpt>
      <trkpt lat="46.48856" lon="5.22627">
        <ele>206.6</ele>
        <time>2021-12-31T13:05:08Z</time>
      </trkpt>
      <trkpt lat="46.48801" lon="5.22597">
        <ele>205.6</ele>
        <time>2021-12-31T13:05:16Z</time>
      </trkpt>
      <trkpt lat="46.48794" lon="5.22593">
        <ele>205.6</ele>
        <time>2021-12-31T13:05:17Z</time>
      </trkpt>
      <trkpt lat="46.48781" lon="5.22586">
        <ele>205.4</ele>
        <time>2021-12-31T13:05:19Z</time>
      </trkpt>
      <trkpt lat="46.48729" lon="5.22556">
        <ele>205.2</ele>
        <time>2021-12-31T13:05:27Z</time>
      </trkpt>
      <trkpt lat="46.48722" lon="5.22552">
        <ele>205.2</ele>
        <time>2021-12-31T13:05:28Z</time>
      </trkpt>
      <trkpt lat="46.48675" lon="5.2252">
        <ele>205.2</ele>
        <time>2021-12-31T13:05:36Z</time>
      </trkpt>
      <trkpt lat="46.48643" lon="5.2248">
        <ele>205.6</ele>
        <time>2021-12-31T13:05:43Z</time>
      </trkpt>
      <trkpt lat="46.48604" lon="5.22442">
        <ele>206.2</ele>
        <time>2021-12-31T13:05:51Z</time>
      </trkpt>
      <trkpt lat="46.48588" lon="5.22428">
        <ele>206.6</ele>
        <time>2021-12-31T13:05:54Z</time>
      </trkpt>
      <trkpt lat="46.48567" lon="5.22409">
        <ele>207</ele>
        <time>2021-12-31T13:05:58Z</time>
      </trkpt>
      <trkpt lat="46.48529" lon="5.2238">
        <ele>207.4</ele>
        <time>2021-12-31T13:06:05Z</time>
      </trkpt>
      <trkpt lat="46.48479" lon="5.22346">
        <ele>207.4</ele>
        <time>2021-12-31T13:06:14Z</time>
      </trkpt>
      <trkpt lat="46.48474" lon="5.2234">
        <ele>207.4</ele>
        <time>2021-12-31T13:06:15Z</time>
      </trkpt>
      <trkpt lat="46.48446" lon="5.22304">
        <ele>207.4</ele>
        <time>2021-12-31T13:06:21Z</time>
      </trkpt>
      <trkpt lat="46.48405" lon="5.22255">
        <ele>207</ele>
        <time>2021-12-31T13:06:29Z</time>
      </trkpt>
      <trkpt lat="46.48368" lon="5.22229">
        <ele>206.4</ele>
        <time>2021-12-31T13:06:35Z</time>
      </trkpt>
      <trkpt lat="46.48348" lon="5.22221">
        <ele>206.2</ele>
        <time>2021-12-31T13:06:38Z</time>
      </trkpt>
      <trkpt lat="46.48334" lon="5.22219">
        <ele>206.2</ele>
        <time>2021-12-31T13:06:40Z</time>
      </trkpt>
      <trkpt lat="46.48308" lon="5.22219">
        <ele>205.6</ele>
        <time>2021-12-31T13:06:44Z</time>
      </trkpt>
      <trkpt lat="46.48294" lon="5.22219">
        <ele>205.2</ele>
        <time>2021-12-31T13:06:46Z</time>
      </trkpt>
      <trkpt lat="46.48245" lon="5.2221">
        <ele>204.6</ele>
        <time>2021-12-31T13:06:53Z</time>
      </trkpt>
      <trkpt lat="46.48231" lon="5.22206">
        <ele>204.4</ele>
        <time>2021-12-31T13:06:55Z</time>
      </trkpt>
      <trkpt lat="46.4821" lon="5.22203">
        <ele>204.4</ele>
        <time>2021-12-31T13:06:58Z</time>
      </trkpt>
      <trkpt lat="46.48203" lon="5.22205">
        <ele>204.2</ele>
        <time>2021-12-31T13:06:59Z</time>
      </trkpt>
      <trkpt lat="46.48149" lon="5.22219">
        <ele>203.6</ele>
        <time>2021-12-31T13:07:07Z</time>
      </trkpt>
      <trkpt lat="46.48135" lon="5.22222">
        <ele>203.6</ele>
        <time>2021-12-31T13:07:09Z</time>
      </trkpt>
      <trkpt lat="46.48096" lon="5.22232">
        <ele>203.6</ele>
        <time>2021-12-31T13:07:15Z</time>
      </trkpt>
      <trkpt lat="46.48069" lon="5.22257">
        <ele>203.8</ele>
        <time>2021-12-31T13:07:20Z</time>
      </trkpt>
      <trkpt lat="46.48035" lon="5.22281">
        <ele>203.8</ele>
        <time>2021-12-31T13:07:26Z</time>
      </trkpt>
      <trkpt lat="46.48029" lon="5.22283">
        <ele>204</ele>
        <time>2021-12-31T13:07:27Z</time>
      </trkpt>
      <trkpt lat="46.48009" lon="5.22284">
        <ele>204</ele>
        <time>2021-12-31T13:07:30Z</time>
      </trkpt>
      <trkpt lat="46.47952" lon="5.22289">
        <ele>204.2</ele>
        <time>2021-12-31T13:07:39Z</time>
      </trkpt>
      <trkpt lat="46.47904" lon="5.22294">
        <ele>204.8</ele>
        <time>2021-12-31T13:07:47Z</time>
      </trkpt>
      <trkpt lat="46.47874" lon="5.22297">
        <ele>205.6</ele>
        <time>2021-12-31T13:07:52Z</time>
      </trkpt>
      <trkpt lat="46.47853" lon="5.223">
        <ele>206.2</ele>
        <time>2021-12-31T13:07:56Z</time>
      </trkpt>
      <trkpt lat="46.47833" lon="5.22304">
        <ele>206.6</ele>
        <time>2021-12-31T13:08:00Z</time>
      </trkpt>
      <trkpt lat="46.47812" lon="5.22306">
        <ele>207</ele>
        <time>2021-12-31T13:08:04Z</time>
      </trkpt>
      <trkpt lat="46.47773" lon="5.22313">
        <ele>207.2</ele>
        <time>2021-12-31T13:08:12Z</time>
      </trkpt>
      <trkpt lat="46.47766" lon="5.22308">
        <ele>207</ele>
        <time>2021-12-31T13:08:14Z</time>
      </trkpt>
      <trkpt lat="46.47764" lon="5.22303">
        <ele>207</ele>
        <time>2021-12-31T13:08:15Z</time>
      </trkpt>
      <trkpt lat="46.47762" lon="5.22269">
        <ele>206.6</ele>
        <time>2021-12-31T13:08:19Z</time>
      </trkpt>
      <trkpt lat="46.47757" lon="5.22208">
        <ele>205.6</ele>
        <time>2021-12-31T13:08:25Z</time>
      </trkpt>
      <trkpt lat="46.47755" lon="5.22189">
        <ele>205.4</ele>
        <time>2021-12-31T13:08:27Z</time>
      </trkpt>
      <trkpt lat="46.47748" lon="5.22103">
        <ele>204.8</ele>
        <time>2021-12-31T13:08:35Z</time>
      </trkpt>
      <trkpt lat="46.47747" lon="5.22092">
        <ele>204.8</ele>
        <time>2021-12-31T13:08:36Z</time>
      </trkpt>
      <trkpt lat="46.47741" lon="5.22028">
        <ele>204.4</ele>
        <time>2021-12-31T13:08:42Z</time>
      </trkpt>
      <trkpt lat="46.47738" lon="5.21996">
        <ele>204.2</ele>
        <time>2021-12-31T13:08:45Z</time>
      </trkpt>
      <trkpt lat="46.47732" lon="5.21921">
        <ele>203.4</ele>
        <time>2021-12-31T13:08:52Z</time>
      </trkpt>
      <trkpt lat="46.47731" lon="5.2191">
        <ele>203.2</ele>
        <time>2021-12-31T13:08:53Z</time>
      </trkpt>
      <trkpt lat="46.47724" lon="5.2183">
        <ele>203</ele>
        <time>2021-12-31T13:09:01Z</time>
      </trkpt>
      <trkpt lat="46.47724" lon="5.21821">
        <ele>203.2</ele>
        <time>2021-12-31T13:09:02Z</time>
      </trkpt>
      <trkpt lat="46.47719" lon="5.2176">
        <ele>204.2</ele>
        <time>2021-12-31T13:09:09Z</time>
      </trkpt>
      <trkpt lat="46.47717" lon="5.21744">
        <ele>204.4</ele>
        <time>2021-12-31T13:09:11Z</time>
      </trkpt>
      <trkpt lat="46.47716" lon="5.21695">
        <ele>205.2</ele>
        <time>2021-12-31T13:09:17Z</time>
      </trkpt>
      <trkpt lat="46.47717" lon="5.21686">
        <ele>205.2</ele>
        <time>2021-12-31T13:09:18Z</time>
      </trkpt>
      <trkpt lat="46.47724" lon="5.21661">
        <ele>205.4</ele>
        <time>2021-12-31T13:09:21Z</time>
      </trkpt>
      <trkpt lat="46.47744" lon="5.21597">
        <ele>205.2</ele>
        <time>2021-12-31T13:09:28Z</time>
      </trkpt>
      <trkpt lat="46.47759" lon="5.21543">
        <ele>203.4</ele>
        <time>2021-12-31T13:09:33Z</time>
      </trkpt>
      <trkpt lat="46.47775" lon="5.2149">
        <ele>202</ele>
        <time>2021-12-31T13:09:38Z</time>
      </trkpt>
      <trkpt lat="46.47785" lon="5.2146">
        <ele>200.8</ele>
        <time>2021-12-31T13:09:41Z</time>
      </trkpt>
      <trkpt lat="46.47788" lon="5.2145">
        <ele>200.6</ele>
        <time>2021-12-31T13:09:42Z</time>
      </trkpt>
      <trkpt lat="46.47801" lon="5.21404">
        <ele>200.6</ele>
        <time>2021-12-31T13:09:47Z</time>
      </trkpt>
      <trkpt lat="46.47815" lon="5.21354">
        <ele>201.4</ele>
        <time>2021-12-31T13:09:53Z</time>
      </trkpt>
      <trkpt lat="46.47818" lon="5.21346">
        <ele>201.8</ele>
        <time>2021-12-31T13:09:54Z</time>
      </trkpt>
      <trkpt lat="46.47839" lon="5.21266">
        <ele>202.4</ele>
        <time>2021-12-31T13:10:03Z</time>
      </trkpt>
      <trkpt lat="46.47842" lon="5.21256">
        <ele>202.4</ele>
        <time>2021-12-31T13:10:04Z</time>
      </trkpt>
      <trkpt lat="46.47859" lon="5.2118">
        <ele>202.4</ele>
        <time>2021-12-31T13:10:11Z</time>
      </trkpt>
      <trkpt lat="46.47873" lon="5.2112">
        <ele>200.8</ele>
        <time>2021-12-31T13:10:16Z</time>
      </trkpt>
      <trkpt lat="46.47879" lon="5.21095">
        <ele>200.2</ele>
        <time>2021-12-31T13:10:18Z</time>
      </trkpt>
      <trkpt lat="46.47885" lon="5.21069">
        <ele>199.4</ele>
        <time>2021-12-31T13:10:20Z</time>
      </trkpt>
      <trkpt lat="46.47891" lon="5.21042">
        <ele>198.4</ele>
        <time>2021-12-31T13:10:22Z</time>
      </trkpt>
      <trkpt lat="46.47896" lon="5.21015">
        <ele>197.2</ele>
        <time>2021-12-31T13:10:24Z</time>
      </trkpt>
      <trkpt lat="46.47902" lon="5.20988">
        <ele>196.6</ele>
        <time>2021-12-31T13:10:26Z</time>
      </trkpt>
      <trkpt lat="46.47904" lon="5.20974">
        <ele>196.2</ele>
        <time>2021-12-31T13:10:27Z</time>
      </trkpt>
      <trkpt lat="46.47915" lon="5.2092">
        <ele>195</ele>
        <time>2021-12-31T13:10:31Z</time>
      </trkpt>
      <trkpt lat="46.47919" lon="5.20893">
        <ele>194.6</ele>
        <time>2021-12-31T13:10:33Z</time>
      </trkpt>
      <trkpt lat="46.4792" lon="5.2088">
        <ele>194.6</ele>
        <time>2021-12-31T13:10:34Z</time>
      </trkpt>
      <trkpt lat="46.4792" lon="5.20843">
        <ele>194</ele>
        <time>2021-12-31T13:10:37Z</time>
      </trkpt>
      <trkpt lat="46.47919" lon="5.20819">
        <ele>193.8</ele>
        <time>2021-12-31T13:10:39Z</time>
      </trkpt>
      <trkpt lat="46.47919" lon="5.20808">
        <ele>193.8</ele>
        <time>2021-12-31T13:10:40Z</time>
      </trkpt>
      <trkpt lat="46.47915" lon="5.20777">
        <ele>194</ele>
        <time>2021-12-31T13:10:43Z</time>
      </trkpt>
      <trkpt lat="46.4791" lon="5.2072">
        <ele>195.2</ele>
        <time>2021-12-31T13:10:49Z</time>
      </trkpt>
      <trkpt lat="46.47909" lon="5.20712">
        <ele>195.4</ele>
        <time>2021-12-31T13:10:50Z</time>
      </trkpt>
      <trkpt lat="46.47907" lon="5.20671">
        <ele>196.2</ele>
        <time>2021-12-31T13:10:55Z</time>
      </trkpt>
      <trkpt lat="46.47905" lon="5.20655">
        <ele>196.8</ele>
        <time>2021-12-31T13:10:57Z</time>
      </trkpt>
      <trkpt lat="46.47904" lon="5.2064">
        <ele>197.8</ele>
        <time>2021-12-31T13:10:59Z</time>
      </trkpt>
      <trkpt lat="46.47899" lon="5.20604">
        <ele>198.6</ele>
        <time>2021-12-31T13:11:04Z</time>
      </trkpt>
      <trkpt lat="46.47898" lon="5.20596">
        <ele>199</ele>
        <time>2021-12-31T13:11:05Z</time>
      </trkpt>
      <trkpt lat="46.47896" lon="5.20575">
        <ele>200.2</ele>
        <time>2021-12-31T13:11:08Z</time>
      </trkpt>
      <trkpt lat="46.47895" lon="5.20554">
        <ele>201</ele>
        <time>2021-12-31T13:11:11Z</time>
      </trkpt>
      <trkpt lat="46.47895" lon="5.20547">
        <ele>201.4</ele>
        <time>2021-12-31T13:11:12Z</time>
      </trkpt>
      <trkpt lat="46.47892" lon="5.20511">
        <ele>202.6</ele>
        <time>2021-12-31T13:11:17Z</time>
      </trkpt>
      <trkpt lat="46.47891" lon="5.20503">
        <ele>202.8</ele>
        <time>2021-12-31T13:11:18Z</time>
      </trkpt>
      <trkpt lat="46.47888" lon="5.20481">
        <ele>203.8</ele>
        <time>2021-12-31T13:11:21Z</time>
      </trkpt>
      <trkpt lat="46.47885" lon="5.20444">
        <ele>204.6</ele>
        <time>2021-12-31T13:11:26Z</time>
      </trkpt>
      <trkpt lat="46.47878" lon="5.20384">
        <ele>205</ele>
        <time>2021-12-31T13:11:33Z</time>
      </trkpt>
      <trkpt lat="46.47877" lon="5.20374">
        <ele>205</ele>
        <time>2021-12-31T13:11:34Z</time>
      </trkpt>
      <trkpt lat="46.47871" lon="5.20316">
        <ele>205</ele>
        <time>2021-12-31T13:11:40Z</time>
      </trkpt>
      <trkpt lat="46.47861" lon="5.20234">
        <ele>204.2</ele>
        <time>2021-12-31T13:11:48Z</time>
      </trkpt>
      <trkpt lat="46.47854" lon="5.2016">
        <ele>204.8</ele>
        <time>2021-12-31T13:11:56Z</time>
      </trkpt>
      <trkpt lat="46.47848" lon="5.20093">
        <ele>205.8</ele>
        <time>2021-12-31T13:12:04Z</time>
      </trkpt>
      <trkpt lat="46.47847" lon="5.20085">
        <ele>206.2</ele>
        <time>2021-12-31T13:12:05Z</time>
      </trkpt>
      <trkpt lat="46.47841" lon="5.20027">
        <ele>207.2</ele>
        <time>2021-12-31T13:12:12Z</time>
      </trkpt>
      <trkpt lat="46.47835" lon="5.19969">
        <ele>207.4</ele>
        <time>2021-12-31T13:12:18Z</time>
      </trkpt>
      <trkpt lat="46.47828" lon="5.19889">
        <ele>206.8</ele>
        <time>2021-12-31T13:12:26Z</time>
      </trkpt>
      <trkpt lat="46.47827" lon="5.19879">
        <ele>206.6</ele>
        <time>2021-12-31T13:12:27Z</time>
      </trkpt>
      <trkpt lat="46.47819" lon="5.19793">
        <ele>206.6</ele>
        <time>2021-12-31T13:12:36Z</time>
      </trkpt>
      <trkpt lat="46.47816" lon="5.19765">
        <ele>206.8</ele>
        <time>2021-12-31T13:12:39Z</time>
      </trkpt>
      <trkpt lat="46.47809" lon="5.1968">
        <ele>206.8</ele>
        <time>2021-12-31T13:12:48Z</time>
      </trkpt>
      <trkpt lat="46.47807" lon="5.19651">
        <ele>206.8</ele>
        <time>2021-12-31T13:12:51Z</time>
      </trkpt>
      <trkpt lat="46.478" lon="5.1957">
        <ele>207</ele>
        <time>2021-12-31T13:13:00Z</time>
      </trkpt>
      <trkpt lat="46.47799" lon="5.19561">
        <ele>207</ele>
        <time>2021-12-31T13:13:01Z</time>
      </trkpt>
      <trkpt lat="46.47795" lon="5.19499">
        <ele>207.4</ele>
        <time>2021-12-31T13:13:08Z</time>
      </trkpt>
      <trkpt lat="46.47787" lon="5.19414">
        <ele>207.6</ele>
        <time>2021-12-31T13:13:17Z</time>
      </trkpt>
      <trkpt lat="46.47779" lon="5.19332">
        <ele>207.6</ele>
        <time>2021-12-31T13:13:25Z</time>
      </trkpt>
      <trkpt lat="46.47777" lon="5.19311">
        <ele>207.6</ele>
        <time>2021-12-31T13:13:27Z</time>
      </trkpt>
      <trkpt lat="46.4777" lon="5.19243">
        <ele>206.8</ele>
        <time>2021-12-31T13:13:33Z</time>
      </trkpt>
      <trkpt lat="46.47767" lon="5.19208">
        <ele>206.2</ele>
        <time>2021-12-31T13:13:36Z</time>
      </trkpt>
      <trkpt lat="46.47762" lon="5.1916">
        <ele>205</ele>
        <time>2021-12-31T13:13:40Z</time>
      </trkpt>
      <trkpt lat="46.47761" lon="5.19145">
        <ele>204.8</ele>
        <time>2021-12-31T13:13:41Z</time>
      </trkpt>
      <trkpt lat="46.47758" lon="5.19119">
        <ele>203.8</ele>
        <time>2021-12-31T13:13:43Z</time>
      </trkpt>
      <trkpt lat="46.47755" lon="5.19079">
        <ele>202.6</ele>
        <time>2021-12-31T13:13:46Z</time>
      </trkpt>
      <trkpt lat="46.47753" lon="5.19052">
        <ele>202</ele>
        <time>2021-12-31T13:13:48Z</time>
      </trkpt>
      <trkpt lat="46.47751" lon="5.19039">
        <ele>201.4</ele>
        <time>2021-12-31T13:13:49Z</time>
      </trkpt>
      <trkpt lat="46.47747" lon="5.18985">
        <ele>200.4</ele>
        <time>2021-12-31T13:13:53Z</time>
      </trkpt>
      <trkpt lat="46.47742" lon="5.18931">
        <ele>199.2</ele>
        <time>2021-12-31T13:13:57Z</time>
      </trkpt>
      <trkpt lat="46.47741" lon="5.18917">
        <ele>198.8</ele>
        <time>2021-12-31T13:13:58Z</time>
      </trkpt>
      <trkpt lat="46.47737" lon="5.18876">
        <ele>198</ele>
        <time>2021-12-31T13:14:01Z</time>
      </trkpt>
      <trkpt lat="46.47732" lon="5.18823">
        <ele>196.8</ele>
        <time>2021-12-31T13:14:05Z</time>
      </trkpt>
      <trkpt lat="46.47729" lon="5.18785">
        <ele>196.2</ele>
        <time>2021-12-31T13:14:08Z</time>
      </trkpt>
      <trkpt lat="46.47728" lon="5.18772">
        <ele>195.8</ele>
        <time>2021-12-31T13:14:09Z</time>
      </trkpt>
      <trkpt lat="46.47722" lon="5.18703">
        <ele>194.6</ele>
        <time>2021-12-31T13:14:15Z</time>
      </trkpt>
      <trkpt lat="46.47721" lon="5.18689">
        <ele>194.6</ele>
        <time>2021-12-31T13:14:16Z</time>
      </trkpt>
      <trkpt lat="46.47714" lon="5.18609">
        <ele>194.4</ele>
        <time>2021-12-31T13:14:23Z</time>
      </trkpt>
      <trkpt lat="46.47712" lon="5.18587">
        <ele>194.4</ele>
        <time>2021-12-31T13:14:25Z</time>
      </trkpt>
      <trkpt lat="46.47705" lon="5.18503">
        <ele>194.2</ele>
        <time>2021-12-31T13:14:33Z</time>
      </trkpt>
      <trkpt lat="46.47704" lon="5.18491">
        <ele>194</ele>
        <time>2021-12-31T13:14:34Z</time>
      </trkpt>
      <trkpt lat="46.47697" lon="5.18408">
        <ele>193.8</ele>
        <time>2021-12-31T13:14:42Z</time>
      </trkpt>
      <trkpt lat="46.47696" lon="5.18399">
        <ele>193.8</ele>
        <time>2021-12-31T13:14:43Z</time>
      </trkpt>
      <trkpt lat="46.47689" lon="5.18321">
        <ele>194.2</ele>
        <time>2021-12-31T13:14:51Z</time>
      </trkpt>
      <trkpt lat="46.47687" lon="5.18294">
        <ele>194.4</ele>
        <time>2021-12-31T13:14:54Z</time>
      </trkpt>
      <trkpt lat="46.47683" lon="5.18233">
        <ele>195.6</ele>
        <time>2021-12-31T13:15:01Z</time>
      </trkpt>
      <trkpt lat="46.47681" lon="5.18215">
        <ele>195.8</ele>
        <time>2021-12-31T13:15:03Z</time>
      </trkpt>
      <trkpt lat="46.47676" lon="5.18154">
        <ele>196.8</ele>
        <time>2021-12-31T13:15:10Z</time>
      </trkpt>
      <trkpt lat="46.47675" lon="5.18146">
        <ele>197</ele>
        <time>2021-12-31T13:15:11Z</time>
      </trkpt>
      <trkpt lat="46.4767" lon="5.1809">
        <ele>198</ele>
        <time>2021-12-31T13:15:18Z</time>
      </trkpt>
      <trkpt lat="46.47668" lon="5.1807">
        <ele>198.6</ele>
        <time>2021-12-31T13:15:21Z</time>
      </trkpt>
      <trkpt lat="46.47667" lon="5.18055">
        <ele>199.4</ele>
        <time>2021-12-31T13:15:23Z</time>
      </trkpt>
      <trkpt lat="46.47667" lon="5.1805">
        <ele>199.6</ele>
        <time>2021-12-31T13:15:24Z</time>
      </trkpt>
      <trkpt lat="46.47667" lon="5.18029">
        <ele>200.4</ele>
        <time>2021-12-31T13:15:27Z</time>
      </trkpt>
      <trkpt lat="46.47664" lon="5.18003">
        <ele>201.4</ele>
        <time>2021-12-31T13:15:31Z</time>
      </trkpt>
      <trkpt lat="46.47664" lon="5.17997">
        <ele>201.8</ele>
        <time>2021-12-31T13:15:32Z</time>
      </trkpt>
      <trkpt lat="46.47661" lon="5.1797">
        <ele>202.6</ele>
        <time>2021-12-31T13:15:36Z</time>
      </trkpt>
      <trkpt lat="46.4766" lon="5.17943">
        <ele>203.4</ele>
        <time>2021-12-31T13:15:40Z</time>
      </trkpt>
      <trkpt lat="46.47659" lon="5.17936">
        <ele>203.8</ele>
        <time>2021-12-31T13:15:41Z</time>
      </trkpt>
      <trkpt lat="46.47656" lon="5.179">
        <ele>204.8</ele>
        <time>2021-12-31T13:15:46Z</time>
      </trkpt>
      <trkpt lat="46.47654" lon="5.17878">
        <ele>205.2</ele>
        <time>2021-12-31T13:15:49Z</time>
      </trkpt>
      <trkpt lat="46.47651" lon="5.17848">
        <ele>206</ele>
        <time>2021-12-31T13:15:53Z</time>
      </trkpt>
      <trkpt lat="46.47645" lon="5.17789">
        <ele>206.6</ele>
        <time>2021-12-31T13:16:00Z</time>
      </trkpt>
      <trkpt lat="46.47638" lon="5.17711">
        <ele>206.2</ele>
        <time>2021-12-31T13:16:08Z</time>
      </trkpt>
      <trkpt lat="46.47633" lon="5.17656">
        <ele>204.8</ele>
        <time>2021-12-31T13:16:13Z</time>
      </trkpt>
      <trkpt lat="46.47631" lon="5.17634">
        <ele>204.6</ele>
        <time>2021-12-31T13:16:15Z</time>
      </trkpt>
      <trkpt lat="46.47625" lon="5.17567">
        <ele>203.8</ele>
        <time>2021-12-31T13:16:21Z</time>
      </trkpt>
      <trkpt lat="46.47623" lon="5.17546">
        <ele>203.6</ele>
        <time>2021-12-31T13:16:23Z</time>
      </trkpt>
      <trkpt lat="46.47615" lon="5.17468">
        <ele>203.4</ele>
        <time>2021-12-31T13:16:31Z</time>
      </trkpt>
      <trkpt lat="46.47608" lon="5.17399">
        <ele>204.8</ele>
        <time>2021-12-31T13:16:39Z</time>
      </trkpt>
      <trkpt lat="46.47608" lon="5.1739">
        <ele>204.8</ele>
        <time>2021-12-31T13:16:40Z</time>
      </trkpt>
      <trkpt lat="46.47604" lon="5.17339">
        <ele>205.6</ele>
        <time>2021-12-31T13:16:46Z</time>
      </trkpt>
      <trkpt lat="46.47602" lon="5.17322">
        <ele>206</ele>
        <time>2021-12-31T13:16:48Z</time>
      </trkpt>
      <trkpt lat="46.47596" lon="5.17257">
        <ele>206.8</ele>
        <time>2021-12-31T13:16:55Z</time>
      </trkpt>
      <trkpt lat="46.47594" lon="5.1724">
        <ele>207</ele>
        <time>2021-12-31T13:16:57Z</time>
      </trkpt>
      <trkpt lat="46.47587" lon="5.17169">
        <ele>207.6</ele>
        <time>2021-12-31T13:17:05Z</time>
      </trkpt>
      <trkpt lat="46.47584" lon="5.17137">
        <ele>208</ele>
        <time>2021-12-31T13:17:09Z</time>
      </trkpt>
      <trkpt lat="46.4758" lon="5.17091">
        <ele>208.6</ele>
        <time>2021-12-31T13:17:14Z</time>
      </trkpt>
      <trkpt lat="46.47575" lon="5.17047">
        <ele>209.2</ele>
        <time>2021-12-31T13:17:19Z</time>
      </trkpt>
      <trkpt lat="46.4757" lon="5.17002">
        <ele>209.6</ele>
        <time>2021-12-31T13:17:24Z</time>
      </trkpt>
      <trkpt lat="46.47562" lon="5.16917">
        <ele>210</ele>
        <time>2021-12-31T13:17:33Z</time>
      </trkpt>
      <trkpt lat="46.47561" lon="5.16907">
        <ele>210.2</ele>
        <time>2021-12-31T13:17:34Z</time>
      </trkpt>
      <trkpt lat="46.4756" lon="5.16897">
        <ele>210.2</ele>
        <time>2021-12-31T13:17:35Z</time>
      </trkpt>
      <trkpt lat="46.47553" lon="5.16819">
        <ele>210.6</ele>
        <time>2021-12-31T13:17:43Z</time>
      </trkpt>
      <trkpt lat="46.4755" lon="5.168">
        <ele>210.6</ele>
        <time>2021-12-31T13:17:45Z</time>
      </trkpt>
      <trkpt lat="46.47545" lon="5.16742">
        <ele>211.2</ele>
        <time>2021-12-31T13:17:51Z</time>
      </trkpt>
      <trkpt lat="46.47542" lon="5.16713">
        <ele>211.2</ele>
        <time>2021-12-31T13:17:54Z</time>
      </trkpt>
      <trkpt lat="46.47534" lon="5.16632">
        <ele>211.4</ele>
        <time>2021-12-31T13:18:02Z</time>
      </trkpt>
      <trkpt lat="46.47533" lon="5.16622">
        <ele>211.4</ele>
        <time>2021-12-31T13:18:03Z</time>
      </trkpt>
      <trkpt lat="46.47525" lon="5.16539">
        <ele>211.6</ele>
        <time>2021-12-31T13:18:11Z</time>
      </trkpt>
      <trkpt lat="46.47523" lon="5.16518">
        <ele>211.4</ele>
        <time>2021-12-31T13:18:13Z</time>
      </trkpt>
      <trkpt lat="46.47515" lon="5.16437">
        <ele>211.2</ele>
        <time>2021-12-31T13:18:21Z</time>
      </trkpt>
      <trkpt lat="46.47511" lon="5.16397">
        <ele>211.2</ele>
        <time>2021-12-31T13:18:25Z</time>
      </trkpt>
      <trkpt lat="46.47502" lon="5.16313">
        <ele>211</ele>
        <time>2021-12-31T13:18:33Z</time>
      </trkpt>
      <trkpt lat="46.475" lon="5.16291">
        <ele>210.8</ele>
        <time>2021-12-31T13:18:35Z</time>
      </trkpt>
      <trkpt lat="46.4749" lon="5.16204">
        <ele>210.2</ele>
        <time>2021-12-31T13:18:43Z</time>
      </trkpt>
      <trkpt lat="46.47488" lon="5.16184">
        <ele>210</ele>
        <time>2021-12-31T13:18:45Z</time>
      </trkpt>
      <trkpt lat="46.47481" lon="5.16117">
        <ele>210.4</ele>
        <time>2021-12-31T13:18:52Z</time>
      </trkpt>
      <trkpt lat="46.47475" lon="5.16054">
        <ele>210.8</ele>
        <time>2021-12-31T13:18:59Z</time>
      </trkpt>
      <trkpt lat="46.47468" lon="5.15992">
        <ele>210.8</ele>
        <time>2021-12-31T13:19:06Z</time>
      </trkpt>
      <trkpt lat="46.47465" lon="5.15977">
        <ele>210.8</ele>
        <time>2021-12-31T13:19:08Z</time>
      </trkpt>
      <trkpt lat="46.47458" lon="5.15967">
        <ele>210.8</ele>
        <time>2021-12-31T13:19:10Z</time>
      </trkpt>
      <trkpt lat="46.47439" lon="5.15967">
        <ele>210.8</ele>
        <time>2021-12-31T13:19:13Z</time>
      </trkpt>
      <trkpt lat="46.47396" lon="5.15964">
        <ele>210.6</ele>
        <time>2021-12-31T13:19:19Z</time>
      </trkpt>
      <trkpt lat="46.47347" lon="5.15949">
        <ele>210.6</ele>
        <time>2021-12-31T13:19:26Z</time>
      </trkpt>
      <trkpt lat="46.47341" lon="5.15946">
        <ele>210.6</ele>
        <time>2021-12-31T13:19:27Z</time>
      </trkpt>
      <trkpt lat="46.47287" lon="5.15921">
        <ele>210.2</ele>
        <time>2021-12-31T13:19:35Z</time>
      </trkpt>
      <trkpt lat="46.47281" lon="5.15917">
        <ele>210.2</ele>
        <time>2021-12-31T13:19:36Z</time>
      </trkpt>
      <trkpt lat="46.47231" lon="5.15903">
        <ele>209.8</ele>
        <time>2021-12-31T13:19:43Z</time>
      </trkpt>
      <trkpt lat="46.47176" lon="5.15905">
        <ele>209.6</ele>
        <time>2021-12-31T13:19:51Z</time>
      </trkpt>
      <trkpt lat="46.47131" lon="5.15909">
        <ele>209.8</ele>
        <time>2021-12-31T13:19:58Z</time>
      </trkpt>
      <trkpt lat="46.47073" lon="5.15912">
        <ele>210</ele>
        <time>2021-12-31T13:20:07Z</time>
      </trkpt>
      <trkpt lat="46.47018" lon="5.15906">
        <ele>209.8</ele>
        <time>2021-12-31T13:20:15Z</time>
      </trkpt>
      <trkpt lat="46.4698" lon="5.15885">
        <ele>209.6</ele>
        <time>2021-12-31T13:20:21Z</time>
      </trkpt>
      <trkpt lat="46.46933" lon="5.15847">
        <ele>209.6</ele>
        <time>2021-12-31T13:20:29Z</time>
      </trkpt>
      <trkpt lat="46.46921" lon="5.15838">
        <ele>209.8</ele>
        <time>2021-12-31T13:20:31Z</time>
      </trkpt>
      <trkpt lat="46.46873" lon="5.158">
        <ele>210</ele>
        <time>2021-12-31T13:20:39Z</time>
      </trkpt>
      <trkpt lat="46.46855" lon="5.15785">
        <ele>210</ele>
        <time>2021-12-31T13:20:42Z</time>
      </trkpt>
      <trkpt lat="46.46807" lon="5.15748">
        <ele>209.2</ele>
        <time>2021-12-31T13:20:50Z</time>
      </trkpt>
      <trkpt lat="46.46775" lon="5.15725">
        <ele>209</ele>
        <time>2021-12-31T13:20:55Z</time>
      </trkpt>
      <trkpt lat="46.46744" lon="5.15701">
        <ele>208.8</ele>
        <time>2021-12-31T13:21:00Z</time>
      </trkpt>
      <trkpt lat="46.46711" lon="5.15676">
        <ele>208.4</ele>
        <time>2021-12-31T13:21:05Z</time>
      </trkpt>
      <trkpt lat="46.46663" lon="5.1564">
        <ele>207.8</ele>
        <time>2021-12-31T13:21:12Z</time>
      </trkpt>
      <trkpt lat="46.46649" lon="5.15631">
        <ele>207.6</ele>
        <time>2021-12-31T13:21:14Z</time>
      </trkpt>
      <trkpt lat="46.46612" lon="5.15612">
        <ele>206.8</ele>
        <time>2021-12-31T13:21:19Z</time>
      </trkpt>
      <trkpt lat="46.46597" lon="5.15607">
        <ele>206.6</ele>
        <time>2021-12-31T13:21:21Z</time>
      </trkpt>
      <trkpt lat="46.46551" lon="5.15594">
        <ele>205.8</ele>
        <time>2021-12-31T13:21:27Z</time>
      </trkpt>
      <trkpt lat="46.46529" lon="5.15587">
        <ele>205.2</ele>
        <time>2021-12-31T13:21:30Z</time>
      </trkpt>
      <trkpt lat="46.46507" lon="5.1558">
        <ele>204.8</ele>
        <time>2021-12-31T13:21:33Z</time>
      </trkpt>
      <trkpt lat="46.46453" lon="5.15563">
        <ele>204</ele>
        <time>2021-12-31T13:21:40Z</time>
      </trkpt>
      <trkpt lat="46.46446" lon="5.15561">
        <ele>204</ele>
        <time>2021-12-31T13:21:41Z</time>
      </trkpt>
      <trkpt lat="46.46415" lon="5.1555">
        <ele>203.8</ele>
        <time>2021-12-31T13:21:45Z</time>
      </trkpt>
      <trkpt lat="46.46385" lon="5.1554">
        <ele>203.4</ele>
        <time>2021-12-31T13:21:49Z</time>
      </trkpt>
      <trkpt lat="46.46327" lon="5.15518">
        <ele>202.8</ele>
        <time>2021-12-31T13:21:57Z</time>
      </trkpt>
      <trkpt lat="46.46305" lon="5.1551">
        <ele>202.8</ele>
        <time>2021-12-31T13:22:00Z</time>
      </trkpt>
      <trkpt lat="46.46284" lon="5.15501">
        <ele>202.6</ele>
        <time>2021-12-31T13:22:03Z</time>
      </trkpt>
      <trkpt lat="46.46227" lon="5.15478">
        <ele>202.4</ele>
        <time>2021-12-31T13:22:11Z</time>
      </trkpt>
      <trkpt lat="46.4622" lon="5.15476">
        <ele>202.4</ele>
        <time>2021-12-31T13:22:12Z</time>
      </trkpt>
      <trkpt lat="46.46168" lon="5.15455">
        <ele>201.6</ele>
        <time>2021-12-31T13:22:19Z</time>
      </trkpt>
      <trkpt lat="46.46138" lon="5.15442">
        <ele>201.2</ele>
        <time>2021-12-31T13:22:23Z</time>
      </trkpt>
      <trkpt lat="46.46103" lon="5.15418">
        <ele>200.6</ele>
        <time>2021-12-31T13:22:28Z</time>
      </trkpt>
      <trkpt lat="46.46096" lon="5.15413">
        <ele>200.6</ele>
        <time>2021-12-31T13:22:29Z</time>
      </trkpt>
      <trkpt lat="46.46055" lon="5.15371">
        <ele>199.8</ele>
        <time>2021-12-31T13:22:36Z</time>
      </trkpt>
      <trkpt lat="46.46028" lon="5.15335">
        <ele>200</ele>
        <time>2021-12-31T13:22:42Z</time>
      </trkpt>
      <trkpt lat="46.46009" lon="5.15306">
        <ele>200.8</ele>
        <time>2021-12-31T13:22:48Z</time>
      </trkpt>
      <trkpt lat="46.46004" lon="5.15297">
        <ele>201.4</ele>
        <time>2021-12-31T13:22:51Z</time>
      </trkpt>
      <trkpt lat="46.46004" lon="5.15295">
        <ele>201.4</ele>
        <time>2021-12-31T13:22:52Z</time>
      </trkpt>
      <trkpt lat="46.46003" lon="5.15294">
        <ele>201.6</ele>
        <time>2021-12-31T13:22:53Z</time>
      </trkpt>
      <trkpt lat="46.46" lon="5.15298">
        <ele>202</ele>
        <time>2021-12-31T13:22:55Z</time>
      </trkpt>
      <trkpt lat="46.45994" lon="5.15325">
        <ele>202.4</ele>
        <time>2021-12-31T13:22:59Z</time>
      </trkpt>
      <trkpt lat="46.45992" lon="5.15334">
        <ele>202.4</ele>
        <time>2021-12-31T13:23:00Z</time>
      </trkpt>
      <trkpt lat="46.45987" lon="5.15363">
        <ele>202.4</ele>
        <time>2021-12-31T13:23:03Z</time>
      </trkpt>
      <trkpt lat="46.45972" lon="5.15447">
        <ele>200.4</ele>
        <time>2021-12-31T13:23:11Z</time>
      </trkpt>
      <trkpt lat="46.45958" lon="5.1553">
        <ele>199.8</ele>
        <time>2021-12-31T13:23:19Z</time>
      </trkpt>
      <trkpt lat="46.45945" lon="5.15607">
        <ele>200</ele>
        <time>2021-12-31T13:23:27Z</time>
      </trkpt>
      <trkpt lat="46.45937" lon="5.15647">
        <ele>200.4</ele>
        <time>2021-12-31T13:23:32Z</time>
      </trkpt>
      <trkpt lat="46.45931" lon="5.15684">
        <ele>201.6</ele>
        <time>2021-12-31T13:23:37Z</time>
      </trkpt>
      <trkpt lat="46.45928" lon="5.15707">
        <ele>202.6</ele>
        <time>2021-12-31T13:23:40Z</time>
      </trkpt>
      <trkpt lat="46.45927" lon="5.15714">
        <ele>203</ele>
        <time>2021-12-31T13:23:41Z</time>
      </trkpt>
      <trkpt lat="46.45924" lon="5.15735">
        <ele>204</ele>
        <time>2021-12-31T13:23:44Z</time>
      </trkpt>
      <trkpt lat="46.45922" lon="5.1575">
        <ele>204.6</ele>
        <time>2021-12-31T13:23:46Z</time>
      </trkpt>
      <trkpt lat="46.45919" lon="5.15765">
        <ele>205.4</ele>
        <time>2021-12-31T13:23:48Z</time>
      </trkpt>
      <trkpt lat="46.45912" lon="5.15809">
        <ele>206.4</ele>
        <time>2021-12-31T13:23:54Z</time>
      </trkpt>
      <trkpt lat="46.4591" lon="5.15824">
        <ele>207.2</ele>
        <time>2021-12-31T13:23:56Z</time>
      </trkpt>
      <trkpt lat="46.45907" lon="5.15838">
        <ele>207.6</ele>
        <time>2021-12-31T13:23:58Z</time>
      </trkpt>
      <trkpt lat="46.45898" lon="5.1589">
        <ele>208.2</ele>
        <time>2021-12-31T13:24:05Z</time>
      </trkpt>
      <trkpt lat="46.45897" lon="5.15898">
        <ele>208.4</ele>
        <time>2021-12-31T13:24:06Z</time>
      </trkpt>
      <trkpt lat="46.45889" lon="5.1596">
        <ele>209.4</ele>
        <time>2021-12-31T13:24:14Z</time>
      </trkpt>
      <trkpt lat="46.45878" lon="5.16038">
        <ele>209.4</ele>
        <time>2021-12-31T13:24:23Z</time>
      </trkpt>
      <trkpt lat="46.45877" lon="5.16047">
        <ele>209.4</ele>
        <time>2021-12-31T13:24:24Z</time>
      </trkpt>
      <trkpt lat="46.45874" lon="5.16066">
        <ele>209.6</ele>
        <time>2021-12-31T13:24:26Z</time>
      </trkpt>
      <trkpt lat="46.45864" lon="5.16128">
        <ele>210</ele>
        <time>2021-12-31T13:24:33Z</time>
      </trkpt>
      <trkpt lat="46.45852" lon="5.16193">
        <ele>210.6</ele>
        <time>2021-12-31T13:24:41Z</time>
      </trkpt>
      <trkpt lat="46.45841" lon="5.16261">
        <ele>211</ele>
        <time>2021-12-31T13:24:49Z</time>
      </trkpt>
      <trkpt lat="46.4583" lon="5.16322">
        <ele>211</ele>
        <time>2021-12-31T13:24:56Z</time>
      </trkpt>
      <trkpt lat="46.45819" lon="5.16389">
        <ele>211</ele>
        <time>2021-12-31T13:25:03Z</time>
      </trkpt>
      <trkpt lat="46.45805" lon="5.16473">
        <ele>211</ele>
        <time>2021-12-31T13:25:12Z</time>
      </trkpt>
      <trkpt lat="46.45794" lon="5.16527">
        <ele>211.6</ele>
        <time>2021-12-31T13:25:18Z</time>
      </trkpt>
      <trkpt lat="46.45787" lon="5.16562">
        <ele>212</ele>
        <time>2021-12-31T13:25:22Z</time>
      </trkpt>
      <trkpt lat="46.45783" lon="5.1658">
        <ele>212.2</ele>
        <time>2021-12-31T13:25:24Z</time>
      </trkpt>
      <trkpt lat="46.4577" lon="5.16635">
        <ele>212.2</ele>
        <time>2021-12-31T13:25:30Z</time>
      </trkpt>
      <trkpt lat="46.45753" lon="5.16717">
        <ele>212.2</ele>
        <time>2021-12-31T13:25:39Z</time>
      </trkpt>
      <trkpt lat="46.45735" lon="5.16797">
        <ele>211.8</ele>
        <time>2021-12-31T13:25:47Z</time>
      </trkpt>
      <trkpt lat="46.45732" lon="5.16807">
        <ele>211.8</ele>
        <time>2021-12-31T13:25:48Z</time>
      </trkpt>
      <trkpt lat="46.45717" lon="5.16874">
        <ele>210.6</ele>
        <time>2021-12-31T13:25:54Z</time>
      </trkpt>
      <trkpt lat="46.45715" lon="5.16885">
        <ele>210.4</ele>
        <time>2021-12-31T13:25:55Z</time>
      </trkpt>
      <trkpt lat="46.457" lon="5.16955">
        <ele>209.4</ele>
        <time>2021-12-31T13:26:01Z</time>
      </trkpt>
      <trkpt lat="46.45694" lon="5.16978">
        <ele>208.8</ele>
        <time>2021-12-31T13:26:03Z</time>
      </trkpt>
      <trkpt lat="46.45692" lon="5.1699">
        <ele>208.4</ele>
        <time>2021-12-31T13:26:04Z</time>
      </trkpt>
      <trkpt lat="46.45676" lon="5.17066">
        <ele>207.4</ele>
        <time>2021-12-31T13:26:11Z</time>
      </trkpt>
      <trkpt lat="46.45673" lon="5.17075">
        <ele>207</ele>
        <time>2021-12-31T13:26:12Z</time>
      </trkpt>
      <trkpt lat="46.45659" lon="5.17143">
        <ele>206.4</ele>
        <time>2021-12-31T13:26:19Z</time>
      </trkpt>
      <trkpt lat="46.45656" lon="5.17152">
        <ele>206.4</ele>
        <time>2021-12-31T13:26:20Z</time>
      </trkpt>
      <trkpt lat="46.45642" lon="5.17217">
        <ele>207</ele>
        <time>2021-12-31T13:26:27Z</time>
      </trkpt>
      <trkpt lat="46.45629" lon="5.17272">
        <ele>207.6</ele>
        <time>2021-12-31T13:26:33Z</time>
      </trkpt>
      <trkpt lat="46.45626" lon="5.17292">
        <ele>207.6</ele>
        <time>2021-12-31T13:26:35Z</time>
      </trkpt>
      <trkpt lat="46.45612" lon="5.17352">
        <ele>207.8</ele>
        <time>2021-12-31T13:26:41Z</time>
      </trkpt>
      <trkpt lat="46.45597" lon="5.17433">
        <ele>208.2</ele>
        <time>2021-12-31T13:26:49Z</time>
      </trkpt>
      <trkpt lat="46.45595" lon="5.17443">
        <ele>208.2</ele>
        <time>2021-12-31T13:26:50Z</time>
      </trkpt>
      <trkpt lat="46.45577" lon="5.17526">
        <ele>208.2</ele>
        <time>2021-12-31T13:26:58Z</time>
      </trkpt>
      <trkpt lat="46.45572" lon="5.17548">
        <ele>208</ele>
        <time>2021-12-31T13:27:00Z</time>
      </trkpt>
      <trkpt lat="46.45553" lon="5.17628">
        <ele>206.8</ele>
        <time>2021-12-31T13:27:07Z</time>
      </trkpt>
      <trkpt lat="46.45545" lon="5.17664">
        <ele>206.2</ele>
        <time>2021-12-31T13:27:10Z</time>
      </trkpt>
      <trkpt lat="46.45532" lon="5.17721">
        <ele>205</ele>
        <time>2021-12-31T13:27:15Z</time>
      </trkpt>
      <trkpt lat="46.45525" lon="5.17755">
        <ele>204.8</ele>
        <time>2021-12-31T13:27:18Z</time>
      </trkpt>
      <trkpt lat="46.45509" lon="5.17828">
        <ele>204.8</ele>
        <time>2021-12-31T13:27:25Z</time>
      </trkpt>
      <trkpt lat="46.45495" lon="5.17892">
        <ele>205.2</ele>
        <time>2021-12-31T13:27:32Z</time>
      </trkpt>
      <trkpt lat="46.45478" lon="5.17975">
        <ele>206</ele>
        <time>2021-12-31T13:27:41Z</time>
      </trkpt>
      <trkpt lat="46.45473" lon="5.17995">
        <ele>206</ele>
        <time>2021-12-31T13:27:43Z</time>
      </trkpt>
      <trkpt lat="46.45455" lon="5.18081">
        <ele>205.4</ele>
        <time>2021-12-31T13:27:51Z</time>
      </trkpt>
      <trkpt lat="46.45452" lon="5.18092">
        <ele>205</ele>
        <time>2021-12-31T13:27:52Z</time>
      </trkpt>
      <trkpt lat="46.45439" lon="5.18154">
        <ele>203.8</ele>
        <time>2021-12-31T13:27:57Z</time>
      </trkpt>
      <trkpt lat="46.4543" lon="5.18193">
        <ele>202.6</ele>
        <time>2021-12-31T13:28:00Z</time>
      </trkpt>
      <trkpt lat="46.45422" lon="5.18232">
        <ele>201.4</ele>
        <time>2021-12-31T13:28:03Z</time>
      </trkpt>
      <trkpt lat="46.45416" lon="5.18258">
        <ele>200.4</ele>
        <time>2021-12-31T13:28:05Z</time>
      </trkpt>
      <trkpt lat="46.45414" lon="5.1827">
        <ele>200.2</ele>
        <time>2021-12-31T13:28:06Z</time>
      </trkpt>
      <trkpt lat="46.45408" lon="5.18295">
        <ele>199.2</ele>
        <time>2021-12-31T13:28:08Z</time>
      </trkpt>
      <trkpt lat="46.45395" lon="5.18352">
        <ele>198.8</ele>
        <time>2021-12-31T13:28:13Z</time>
      </trkpt>
      <trkpt lat="46.4538" lon="5.18422">
        <ele>199.2</ele>
        <time>2021-12-31T13:28:20Z</time>
      </trkpt>
      <trkpt lat="46.4537" lon="5.18474">
        <ele>200.4</ele>
        <time>2021-12-31T13:28:26Z</time>
      </trkpt>
      <trkpt lat="46.45369" lon="5.18482">
        <ele>200.6</ele>
        <time>2021-12-31T13:28:27Z</time>
      </trkpt>
      <trkpt lat="46.45358" lon="5.18541">
        <ele>201.4</ele>
        <time>2021-12-31T13:28:34Z</time>
      </trkpt>
      <trkpt lat="46.45356" lon="5.18549">
        <ele>201.6</ele>
        <time>2021-12-31T13:28:35Z</time>
      </trkpt>
      <trkpt lat="46.4534" lon="5.18619">
        <ele>202</ele>
        <time>2021-12-31T13:28:43Z</time>
      </trkpt>
      <trkpt lat="46.45317" lon="5.18695">
        <ele>201.8</ele>
        <time>2021-12-31T13:28:51Z</time>
      </trkpt>
      <trkpt lat="46.45294" lon="5.18771">
        <ele>200.4</ele>
        <time>2021-12-31T13:28:58Z</time>
      </trkpt>
      <trkpt lat="46.45278" lon="5.18825">
        <ele>199.4</ele>
        <time>2021-12-31T13:29:02Z</time>
      </trkpt>
      <trkpt lat="46.4527" lon="5.18856">
        <ele>199</ele>
        <time>2021-12-31T13:29:06Z</time>
      </trkpt>
      <trkpt lat="46.45255" lon="5.18907">
        <ele>199.2</ele>
        <time>2021-12-31T13:29:11Z</time>
      </trkpt>
      <trkpt lat="46.45244" lon="5.18944">
        <ele>200.6</ele>
        <time>2021-12-31T13:29:17Z</time>
      </trkpt>
      <trkpt lat="46.45239" lon="5.18959">
        <ele>200.8</ele>
        <time>2021-12-31T13:29:18Z</time>
      </trkpt>
      <trkpt lat="46.45237" lon="5.18966">
        <ele>201.6</ele>
        <time>2021-12-31T13:29:20Z</time>
      </trkpt>
      <trkpt lat="46.45226" lon="5.19009">
        <ele>202.6</ele>
        <time>2021-12-31T13:29:25Z</time>
      </trkpt>
      <trkpt lat="46.45219" lon="5.19029">
        <ele>203.6</ele>
        <time>2021-12-31T13:29:28Z</time>
      </trkpt>
      <trkpt lat="46.4521" lon="5.19058">
        <ele>204.8</ele>
        <time>2021-12-31T13:29:33Z</time>
      </trkpt>
      <trkpt lat="46.45199" lon="5.19103">
        <ele>206</ele>
        <time>2021-12-31T13:29:38Z</time>
      </trkpt>
      <trkpt lat="46.45195" lon="5.19117">
        <ele>206.4</ele>
        <time>2021-12-31T13:29:40Z</time>
      </trkpt>
      <trkpt lat="46.45188" lon="5.19139">
        <ele>207.2</ele>
        <time>2021-12-31T13:29:43Z</time>
      </trkpt>
      <trkpt lat="46.45178" lon="5.19175">
        <ele>208</ele>
        <time>2021-12-31T13:29:49Z</time>
      </trkpt>
      <trkpt lat="46.45169" lon="5.19206">
        <ele>208.2</ele>
        <time>2021-12-31T13:29:53Z</time>
      </trkpt>
      <trkpt lat="46.45155" lon="5.19253">
        <ele>208.2</ele>
        <time>2021-12-31T13:29:58Z</time>
      </trkpt>
      <trkpt lat="46.45133" lon="5.19325">
        <ele>208.2</ele>
        <time>2021-12-31T13:30:06Z</time>
      </trkpt>
      <trkpt lat="46.4513" lon="5.19335">
        <ele>208</ele>
        <time>2021-12-31T13:30:07Z</time>
      </trkpt>
      <trkpt lat="46.45107" lon="5.19408">
        <ele>207</ele>
        <time>2021-12-31T13:30:14Z</time>
      </trkpt>
      <trkpt lat="46.45104" lon="5.19419">
        <ele>206.8</ele>
        <time>2021-12-31T13:30:15Z</time>
      </trkpt>
      <trkpt lat="46.45089" lon="5.19467">
        <ele>205.8</ele>
        <time>2021-12-31T13:30:19Z</time>
      </trkpt>
      <trkpt lat="46.45078" lon="5.19504">
        <ele>204.6</ele>
        <time>2021-12-31T13:30:22Z</time>
      </trkpt>
      <trkpt lat="46.45067" lon="5.19541">
        <ele>203.2</ele>
        <time>2021-12-31T13:30:25Z</time>
      </trkpt>
      <trkpt lat="46.45055" lon="5.19577">
        <ele>202</ele>
        <time>2021-12-31T13:30:28Z</time>
      </trkpt>
      <trkpt lat="46.45048" lon="5.19599">
        <ele>201.6</ele>
        <time>2021-12-31T13:30:30Z</time>
      </trkpt>
      <trkpt lat="46.45035" lon="5.19643">
        <ele>200.8</ele>
        <time>2021-12-31T13:30:35Z</time>
      </trkpt>
      <trkpt lat="46.45026" lon="5.19673">
        <ele>200.8</ele>
        <time>2021-12-31T13:30:37Z</time>
      </trkpt>
      <trkpt lat="46.45002" lon="5.19751">
        <ele>200.8</ele>
        <time>2021-12-31T13:30:45Z</time>
      </trkpt>
      <trkpt lat="46.44999" lon="5.19761">
        <ele>200.8</ele>
        <time>2021-12-31T13:30:46Z</time>
      </trkpt>
      <trkpt lat="46.44976" lon="5.19837">
        <ele>201.2</ele>
        <time>2021-12-31T13:30:54Z</time>
      </trkpt>
      <trkpt lat="46.44967" lon="5.19866">
        <ele>201.2</ele>
        <time>2021-12-31T13:30:57Z</time>
      </trkpt>
      <trkpt lat="46.44943" lon="5.19943">
        <ele>200.6</ele>
        <time>2021-12-31T13:31:05Z</time>
      </trkpt>
      <trkpt lat="46.44934" lon="5.1997">
        <ele>200.8</ele>
        <time>2021-12-31T13:31:08Z</time>
      </trkpt>
      <trkpt lat="46.44914" lon="5.20037">
        <ele>201</ele>
        <time>2021-12-31T13:31:16Z</time>
      </trkpt>
      <trkpt lat="46.44896" lon="5.20095">
        <ele>202</ele>
        <time>2021-12-31T13:31:24Z</time>
      </trkpt>
      <trkpt lat="46.44894" lon="5.20102">
        <ele>202.4</ele>
        <time>2021-12-31T13:31:25Z</time>
      </trkpt>
      <trkpt lat="46.44882" lon="5.20137">
        <ele>203.2</ele>
        <time>2021-12-31T13:31:31Z</time>
      </trkpt>
      <trkpt lat="46.44872" lon="5.20168">
        <ele>204.2</ele>
        <time>2021-12-31T13:31:35Z</time>
      </trkpt>
      <trkpt lat="46.44863" lon="5.20194">
        <ele>205.2</ele>
        <time>2021-12-31T13:31:39Z</time>
      </trkpt>
      <trkpt lat="46.44846" lon="5.20247">
        <ele>206.4</ele>
        <time>2021-12-31T13:31:47Z</time>
      </trkpt>
      <trkpt lat="46.44844" lon="5.20254">
        <ele>206.6</ele>
        <time>2021-12-31T13:31:48Z</time>
      </trkpt>
      <trkpt lat="46.44826" lon="5.20304">
        <ele>207.6</ele>
        <time>2021-12-31T13:31:55Z</time>
      </trkpt>
      <trkpt lat="46.44818" lon="5.20328">
        <ele>207.8</ele>
        <time>2021-12-31T13:31:59Z</time>
      </trkpt>
      <trkpt lat="46.448" lon="5.20382">
        <ele>207.2</ele>
        <time>2021-12-31T13:32:04Z</time>
      </trkpt>
      <trkpt lat="46.44786" lon="5.20424">
        <ele>206.2</ele>
        <time>2021-12-31T13:32:08Z</time>
      </trkpt>
      <trkpt lat="46.44775" lon="5.20459">
        <ele>205.4</ele>
        <time>2021-12-31T13:32:11Z</time>
      </trkpt>
      <trkpt lat="46.44771" lon="5.20471">
        <ele>205.2</ele>
        <time>2021-12-31T13:32:12Z</time>
      </trkpt>
      <trkpt lat="46.44771" lon="5.20471">
        <ele>204.2</ele>
        <time>2021-12-31T13:32:13Z</time>
      </trkpt>
      <trkpt lat="46.44754" lon="5.20519">
        <ele>203.2</ele>
        <time>2021-12-31T13:32:16Z</time>
      </trkpt>
      <trkpt lat="46.44742" lon="5.20557">
        <ele>201.2</ele>
        <time>2021-12-31T13:32:19Z</time>
      </trkpt>
      <trkpt lat="46.44738" lon="5.20569">
        <ele>200.8</ele>
        <time>2021-12-31T13:32:20Z</time>
      </trkpt>
      <trkpt lat="46.4473" lon="5.20595">
        <ele>200</ele>
        <time>2021-12-31T13:32:22Z</time>
      </trkpt>
      <trkpt lat="46.44716" lon="5.20643">
        <ele>198.6</ele>
        <time>2021-12-31T13:32:26Z</time>
      </trkpt>
      <trkpt lat="46.44711" lon="5.20666">
        <ele>198</ele>
        <time>2021-12-31T13:32:28Z</time>
      </trkpt>
      <trkpt lat="46.44702" lon="5.20727">
        <ele>198.2</ele>
        <time>2021-12-31T13:32:34Z</time>
      </trkpt>
      <trkpt lat="46.44699" lon="5.20774">
        <ele>199.4</ele>
        <time>2021-12-31T13:32:40Z</time>
      </trkpt>
      <trkpt lat="46.44699" lon="5.20789">
        <ele>199.8</ele>
        <time>2021-12-31T13:32:42Z</time>
      </trkpt>
      <trkpt lat="46.44698" lon="5.20816">
        <ele>201</ele>
        <time>2021-12-31T13:32:46Z</time>
      </trkpt>
      <trkpt lat="46.44697" lon="5.2083">
        <ele>201.8</ele>
        <time>2021-12-31T13:32:48Z</time>
      </trkpt>
      <trkpt lat="46.44697" lon="5.20837">
        <ele>202.2</ele>
        <time>2021-12-31T13:32:49Z</time>
      </trkpt>
      <trkpt lat="46.44696" lon="5.20856">
        <ele>203.2</ele>
        <time>2021-12-31T13:32:52Z</time>
      </trkpt>
      <trkpt lat="46.44695" lon="5.20887">
        <ele>204.4</ele>
        <time>2021-12-31T13:32:57Z</time>
      </trkpt>
      <trkpt lat="46.44694" lon="5.20899">
        <ele>205</ele>
        <time>2021-12-31T13:32:59Z</time>
      </trkpt>
      <trkpt lat="46.44694" lon="5.20911">
        <ele>205.6</ele>
        <time>2021-12-31T13:33:01Z</time>
      </trkpt>
      <trkpt lat="46.44693" lon="5.20934">
        <ele>206.6</ele>
        <time>2021-12-31T13:33:05Z</time>
      </trkpt>
      <trkpt lat="46.44692" lon="5.20952">
        <ele>207.4</ele>
        <time>2021-12-31T13:33:08Z</time>
      </trkpt>
      <trkpt lat="46.44691" lon="5.20958">
        <ele>207.8</ele>
        <time>2021-12-31T13:33:09Z</time>
      </trkpt>
      <trkpt lat="46.4469" lon="5.20998">
        <ele>209.2</ele>
        <time>2021-12-31T13:33:15Z</time>
      </trkpt>
      <trkpt lat="46.44688" lon="5.2104">
        <ele>210.2</ele>
        <time>2021-12-31T13:33:21Z</time>
      </trkpt>
      <trkpt lat="46.44687" lon="5.21048">
        <ele>210.6</ele>
        <time>2021-12-31T13:33:22Z</time>
      </trkpt>
      <trkpt lat="46.44686" lon="5.21112">
        <ele>210.8</ele>
        <time>2021-12-31T13:33:29Z</time>
      </trkpt>
      <trkpt lat="46.44684" lon="5.21186">
        <ele>210</ele>
        <time>2021-12-31T13:33:36Z</time>
      </trkpt>
      <trkpt lat="46.44682" lon="5.21238">
        <ele>208.8</ele>
        <time>2021-12-31T13:33:40Z</time>
      </trkpt>
      <trkpt lat="46.44681" lon="5.21278">
        <ele>207.8</ele>
        <time>2021-12-31T13:33:43Z</time>
      </trkpt>
      <trkpt lat="46.44681" lon="5.21292">
        <ele>207.4</ele>
        <time>2021-12-31T13:33:44Z</time>
      </trkpt>
      <trkpt lat="46.4468" lon="5.21334">
        <ele>205.6</ele>
        <time>2021-12-31T13:33:47Z</time>
      </trkpt>
      <trkpt lat="46.44679" lon="5.21363">
        <ele>204.6</ele>
        <time>2021-12-31T13:33:49Z</time>
      </trkpt>
      <trkpt lat="46.44678" lon="5.21406">
        <ele>203.4</ele>
        <time>2021-12-31T13:33:52Z</time>
      </trkpt>
      <trkpt lat="46.44677" lon="5.21435">
        <ele>201.8</ele>
        <time>2021-12-31T13:33:54Z</time>
      </trkpt>
      <trkpt lat="46.44676" lon="5.21464">
        <ele>200.4</ele>
        <time>2021-12-31T13:33:56Z</time>
      </trkpt>
      <trkpt lat="46.44675" lon="5.21505">
        <ele>199.2</ele>
        <time>2021-12-31T13:33:59Z</time>
      </trkpt>
      <trkpt lat="46.44673" lon="5.21558">
        <ele>198.2</ele>
        <time>2021-12-31T13:34:03Z</time>
      </trkpt>
      <trkpt lat="46.44672" lon="5.21607">
        <ele>197.6</ele>
        <time>2021-12-31T13:34:07Z</time>
      </trkpt>
      <trkpt lat="46.44671" lon="5.21672">
        <ele>197.6</ele>
        <time>2021-12-31T13:34:13Z</time>
      </trkpt>
      <trkpt lat="46.44669" lon="5.21725">
        <ele>198.8</ele>
        <time>2021-12-31T13:34:19Z</time>
      </trkpt>
      <trkpt lat="46.44668" lon="5.21741">
        <ele>199.4</ele>
        <time>2021-12-31T13:34:21Z</time>
      </trkpt>
      <trkpt lat="46.44667" lon="5.21756">
        <ele>200</ele>
        <time>2021-12-31T13:34:23Z</time>
      </trkpt>
      <trkpt lat="46.44667" lon="5.21772">
        <ele>200.4</ele>
        <time>2021-12-31T13:34:25Z</time>
      </trkpt>
      <trkpt lat="46.44667" lon="5.21779">
        <ele>200.8</ele>
        <time>2021-12-31T13:34:26Z</time>
      </trkpt>
      <trkpt lat="46.44667" lon="5.21807">
        <ele>202</ele>
        <time>2021-12-31T13:34:30Z</time>
      </trkpt>
      <trkpt lat="46.44667" lon="5.21828">
        <ele>203.2</ele>
        <time>2021-12-31T13:34:33Z</time>
      </trkpt>
      <trkpt lat="46.44666" lon="5.21856">
        <ele>204.4</ele>
        <time>2021-12-31T13:34:37Z</time>
      </trkpt>
      <trkpt lat="46.44665" lon="5.21883">
        <ele>205.4</ele>
        <time>2021-12-31T13:34:41Z</time>
      </trkpt>
      <trkpt lat="46.44664" lon="5.21916">
        <ele>206.6</ele>
        <time>2021-12-31T13:34:46Z</time>
      </trkpt>
      <trkpt lat="46.44663" lon="5.21936">
        <ele>207.6</ele>
        <time>2021-12-31T13:34:49Z</time>
      </trkpt>
      <trkpt lat="46.44663" lon="5.21943">
        <ele>207.6</ele>
        <time>2021-12-31T13:34:50Z</time>
      </trkpt>
      <trkpt lat="46.44662" lon="5.2195">
        <ele>207.8</ele>
        <time>2021-12-31T13:34:51Z</time>
      </trkpt>
      <trkpt lat="46.44661" lon="5.21971">
        <ele>208</ele>
        <time>2021-12-31T13:34:54Z</time>
      </trkpt>
      <trkpt lat="46.44661" lon="5.21977">
        <ele>208</ele>
        <time>2021-12-31T13:34:55Z</time>
      </trkpt>
      <trkpt lat="46.44661" lon="5.21998">
        <ele>208.8</ele>
        <time>2021-12-31T13:34:58Z</time>
      </trkpt>
      <trkpt lat="46.44659" lon="5.22041">
        <ele>209.2</ele>
        <time>2021-12-31T13:35:04Z</time>
      </trkpt>
      <trkpt lat="46.44658" lon="5.22092">
        <ele>209.6</ele>
        <time>2021-12-31T13:35:10Z</time>
      </trkpt>
      <trkpt lat="46.44659" lon="5.22154">
        <ele>209</ele>
        <time>2021-12-31T13:35:16Z</time>
      </trkpt>
      <trkpt lat="46.4466" lon="5.22239">
        <ele>207.4</ele>
        <time>2021-12-31T13:35:23Z</time>
      </trkpt>
      <trkpt lat="46.44661" lon="5.22287">
        <ele>206.4</ele>
        <time>2021-12-31T13:35:27Z</time>
      </trkpt>
      <trkpt lat="46.44662" lon="5.22364">
        <ele>205.8</ele>
        <time>2021-12-31T13:35:34Z</time>
      </trkpt>
      <trkpt lat="46.44662" lon="5.22419">
        <ele>206.2</ele>
        <time>2021-12-31T13:35:40Z</time>
      </trkpt>
      <trkpt lat="46.44663" lon="5.22465">
        <ele>207.8</ele>
        <time>2021-12-31T13:35:46Z</time>
      </trkpt>
      <trkpt lat="46.44664" lon="5.2248">
        <ele>208.2</ele>
        <time>2021-12-31T13:35:48Z</time>
      </trkpt>
      <trkpt lat="46.44665" lon="5.2251">
        <ele>208.8</ele>
        <time>2021-12-31T13:35:52Z</time>
      </trkpt>
      <trkpt lat="46.44666" lon="5.22542">
        <ele>209.8</ele>
        <time>2021-12-31T13:35:57Z</time>
      </trkpt>
      <trkpt lat="46.44667" lon="5.22558">
        <ele>209.8</ele>
        <time>2021-12-31T13:35:58Z</time>
      </trkpt>
      <trkpt lat="46.44669" lon="5.22608">
        <ele>211</ele>
        <time>2021-12-31T13:36:04Z</time>
      </trkpt>
      <trkpt lat="46.4467" lon="5.22644">
        <ele>211.4</ele>
        <time>2021-12-31T13:36:08Z</time>
      </trkpt>
      <trkpt lat="46.44674" lon="5.22727">
        <ele>211.4</ele>
        <time>2021-12-31T13:36:17Z</time>
      </trkpt>
      <trkpt lat="46.44675" lon="5.22746">
        <ele>211.4</ele>
        <time>2021-12-31T13:36:19Z</time>
      </trkpt>
      <trkpt lat="46.44679" lon="5.22827">
        <ele>211.6</ele>
        <time>2021-12-31T13:36:28Z</time>
      </trkpt>
      <trkpt lat="46.4468" lon="5.22854">
        <ele>211.6</ele>
        <time>2021-12-31T13:36:31Z</time>
      </trkpt>
      <trkpt lat="46.44681" lon="5.22937">
        <ele>211.2</ele>
        <time>2021-12-31T13:36:39Z</time>
      </trkpt>
      <trkpt lat="46.44682" lon="5.22987">
        <ele>209.8</ele>
        <time>2021-12-31T13:36:43Z</time>
      </trkpt>
      <trkpt lat="46.44683" lon="5.23027">
        <ele>208.4</ele>
        <time>2021-12-31T13:36:46Z</time>
      </trkpt>
      <trkpt lat="46.44683" lon="5.23069">
        <ele>207.4</ele>
        <time>2021-12-31T13:36:49Z</time>
      </trkpt>
      <trkpt lat="46.44683" lon="5.23113">
        <ele>206</ele>
        <time>2021-12-31T13:36:52Z</time>
      </trkpt>
      <trkpt lat="46.44683" lon="5.23113">
        <ele>205.8</ele>
        <time>2021-12-31T13:36:53Z</time>
      </trkpt>
      <trkpt lat="46.44681" lon="5.23158">
        <ele>204</ele>
        <time>2021-12-31T13:36:55Z</time>
      </trkpt>
      <trkpt lat="46.44677" lon="5.23204">
        <ele>202.8</ele>
        <time>2021-12-31T13:36:58Z</time>
      </trkpt>
      <trkpt lat="46.44669" lon="5.23251">
        <ele>201</ele>
        <time>2021-12-31T13:37:01Z</time>
      </trkpt>
      <trkpt lat="46.44665" lon="5.23264">
        <ele>199.6</ele>
        <time>2021-12-31T13:37:02Z</time>
      </trkpt>
      <trkpt lat="46.44656" lon="5.23288">
        <ele>198.4</ele>
        <time>2021-12-31T13:37:04Z</time>
      </trkpt>
      <trkpt lat="46.44654" lon="5.23301">
        <ele>198</ele>
        <time>2021-12-31T13:37:05Z</time>
      </trkpt>
      <trkpt lat="46.44654" lon="5.23313">
        <ele>197.4</ele>
        <time>2021-12-31T13:37:06Z</time>
      </trkpt>
      <trkpt lat="46.44656" lon="5.23336">
        <ele>196.4</ele>
        <time>2021-12-31T13:37:08Z</time>
      </trkpt>
      <trkpt lat="46.44654" lon="5.23348">
        <ele>196.2</ele>
        <time>2021-12-31T13:37:09Z</time>
      </trkpt>
      <trkpt lat="46.44652" lon="5.23359">
        <ele>195.8</ele>
        <time>2021-12-31T13:37:10Z</time>
      </trkpt>
      <trkpt lat="46.44648" lon="5.23369">
        <ele>195.6</ele>
        <time>2021-12-31T13:37:11Z</time>
      </trkpt>
      <trkpt lat="46.44639" lon="5.23391">
        <ele>195.2</ele>
        <time>2021-12-31T13:37:13Z</time>
      </trkpt>
      <trkpt lat="46.44618" lon="5.23435">
        <ele>194.4</ele>
        <time>2021-12-31T13:37:17Z</time>
      </trkpt>
      <trkpt lat="46.44612" lon="5.23446">
        <ele>194</ele>
        <time>2021-12-31T13:37:18Z</time>
      </trkpt>
      <trkpt lat="46.44596" lon="5.23481">
        <ele>192.8</ele>
        <time>2021-12-31T13:37:21Z</time>
      </trkpt>
      <trkpt lat="46.44581" lon="5.23516">
        <ele>191.6</ele>
        <time>2021-12-31T13:37:24Z</time>
      </trkpt>
      <trkpt lat="46.44571" lon="5.23538">
        <ele>190.4</ele>
        <time>2021-12-31T13:37:26Z</time>
      </trkpt>
      <trkpt lat="46.44556" lon="5.23571">
        <ele>189.2</ele>
        <time>2021-12-31T13:37:29Z</time>
      </trkpt>
      <trkpt lat="46.44536" lon="5.23613">
        <ele>188.4</ele>
        <time>2021-12-31T13:37:33Z</time>
      </trkpt>
      <trkpt lat="46.44532" lon="5.23623">
        <ele>188</ele>
        <time>2021-12-31T13:37:34Z</time>
      </trkpt>
      <trkpt lat="46.44508" lon="5.23686">
        <ele>187.2</ele>
        <time>2021-12-31T13:37:40Z</time>
      </trkpt>
      <trkpt lat="46.44502" lon="5.23707">
        <ele>187</ele>
        <time>2021-12-31T13:37:42Z</time>
      </trkpt>
      <trkpt lat="46.44495" lon="5.2374">
        <ele>186.6</ele>
        <time>2021-12-31T13:37:46Z</time>
      </trkpt>
      <trkpt lat="46.44484" lon="5.23818">
        <ele>186.6</ele>
        <time>2021-12-31T13:37:52Z</time>
      </trkpt>
      <trkpt lat="46.44467" lon="5.23902">
        <ele>186.2</ele>
        <time>2021-12-31T13:38:00Z</time>
      </trkpt>
      <trkpt lat="46.44445" lon="5.2398">
        <ele>186.4</ele>
        <time>2021-12-31T13:38:08Z</time>
      </trkpt>
      <trkpt lat="46.44425" lon="5.24034">
        <ele>186.2</ele>
        <time>2021-12-31T13:38:14Z</time>
      </trkpt>
      <trkpt lat="46.44421" lon="5.24042">
        <ele>186.2</ele>
        <time>2021-12-31T13:38:15Z</time>
      </trkpt>
      <trkpt lat="46.44391" lon="5.24109">
        <ele>186.8</ele>
        <time>2021-12-31T13:38:24Z</time>
      </trkpt>
      <trkpt lat="46.44388" lon="5.24116">
        <ele>186.8</ele>
        <time>2021-12-31T13:38:25Z</time>
      </trkpt>
      <trkpt lat="46.4438" lon="5.24135">
        <ele>186.8</ele>
        <time>2021-12-31T13:38:28Z</time>
      </trkpt>
      <trkpt lat="46.44379" lon="5.24141">
        <ele>186.8</ele>
        <time>2021-12-31T13:38:29Z</time>
      </trkpt>
      <trkpt lat="46.44377" lon="5.24153">
        <ele>186.4</ele>
        <time>2021-12-31T13:38:33Z</time>
      </trkpt>
      <trkpt lat="46.44377" lon="5.24155">
        <ele>186.4</ele>
        <time>2021-12-31T13:38:37Z</time>
      </trkpt>
      <trkpt lat="46.44374" lon="5.24154">
        <ele>185.6</ele>
        <time>2021-12-31T13:40:04Z</time>
      </trkpt>
      <trkpt lat="46.44365" lon="5.24165">
        <ele>185.6</ele>
        <time>2021-12-31T13:40:10Z</time>
      </trkpt>
      <trkpt lat="46.44353" lon="5.24192">
        <ele>185.6</ele>
        <time>2021-12-31T13:40:15Z</time>
      </trkpt>
      <trkpt lat="46.44341" lon="5.24235">
        <ele>186</ele>
        <time>2021-12-31T13:40:22Z</time>
      </trkpt>
      <trkpt lat="46.44338" lon="5.2425">
        <ele>186.2</ele>
        <time>2021-12-31T13:40:23Z</time>
      </trkpt>
      <trkpt lat="46.44332" lon="5.2428">
        <ele>186.6</ele>
        <time>2021-12-31T13:40:27Z</time>
      </trkpt>
      <trkpt lat="46.44327" lon="5.2431">
        <ele>186.8</ele>
        <time>2021-12-31T13:40:31Z</time>
      </trkpt>
      <trkpt lat="46.44317" lon="5.24377">
        <ele>187.4</ele>
        <time>2021-12-31T13:40:40Z</time>
      </trkpt>
      <trkpt lat="46.4431" lon="5.24412">
        <ele>187.6</ele>
        <time>2021-12-31T13:40:45Z</time>
      </trkpt>
      <trkpt lat="46.44303" lon="5.24445">
        <ele>188.2</ele>
        <time>2021-12-31T13:40:50Z</time>
      </trkpt>
      <trkpt lat="46.44299" lon="5.24463">
        <ele>188.8</ele>
        <time>2021-12-31T13:40:53Z</time>
      </trkpt>
      <trkpt lat="46.44289" lon="5.24497">
        <ele>190</ele>
        <time>2021-12-31T13:40:59Z</time>
      </trkpt>
      <trkpt lat="46.44281" lon="5.24523">
        <ele>191</ele>
        <time>2021-12-31T13:41:04Z</time>
      </trkpt>
      <trkpt lat="46.44277" lon="5.24538">
        <ele>192.2</ele>
        <time>2021-12-31T13:41:07Z</time>
      </trkpt>
      <trkpt lat="46.44275" lon="5.24543">
        <ele>192.2</ele>
        <time>2021-12-31T13:41:08Z</time>
      </trkpt>
      <trkpt lat="46.44271" lon="5.24558">
        <ele>193.2</ele>
        <time>2021-12-31T13:41:11Z</time>
      </trkpt>
      <trkpt lat="46.44264" lon="5.24581">
        <ele>194.4</ele>
        <time>2021-12-31T13:41:16Z</time>
      </trkpt>
      <trkpt lat="46.44256" lon="5.24605">
        <ele>195.6</ele>
        <time>2021-12-31T13:41:21Z</time>
      </trkpt>
      <trkpt lat="46.44252" lon="5.2462">
        <ele>196.6</ele>
        <time>2021-12-31T13:41:24Z</time>
      </trkpt>
      <trkpt lat="46.44247" lon="5.24638">
        <ele>197.6</ele>
        <time>2021-12-31T13:41:28Z</time>
      </trkpt>
      <trkpt lat="46.44246" lon="5.24643">
        <ele>197.8</ele>
        <time>2021-12-31T13:41:29Z</time>
      </trkpt>
      <trkpt lat="46.44242" lon="5.24663">
        <ele>198.8</ele>
        <time>2021-12-31T13:41:33Z</time>
      </trkpt>
      <trkpt lat="46.44239" lon="5.24677">
        <ele>199.6</ele>
        <time>2021-12-31T13:41:36Z</time>
      </trkpt>
      <trkpt lat="46.44238" lon="5.24687">
        <ele>200.2</ele>
        <time>2021-12-31T13:41:38Z</time>
      </trkpt>
      <trkpt lat="46.44234" lon="5.24711">
        <ele>201</ele>
        <time>2021-12-31T13:41:43Z</time>
      </trkpt>
      <trkpt lat="46.44233" lon="5.24716">
        <ele>201.2</ele>
        <time>2021-12-31T13:41:44Z</time>
      </trkpt>
      <trkpt lat="46.4423" lon="5.24742">
        <ele>202.2</ele>
        <time>2021-12-31T13:41:49Z</time>
      </trkpt>
      <trkpt lat="46.44229" lon="5.24758">
        <ele>203</ele>
        <time>2021-12-31T13:41:52Z</time>
      </trkpt>
      <trkpt lat="46.44228" lon="5.24774">
        <ele>203.4</ele>
        <time>2021-12-31T13:41:55Z</time>
      </trkpt>
      <trkpt lat="46.44227" lon="5.24803">
        <ele>204.2</ele>
        <time>2021-12-31T13:42:00Z</time>
      </trkpt>
      <trkpt lat="46.44227" lon="5.24809">
        <ele>204.6</ele>
        <time>2021-12-31T13:42:01Z</time>
      </trkpt>
      <trkpt lat="46.44228" lon="5.24849">
        <ele>205.4</ele>
        <time>2021-12-31T13:42:08Z</time>
      </trkpt>
      <trkpt lat="46.44229" lon="5.24868">
        <ele>205.8</ele>
        <time>2021-12-31T13:42:11Z</time>
      </trkpt>
      <trkpt lat="46.44236" lon="5.24923">
        <ele>206.6</ele>
        <time>2021-12-31T13:42:19Z</time>
      </trkpt>
      <trkpt lat="46.44237" lon="5.2493">
        <ele>206.6</ele>
        <time>2021-12-31T13:42:20Z</time>
      </trkpt>
      <trkpt lat="46.4425" lon="5.24997">
        <ele>207</ele>
        <time>2021-12-31T13:42:29Z</time>
      </trkpt>
      <trkpt lat="46.44263" lon="5.25066">
        <ele>207</ele>
        <time>2021-12-31T13:42:38Z</time>
      </trkpt>
      <trkpt lat="46.44274" lon="5.25127">
        <ele>207.6</ele>
        <time>2021-12-31T13:42:46Z</time>
      </trkpt>
      <trkpt lat="46.44278" lon="5.25149">
        <ele>208</ele>
        <time>2021-12-31T13:42:49Z</time>
      </trkpt>
      <trkpt lat="46.44283" lon="5.25185">
        <ele>208.6</ele>
        <time>2021-12-31T13:42:54Z</time>
      </trkpt>
      <trkpt lat="46.44285" lon="5.25213">
        <ele>209.2</ele>
        <time>2021-12-31T13:42:58Z</time>
      </trkpt>
      <trkpt lat="46.44286" lon="5.25227">
        <ele>209.8</ele>
        <time>2021-12-31T13:43:00Z</time>
      </trkpt>
      <trkpt lat="46.44287" lon="5.25262">
        <ele>210.6</ele>
        <time>2021-12-31T13:43:05Z</time>
      </trkpt>
      <trkpt lat="46.44285" lon="5.25307">
        <ele>211.6</ele>
        <time>2021-12-31T13:43:11Z</time>
      </trkpt>
      <trkpt lat="46.44284" lon="5.25323">
        <ele>212</ele>
        <time>2021-12-31T13:43:13Z</time>
      </trkpt>
      <trkpt lat="46.44279" lon="5.25379">
        <ele>212.2</ele>
        <time>2021-12-31T13:43:19Z</time>
      </trkpt>
      <trkpt lat="46.44272" lon="5.25448">
        <ele>211.2</ele>
        <time>2021-12-31T13:43:25Z</time>
      </trkpt>
      <trkpt lat="46.44267" lon="5.25488">
        <ele>210.2</ele>
        <time>2021-12-31T13:43:28Z</time>
      </trkpt>
      <trkpt lat="46.44264" lon="5.25516">
        <ele>209</ele>
        <time>2021-12-31T13:43:30Z</time>
      </trkpt>
      <trkpt lat="46.44262" lon="5.25531">
        <ele>208.4</ele>
        <time>2021-12-31T13:43:31Z</time>
      </trkpt>
      <trkpt lat="46.44258" lon="5.2556">
        <ele>207.4</ele>
        <time>2021-12-31T13:43:33Z</time>
      </trkpt>
      <trkpt lat="46.44254" lon="5.25602">
        <ele>206.2</ele>
        <time>2021-12-31T13:43:36Z</time>
      </trkpt>
      <trkpt lat="46.44251" lon="5.25629">
        <ele>205</ele>
        <time>2021-12-31T13:43:38Z</time>
      </trkpt>
      <trkpt lat="46.44246" lon="5.25667">
        <ele>203.8</ele>
        <time>2021-12-31T13:43:41Z</time>
      </trkpt>
      <trkpt lat="46.44244" lon="5.25692">
        <ele>203.6</ele>
        <time>2021-12-31T13:43:43Z</time>
      </trkpt>
      <trkpt lat="46.44234" lon="5.25771">
        <ele>203.4</ele>
        <time>2021-12-31T13:43:50Z</time>
      </trkpt>
      <trkpt lat="46.44227" lon="5.25826">
        <ele>204.2</ele>
        <time>2021-12-31T13:43:56Z</time>
      </trkpt>
      <trkpt lat="46.44225" lon="5.25842">
        <ele>204.4</ele>
        <time>2021-12-31T13:43:58Z</time>
      </trkpt>
      <trkpt lat="46.44222" lon="5.25872">
        <ele>205</ele>
        <time>2021-12-31T13:44:02Z</time>
      </trkpt>
      <trkpt lat="46.44216" lon="5.25908">
        <ele>206.2</ele>
        <time>2021-12-31T13:44:07Z</time>
      </trkpt>
      <trkpt lat="46.44209" lon="5.25942">
        <ele>207.4</ele>
        <time>2021-12-31T13:44:12Z</time>
      </trkpt>
      <trkpt lat="46.44205" lon="5.25967">
        <ele>208.6</ele>
        <time>2021-12-31T13:44:16Z</time>
      </trkpt>
      <trkpt lat="46.442" lon="5.25991">
        <ele>209.4</ele>
        <time>2021-12-31T13:44:20Z</time>
      </trkpt>
      <trkpt lat="46.44198" lon="5.25997">
        <ele>209.8</ele>
        <time>2021-12-31T13:44:21Z</time>
      </trkpt>
      <trkpt lat="46.44189" lon="5.26027">
        <ele>210.8</ele>
        <time>2021-12-31T13:44:26Z</time>
      </trkpt>
      <trkpt lat="46.4418" lon="5.26052">
        <ele>211.8</ele>
        <time>2021-12-31T13:44:30Z</time>
      </trkpt>
      <trkpt lat="46.44178" lon="5.26059">
        <ele>212</ele>
        <time>2021-12-31T13:44:31Z</time>
      </trkpt>
      <trkpt lat="46.44162" lon="5.26094">
        <ele>213</ele>
        <time>2021-12-31T13:44:37Z</time>
      </trkpt>
      <trkpt lat="46.44156" lon="5.26107">
        <ele>213.2</ele>
        <time>2021-12-31T13:44:39Z</time>
      </trkpt>
      <trkpt lat="46.44133" lon="5.2616">
        <ele>213.4</ele>
        <time>2021-12-31T13:44:47Z</time>
      </trkpt>
      <trkpt lat="46.44113" lon="5.26205">
        <ele>213</ele>
        <time>2021-12-31T13:44:53Z</time>
      </trkpt>
      <trkpt lat="46.44111" lon="5.2622">
        <ele>212.2</ele>
        <time>2021-12-31T13:44:55Z</time>
      </trkpt>
      <trkpt lat="46.44113" lon="5.26227">
        <ele>212</ele>
        <time>2021-12-31T13:44:56Z</time>
      </trkpt>
      <trkpt lat="46.44116" lon="5.26233">
        <ele>211.8</ele>
        <time>2021-12-31T13:44:57Z</time>
      </trkpt>
      <trkpt lat="46.44126" lon="5.26242">
        <ele>211.2</ele>
        <time>2021-12-31T13:44:59Z</time>
      </trkpt>
      <trkpt lat="46.44137" lon="5.26246">
        <ele>210.6</ele>
        <time>2021-12-31T13:45:01Z</time>
      </trkpt>
      <trkpt lat="46.44158" lon="5.26255">
        <ele>210.2</ele>
        <time>2021-12-31T13:45:05Z</time>
      </trkpt>
      <trkpt lat="46.44163" lon="5.26256">
        <ele>210.4</ele>
        <time>2021-12-31T13:45:06Z</time>
      </trkpt>
      <trkpt lat="46.44202" lon="5.2626">
        <ele>211.6</ele>
        <time>2021-12-31T13:45:13Z</time>
      </trkpt>
      <trkpt lat="46.44208" lon="5.26261">
        <ele>211.8</ele>
        <time>2021-12-31T13:45:14Z</time>
      </trkpt>
      <trkpt lat="46.44248" lon="5.26263">
        <ele>212.8</ele>
        <time>2021-12-31T13:45:21Z</time>
      </trkpt>
      <trkpt lat="46.44254" lon="5.26264">
        <ele>213</ele>
        <time>2021-12-31T13:45:22Z</time>
      </trkpt>
      <trkpt lat="46.44283" lon="5.26266">
        <ele>213.6</ele>
        <time>2021-12-31T13:45:27Z</time>
      </trkpt>
      <trkpt lat="46.44301" lon="5.26272">
        <ele>213.6</ele>
        <time>2021-12-31T13:45:30Z</time>
      </trkpt>
      <trkpt lat="46.44307" lon="5.26275">
        <ele>213.8</ele>
        <time>2021-12-31T13:45:31Z</time>
      </trkpt>
      <trkpt lat="46.44312" lon="5.26279">
        <ele>213.8</ele>
        <time>2021-12-31T13:45:32Z</time>
      </trkpt>
      <trkpt lat="46.44329" lon="5.2629">
        <ele>214</ele>
        <time>2021-12-31T13:45:35Z</time>
      </trkpt>
      <trkpt lat="46.44335" lon="5.26293">
        <ele>214</ele>
        <time>2021-12-31T13:45:36Z</time>
      </trkpt>
      <trkpt lat="46.44353" lon="5.26297">
        <ele>214</ele>
        <time>2021-12-31T13:45:39Z</time>
      </trkpt>
      <trkpt lat="46.44365" lon="5.26299">
        <ele>214</ele>
        <time>2021-12-31T13:45:41Z</time>
      </trkpt>
      <trkpt lat="46.44376" lon="5.26303">
        <ele>214</ele>
        <time>2021-12-31T13:45:43Z</time>
      </trkpt>
      <trkpt lat="46.44387" lon="5.26311">
        <ele>214.2</ele>
        <time>2021-12-31T13:45:45Z</time>
      </trkpt>
      <trkpt lat="46.44401" lon="5.26321">
        <ele>214</ele>
        <time>2021-12-31T13:45:48Z</time>
      </trkpt>
      <trkpt lat="46.44407" lon="5.26334">
        <ele>214</ele>
        <time>2021-12-31T13:45:50Z</time>
      </trkpt>
      <trkpt lat="46.44412" lon="5.2634">
        <ele>214</ele>
        <time>2021-12-31T13:45:51Z</time>
      </trkpt>
      <trkpt lat="46.44422" lon="5.26353">
        <ele>214</ele>
        <time>2021-12-31T13:45:53Z</time>
      </trkpt>
      <trkpt lat="46.44427" lon="5.26357">
        <ele>214</ele>
        <time>2021-12-31T13:45:54Z</time>
      </trkpt>
      <trkpt lat="46.44446" lon="5.26363">
        <ele>214</ele>
        <time>2021-12-31T13:45:57Z</time>
      </trkpt>
      <trkpt lat="46.44452" lon="5.26364">
        <ele>214</ele>
        <time>2021-12-31T13:45:58Z</time>
      </trkpt>
      <trkpt lat="46.44491" lon="5.26371">
        <ele>214.2</ele>
        <time>2021-12-31T13:46:04Z</time>
      </trkpt>
      <trkpt lat="46.44503" lon="5.26375">
        <ele>214.2</ele>
        <time>2021-12-31T13:46:06Z</time>
      </trkpt>
      <trkpt lat="46.44509" lon="5.26377">
        <ele>214.2</ele>
        <time>2021-12-31T13:46:07Z</time>
      </trkpt>
      <trkpt lat="46.44517" lon="5.26387">
        <ele>214.2</ele>
        <time>2021-12-31T13:46:09Z</time>
      </trkpt>
      <trkpt lat="46.44518" lon="5.26404">
        <ele>214.2</ele>
        <time>2021-12-31T13:46:11Z</time>
      </trkpt>
      <trkpt lat="46.4451" lon="5.26423">
        <ele>214.2</ele>
        <time>2021-12-31T13:46:14Z</time>
      </trkpt>
      <trkpt lat="46.44506" lon="5.2643">
        <ele>214.2</ele>
        <time>2021-12-31T13:46:15Z</time>
      </trkpt>
      <trkpt lat="46.44503" lon="5.26437">
        <ele>214.2</ele>
        <time>2021-12-31T13:46:16Z</time>
      </trkpt>
      <trkpt lat="46.44498" lon="5.26453">
        <ele>214.2</ele>
        <time>2021-12-31T13:46:18Z</time>
      </trkpt>
      <trkpt lat="46.44497" lon="5.26461">
        <ele>214.2</ele>
        <time>2021-12-31T13:46:19Z</time>
      </trkpt>
      <trkpt lat="46.44496" lon="5.2647">
        <ele>214.2</ele>
        <time>2021-12-31T13:46:20Z</time>
      </trkpt>
      <trkpt lat="46.44498" lon="5.26487">
        <ele>214.2</ele>
        <time>2021-12-31T13:46:22Z</time>
      </trkpt>
      <trkpt lat="46.445" lon="5.26495">
        <ele>214.2</ele>
        <time>2021-12-31T13:46:23Z</time>
      </trkpt>
      <trkpt lat="46.44503" lon="5.26503">
        <ele>214.4</ele>
        <time>2021-12-31T13:46:24Z</time>
      </trkpt>
      <trkpt lat="46.44511" lon="5.26517">
        <ele>214.4</ele>
        <time>2021-12-31T13:46:26Z</time>
      </trkpt>
      <trkpt lat="46.44516" lon="5.26523">
        <ele>214.4</ele>
        <time>2021-12-31T13:46:27Z</time>
      </trkpt>
      <trkpt lat="46.44526" lon="5.26535">
        <ele>214.4</ele>
        <time>2021-12-31T13:46:29Z</time>
      </trkpt>
      <trkpt lat="46.44534" lon="5.2655">
        <ele>214.4</ele>
        <time>2021-12-31T13:46:31Z</time>
      </trkpt>
      <trkpt lat="46.44537" lon="5.26558">
        <ele>214</ele>
        <time>2021-12-31T13:46:32Z</time>
      </trkpt>
      <trkpt lat="46.44554" lon="5.26611">
        <ele>213.6</ele>
        <time>2021-12-31T13:46:38Z</time>
      </trkpt>
      <trkpt lat="46.44561" lon="5.26627">
        <ele>213.2</ele>
        <time>2021-12-31T13:46:40Z</time>
      </trkpt>
      <trkpt lat="46.44572" lon="5.26639">
        <ele>213</ele>
        <time>2021-12-31T13:46:42Z</time>
      </trkpt>
      <trkpt lat="46.44591" lon="5.26651">
        <ele>212.4</ele>
        <time>2021-12-31T13:46:45Z</time>
      </trkpt>
      <trkpt lat="46.44606" lon="5.2666">
        <ele>212</ele>
        <time>2021-12-31T13:46:47Z</time>
      </trkpt>
      <trkpt lat="46.44622" lon="5.26669">
        <ele>211.4</ele>
        <time>2021-12-31T13:46:49Z</time>
      </trkpt>
      <trkpt lat="46.44645" lon="5.26686">
        <ele>210.2</ele>
        <time>2021-12-31T13:46:52Z</time>
      </trkpt>
      <trkpt lat="46.44653" lon="5.26691">
        <ele>210</ele>
        <time>2021-12-31T13:46:53Z</time>
      </trkpt>
      <trkpt lat="46.44668" lon="5.267">
        <ele>209</ele>
        <time>2021-12-31T13:46:55Z</time>
      </trkpt>
      <trkpt lat="46.44683" lon="5.26705">
        <ele>208.4</ele>
        <time>2021-12-31T13:46:57Z</time>
      </trkpt>
      <trkpt lat="46.44698" lon="5.26707">
        <ele>208</ele>
        <time>2021-12-31T13:46:59Z</time>
      </trkpt>
      <trkpt lat="46.44704" lon="5.26707">
        <ele>208</ele>
        <time>2021-12-31T13:47:00Z</time>
      </trkpt>
      <trkpt lat="46.44717" lon="5.26705">
        <ele>208</ele>
        <time>2021-12-31T13:47:02Z</time>
      </trkpt>
      <trkpt lat="46.44749" lon="5.26693">
        <ele>208.2</ele>
        <time>2021-12-31T13:47:08Z</time>
      </trkpt>
      <trkpt lat="46.44768" lon="5.26683">
        <ele>209.4</ele>
        <time>2021-12-31T13:47:12Z</time>
      </trkpt>
      <trkpt lat="46.44776" lon="5.26676">
        <ele>210.2</ele>
        <time>2021-12-31T13:47:14Z</time>
      </trkpt>
      <trkpt lat="46.4478" lon="5.26672">
        <ele>210.6</ele>
        <time>2021-12-31T13:47:15Z</time>
      </trkpt>
      <trkpt lat="46.44788" lon="5.26666">
        <ele>211</ele>
        <time>2021-12-31T13:47:17Z</time>
      </trkpt>
      <trkpt lat="46.44797" lon="5.26662">
        <ele>211.4</ele>
        <time>2021-12-31T13:47:19Z</time>
      </trkpt>
      <trkpt lat="46.44802" lon="5.26661">
        <ele>211.8</ele>
        <time>2021-12-31T13:47:20Z</time>
      </trkpt>
      <trkpt lat="46.44818" lon="5.26657">
        <ele>212.4</ele>
        <time>2021-12-31T13:47:23Z</time>
      </trkpt>
      <trkpt lat="46.44828" lon="5.2665">
        <ele>212.6</ele>
        <time>2021-12-31T13:47:25Z</time>
      </trkpt>
      <trkpt lat="46.44835" lon="5.26637">
        <ele>212.6</ele>
        <time>2021-12-31T13:47:27Z</time>
      </trkpt>
      <trkpt lat="46.44838" lon="5.26629">
        <ele>212.6</ele>
        <time>2021-12-31T13:47:28Z</time>
      </trkpt>
      <trkpt lat="46.44844" lon="5.26604">
        <ele>212.6</ele>
        <time>2021-12-31T13:47:31Z</time>
      </trkpt>
      <trkpt lat="46.44848" lon="5.26595">
        <ele>212.6</ele>
        <time>2021-12-31T13:47:32Z</time>
      </trkpt>
      <trkpt lat="46.44853" lon="5.26587">
        <ele>212.6</ele>
        <time>2021-12-31T13:47:33Z</time>
      </trkpt>
      <trkpt lat="46.44864" lon="5.26571">
        <ele>212.4</ele>
        <time>2021-12-31T13:47:35Z</time>
      </trkpt>
      <trkpt lat="46.44871" lon="5.26564">
        <ele>212</ele>
        <time>2021-12-31T13:47:36Z</time>
      </trkpt>
      <trkpt lat="46.44877" lon="5.26558">
        <ele>211.8</ele>
        <time>2021-12-31T13:47:37Z</time>
      </trkpt>
      <trkpt lat="46.44884" lon="5.26552">
        <ele>211.4</ele>
        <time>2021-12-31T13:47:38Z</time>
      </trkpt>
      <trkpt lat="46.44899" lon="5.26544">
        <ele>211</ele>
        <time>2021-12-31T13:47:40Z</time>
      </trkpt>
      <trkpt lat="46.44922" lon="5.26534">
        <ele>210.4</ele>
        <time>2021-12-31T13:47:43Z</time>
      </trkpt>
      <trkpt lat="46.44959" lon="5.26518">
        <ele>209.6</ele>
        <time>2021-12-31T13:47:48Z</time>
      </trkpt>
      <trkpt lat="46.44966" lon="5.26516">
        <ele>209.4</ele>
        <time>2021-12-31T13:47:49Z</time>
      </trkpt>
      <trkpt lat="46.44986" lon="5.26514">
        <ele>209.2</ele>
        <time>2021-12-31T13:47:52Z</time>
      </trkpt>
      <trkpt lat="46.45039" lon="5.26515">
        <ele>210</ele>
        <time>2021-12-31T13:48:00Z</time>
      </trkpt>
      <trkpt lat="46.45058" lon="5.26516">
        <ele>210.6</ele>
        <time>2021-12-31T13:48:03Z</time>
      </trkpt>
      <trkpt lat="46.45089" lon="5.26519">
        <ele>211</ele>
        <time>2021-12-31T13:48:08Z</time>
      </trkpt>
      <trkpt lat="46.45133" lon="5.26533">
        <ele>211.2</ele>
        <time>2021-12-31T13:48:15Z</time>
      </trkpt>
      <trkpt lat="46.45179" lon="5.26551">
        <ele>211</ele>
        <time>2021-12-31T13:48:22Z</time>
      </trkpt>
      <trkpt lat="46.4522" lon="5.2656">
        <ele>210.8</ele>
        <time>2021-12-31T13:48:28Z</time>
      </trkpt>
      <trkpt lat="46.45275" lon="5.26552">
        <ele>210.6</ele>
        <time>2021-12-31T13:48:36Z</time>
      </trkpt>
      <trkpt lat="46.45317" lon="5.26548">
        <ele>211</ele>
        <time>2021-12-31T13:48:42Z</time>
      </trkpt>
      <trkpt lat="46.45331" lon="5.2655">
        <ele>211</ele>
        <time>2021-12-31T13:48:44Z</time>
      </trkpt>
      <trkpt lat="46.45372" lon="5.26562">
        <ele>210.8</ele>
        <time>2021-12-31T13:48:50Z</time>
      </trkpt>
      <trkpt lat="46.45426" lon="5.26588">
        <ele>210.8</ele>
        <time>2021-12-31T13:48:58Z</time>
      </trkpt>
      <trkpt lat="46.4547" lon="5.26612">
        <ele>210.8</ele>
        <time>2021-12-31T13:49:04Z</time>
      </trkpt>
      <trkpt lat="46.45516" lon="5.26632">
        <ele>209.4</ele>
        <time>2021-12-31T13:49:10Z</time>
      </trkpt>
      <trkpt lat="46.45526" lon="5.26636">
        <ele>209.2</ele>
        <time>2021-12-31T13:49:11Z</time>
      </trkpt>
      <trkpt lat="46.45551" lon="5.26645">
        <ele>208.6</ele>
        <time>2021-12-31T13:49:14Z</time>
      </trkpt>
      <trkpt lat="46.45559" lon="5.26647">
        <ele>208.4</ele>
        <time>2021-12-31T13:49:15Z</time>
      </trkpt>
      <trkpt lat="46.45566" lon="5.26648">
        <ele>208.2</ele>
        <time>2021-12-31T13:49:16Z</time>
      </trkpt>
      <trkpt lat="46.45576" lon="5.26647">
        <ele>208.2</ele>
        <time>2021-12-31T13:49:17Z</time>
      </trkpt>
      <trkpt lat="46.45593" lon="5.26644">
        <ele>207.4</ele>
        <time>2021-12-31T13:49:19Z</time>
      </trkpt>
      <trkpt lat="46.45599" lon="5.26642">
        <ele>207.2</ele>
        <time>2021-12-31T13:49:20Z</time>
      </trkpt>
      <trkpt lat="46.45638" lon="5.26627">
        <ele>206.6</ele>
        <time>2021-12-31T13:49:25Z</time>
      </trkpt>
      <trkpt lat="46.45646" lon="5.26621">
        <ele>206.6</ele>
        <time>2021-12-31T13:49:26Z</time>
      </trkpt>
      <trkpt lat="46.45652" lon="5.26615">
        <ele>206.6</ele>
        <time>2021-12-31T13:49:27Z</time>
      </trkpt>
      <trkpt lat="46.45666" lon="5.26593">
        <ele>206.6</ele>
        <time>2021-12-31T13:49:30Z</time>
      </trkpt>
      <trkpt lat="46.45685" lon="5.26552">
        <ele>207.8</ele>
        <time>2021-12-31T13:49:36Z</time>
      </trkpt>
      <trkpt lat="46.45689" lon="5.26529">
        <ele>208.6</ele>
        <time>2021-12-31T13:49:39Z</time>
      </trkpt>
      <trkpt lat="46.45692" lon="5.26514">
        <ele>209.2</ele>
        <time>2021-12-31T13:49:41Z</time>
      </trkpt>
      <trkpt lat="46.45699" lon="5.26474">
        <ele>209.8</ele>
        <time>2021-12-31T13:49:46Z</time>
      </trkpt>
      <trkpt lat="46.45704" lon="5.26432">
        <ele>210.8</ele>
        <time>2021-12-31T13:49:51Z</time>
      </trkpt>
      <trkpt lat="46.45717" lon="5.26354">
        <ele>211.6</ele>
        <time>2021-12-31T13:50:00Z</time>
      </trkpt>
      <trkpt lat="46.45719" lon="5.26345">
        <ele>211.6</ele>
        <time>2021-12-31T13:50:01Z</time>
      </trkpt>
      <trkpt lat="46.45731" lon="5.26295">
        <ele>212</ele>
        <time>2021-12-31T13:50:07Z</time>
      </trkpt>
      <trkpt lat="46.45739" lon="5.26261">
        <ele>212</ele>
        <time>2021-12-31T13:50:11Z</time>
      </trkpt>
      <trkpt lat="46.4576" lon="5.26185">
        <ele>212.4</ele>
        <time>2021-12-31T13:50:20Z</time>
      </trkpt>
      <trkpt lat="46.45769" lon="5.26173">
        <ele>212.4</ele>
        <time>2021-12-31T13:50:22Z</time>
      </trkpt>
      <trkpt lat="46.45774" lon="5.26168">
        <ele>212.6</ele>
        <time>2021-12-31T13:50:23Z</time>
      </trkpt>
      <trkpt lat="46.4578" lon="5.26165">
        <ele>212.6</ele>
        <time>2021-12-31T13:50:24Z</time>
      </trkpt>
      <trkpt lat="46.45799" lon="5.26161">
        <ele>212.6</ele>
        <time>2021-12-31T13:50:27Z</time>
      </trkpt>
      <trkpt lat="46.45819" lon="5.26162">
        <ele>212.8</ele>
        <time>2021-12-31T13:50:30Z</time>
      </trkpt>
      <trkpt lat="46.45845" lon="5.26163">
        <ele>212.8</ele>
        <time>2021-12-31T13:50:34Z</time>
      </trkpt>
      <trkpt lat="46.45903" lon="5.26164">
        <ele>213</ele>
        <time>2021-12-31T13:50:43Z</time>
      </trkpt>
      <trkpt lat="46.45958" lon="5.26165">
        <ele>213</ele>
        <time>2021-12-31T13:50:51Z</time>
      </trkpt>
      <trkpt lat="46.45986" lon="5.26166">
        <ele>213</ele>
        <time>2021-12-31T13:50:55Z</time>
      </trkpt>
      <trkpt lat="46.46029" lon="5.26168">
        <ele>212.6</ele>
        <time>2021-12-31T13:51:01Z</time>
      </trkpt>
      <trkpt lat="46.46051" lon="5.26175">
        <ele>212</ele>
        <time>2021-12-31T13:51:04Z</time>
      </trkpt>
      <trkpt lat="46.46065" lon="5.26182">
        <ele>211.8</ele>
        <time>2021-12-31T13:51:06Z</time>
      </trkpt>
      <trkpt lat="46.4608" lon="5.2619">
        <ele>211.4</ele>
        <time>2021-12-31T13:51:08Z</time>
      </trkpt>
      <trkpt lat="46.46136" lon="5.26222">
        <ele>210.6</ele>
        <time>2021-12-31T13:51:16Z</time>
      </trkpt>
      <trkpt lat="46.46142" lon="5.26226">
        <ele>210.4</ele>
        <time>2021-12-31T13:51:17Z</time>
      </trkpt>
      <trkpt lat="46.46178" lon="5.26246">
        <ele>209.8</ele>
        <time>2021-12-31T13:51:23Z</time>
      </trkpt>
      <trkpt lat="46.46182" lon="5.2625">
        <ele>209.6</ele>
        <time>2021-12-31T13:51:24Z</time>
      </trkpt>
      <trkpt lat="46.46186" lon="5.26257">
        <ele>209.6</ele>
        <time>2021-12-31T13:51:26Z</time>
      </trkpt>
      <trkpt lat="46.46186" lon="5.26262">
        <ele>209.2</ele>
        <time>2021-12-31T13:51:27Z</time>
      </trkpt>
      <trkpt lat="46.46183" lon="5.26296">
        <ele>208.4</ele>
        <time>2021-12-31T13:51:31Z</time>
      </trkpt>
      <trkpt lat="46.46181" lon="5.26318">
        <ele>208.2</ele>
        <time>2021-12-31T13:51:33Z</time>
      </trkpt>
      <trkpt lat="46.46178" lon="5.26355">
        <ele>207.4</ele>
        <time>2021-12-31T13:51:36Z</time>
      </trkpt>
      <trkpt lat="46.46176" lon="5.26381">
        <ele>206.8</ele>
        <time>2021-12-31T13:51:38Z</time>
      </trkpt>
      <trkpt lat="46.46172" lon="5.26422">
        <ele>205.4</ele>
        <time>2021-12-31T13:51:41Z</time>
      </trkpt>
      <trkpt lat="46.46169" lon="5.2645">
        <ele>204.6</ele>
        <time>2021-12-31T13:51:43Z</time>
      </trkpt>
      <trkpt lat="46.46165" lon="5.26478">
        <ele>203.8</ele>
        <time>2021-12-31T13:51:45Z</time>
      </trkpt>
      <trkpt lat="46.46163" lon="5.26507">
        <ele>202.6</ele>
        <time>2021-12-31T13:51:47Z</time>
      </trkpt>
      <trkpt lat="46.46159" lon="5.2655">
        <ele>201</ele>
        <time>2021-12-31T13:51:50Z</time>
      </trkpt>
      <trkpt lat="46.46156" lon="5.2658">
        <ele>200</ele>
        <time>2021-12-31T13:51:52Z</time>
      </trkpt>
      <trkpt lat="46.46155" lon="5.26595">
        <ele>199.8</ele>
        <time>2021-12-31T13:51:53Z</time>
      </trkpt>
      <trkpt lat="46.46152" lon="5.26625">
        <ele>198.6</ele>
        <time>2021-12-31T13:51:55Z</time>
      </trkpt>
      <trkpt lat="46.4615" lon="5.26656">
        <ele>197.2</ele>
        <time>2021-12-31T13:51:57Z</time>
      </trkpt>
      <trkpt lat="46.46149" lon="5.26688">
        <ele>196.2</ele>
        <time>2021-12-31T13:51:59Z</time>
      </trkpt>
      <trkpt lat="46.46148" lon="5.26735">
        <ele>195</ele>
        <time>2021-12-31T13:52:02Z</time>
      </trkpt>
      <trkpt lat="46.46147" lon="5.26766">
        <ele>193.4</ele>
        <time>2021-12-31T13:52:04Z</time>
      </trkpt>
      <trkpt lat="46.46146" lon="5.26795">
        <ele>192.2</ele>
        <time>2021-12-31T13:52:06Z</time>
      </trkpt>
      <trkpt lat="46.46146" lon="5.2681">
        <ele>191.6</ele>
        <time>2021-12-31T13:52:07Z</time>
      </trkpt>
      <trkpt lat="46.46145" lon="5.26824">
        <ele>191</ele>
        <time>2021-12-31T13:52:08Z</time>
      </trkpt>
      <trkpt lat="46.46143" lon="5.26881">
        <ele>189.8</ele>
        <time>2021-12-31T13:52:12Z</time>
      </trkpt>
      <trkpt lat="46.46142" lon="5.26923">
        <ele>188.4</ele>
        <time>2021-12-31T13:52:15Z</time>
      </trkpt>
      <trkpt lat="46.4614" lon="5.26997">
        <ele>187.8</ele>
        <time>2021-12-31T13:52:21Z</time>
      </trkpt>
      <trkpt lat="46.46139" lon="5.27076">
        <ele>187.8</ele>
        <time>2021-12-31T13:52:28Z</time>
      </trkpt>
      <trkpt lat="46.46138" lon="5.27087">
        <ele>187.8</ele>
        <time>2021-12-31T13:52:29Z</time>
      </trkpt>
      <trkpt lat="46.46136" lon="5.27168">
        <ele>187.4</ele>
        <time>2021-12-31T13:52:36Z</time>
      </trkpt>
      <trkpt lat="46.46135" lon="5.27204">
        <ele>187</ele>
        <time>2021-12-31T13:52:39Z</time>
      </trkpt>
      <trkpt lat="46.46133" lon="5.2725">
        <ele>186.4</ele>
        <time>2021-12-31T13:52:43Z</time>
      </trkpt>
      <trkpt lat="46.46132" lon="5.27326">
        <ele>185.8</ele>
        <time>2021-12-31T13:52:50Z</time>
      </trkpt>
      <trkpt lat="46.46129" lon="5.27388">
        <ele>185.8</ele>
        <time>2021-12-31T13:52:56Z</time>
      </trkpt>
      <trkpt lat="46.46127" lon="5.27468">
        <ele>185.8</ele>
        <time>2021-12-31T13:53:04Z</time>
      </trkpt>
      <trkpt lat="46.46127" lon="5.27478">
        <ele>185.8</ele>
        <time>2021-12-31T13:53:05Z</time>
      </trkpt>
      <trkpt lat="46.46125" lon="5.27557">
        <ele>185.6</ele>
        <time>2021-12-31T13:53:13Z</time>
      </trkpt>
      <trkpt lat="46.46125" lon="5.27566">
        <ele>185.6</ele>
        <time>2021-12-31T13:53:14Z</time>
      </trkpt>
      <trkpt lat="46.46123" lon="5.27653">
        <ele>185.8</ele>
        <time>2021-12-31T13:53:23Z</time>
      </trkpt>
      <trkpt lat="46.46122" lon="5.27662">
        <ele>185.8</ele>
        <time>2021-12-31T13:53:24Z</time>
      </trkpt>
      <trkpt lat="46.4612" lon="5.27741">
        <ele>186.4</ele>
        <time>2021-12-31T13:53:33Z</time>
      </trkpt>
      <trkpt lat="46.4612" lon="5.27749">
        <ele>186.6</ele>
        <time>2021-12-31T13:53:34Z</time>
      </trkpt>
      <trkpt lat="46.46118" lon="5.27802">
        <ele>187.4</ele>
        <time>2021-12-31T13:53:41Z</time>
      </trkpt>
      <trkpt lat="46.46119" lon="5.2781">
        <ele>187.6</ele>
        <time>2021-12-31T13:53:42Z</time>
      </trkpt>
      <trkpt lat="46.46119" lon="5.27838">
        <ele>188.4</ele>
        <time>2021-12-31T13:53:46Z</time>
      </trkpt>
      <trkpt lat="46.4612" lon="5.27873">
        <ele>189.4</ele>
        <time>2021-12-31T13:53:51Z</time>
      </trkpt>
      <trkpt lat="46.46121" lon="5.27879">
        <ele>189.8</ele>
        <time>2021-12-31T13:53:52Z</time>
      </trkpt>
      <trkpt lat="46.46122" lon="5.2791">
        <ele>190.6</ele>
        <time>2021-12-31T13:53:57Z</time>
      </trkpt>
      <trkpt lat="46.46122" lon="5.27915">
        <ele>190.8</ele>
        <time>2021-12-31T13:53:58Z</time>
      </trkpt>
      <trkpt lat="46.46122" lon="5.27921">
        <ele>191</ele>
        <time>2021-12-31T13:53:59Z</time>
      </trkpt>
      <trkpt lat="46.46125" lon="5.27938">
        <ele>192</ele>
        <time>2021-12-31T13:54:02Z</time>
      </trkpt>
      <trkpt lat="46.46131" lon="5.27957">
        <ele>192.8</ele>
        <time>2021-12-31T13:54:06Z</time>
      </trkpt>
      <trkpt lat="46.46133" lon="5.2796">
        <ele>193.2</ele>
        <time>2021-12-31T13:54:07Z</time>
      </trkpt>
      <trkpt lat="46.46143" lon="5.27972">
        <ele>194.4</ele>
        <time>2021-12-31T13:54:11Z</time>
      </trkpt>
      <trkpt lat="46.46146" lon="5.27974">
        <ele>194.8</ele>
        <time>2021-12-31T13:54:12Z</time>
      </trkpt>
      <trkpt lat="46.46153" lon="5.27978">
        <ele>195.4</ele>
        <time>2021-12-31T13:54:14Z</time>
      </trkpt>
      <trkpt lat="46.46162" lon="5.27986">
        <ele>196.6</ele>
        <time>2021-12-31T13:54:17Z</time>
      </trkpt>
      <trkpt lat="46.46167" lon="5.27991">
        <ele>197.2</ele>
        <time>2021-12-31T13:54:19Z</time>
      </trkpt>
      <trkpt lat="46.46173" lon="5.27995">
        <ele>198</ele>
        <time>2021-12-31T13:54:21Z</time>
      </trkpt>
      <trkpt lat="46.46183" lon="5.28003">
        <ele>199.4</ele>
        <time>2021-12-31T13:54:24Z</time>
      </trkpt>
      <trkpt lat="46.4619" lon="5.28014">
        <ele>200.2</ele>
        <time>2021-12-31T13:54:27Z</time>
      </trkpt>
      <trkpt lat="46.4619" lon="5.28019">
        <ele>200.4</ele>
        <time>2021-12-31T13:54:28Z</time>
      </trkpt>
      <trkpt lat="46.46189" lon="5.28039">
        <ele>201</ele>
        <time>2021-12-31T13:54:31Z</time>
      </trkpt>
      <trkpt lat="46.46186" lon="5.2809">
        <ele>201.2</ele>
        <time>2021-12-31T13:54:37Z</time>
      </trkpt>
      <trkpt lat="46.46181" lon="5.28146">
        <ele>201.2</ele>
        <time>2021-12-31T13:54:44Z</time>
      </trkpt>
      <trkpt lat="46.46175" lon="5.28184">
        <ele>201.4</ele>
        <time>2021-12-31T13:54:49Z</time>
      </trkpt>
      <trkpt lat="46.46171" lon="5.28209">
        <ele>201.6</ele>
        <time>2021-12-31T13:54:52Z</time>
      </trkpt>
      <trkpt lat="46.46167" lon="5.28248">
        <ele>201.6</ele>
        <time>2021-12-31T13:54:56Z</time>
      </trkpt>
      <trkpt lat="46.46167" lon="5.28292">
        <ele>201.2</ele>
        <time>2021-12-31T13:55:00Z</time>
      </trkpt>
      <trkpt lat="46.46168" lon="5.28303">
        <ele>201</ele>
        <time>2021-12-31T13:55:01Z</time>
      </trkpt>
      <trkpt lat="46.4617" lon="5.28315">
        <ele>200.2</ele>
        <time>2021-12-31T13:55:02Z</time>
      </trkpt>
      <trkpt lat="46.46177" lon="5.28363">
        <ele>199.2</ele>
        <time>2021-12-31T13:55:06Z</time>
      </trkpt>
      <trkpt lat="46.4618" lon="5.28387">
        <ele>198.4</ele>
        <time>2021-12-31T13:55:08Z</time>
      </trkpt>
      <trkpt lat="46.46182" lon="5.28399">
        <ele>197.4</ele>
        <time>2021-12-31T13:55:09Z</time>
      </trkpt>
      <trkpt lat="46.46189" lon="5.28443">
        <ele>196.4</ele>
        <time>2021-12-31T13:55:13Z</time>
      </trkpt>
      <trkpt lat="46.46197" lon="5.28497">
        <ele>196.4</ele>
        <time>2021-12-31T13:55:19Z</time>
      </trkpt>
      <trkpt lat="46.46201" lon="5.28526">
        <ele>197.4</ele>
        <time>2021-12-31T13:55:23Z</time>
      </trkpt>
      <trkpt lat="46.46204" lon="5.28545">
        <ele>198.2</ele>
        <time>2021-12-31T13:55:26Z</time>
      </trkpt>
      <trkpt lat="46.46206" lon="5.28553">
        <ele>198.6</ele>
        <time>2021-12-31T13:55:27Z</time>
      </trkpt>
      <trkpt lat="46.46211" lon="5.28587">
        <ele>199.8</ele>
        <time>2021-12-31T13:55:32Z</time>
      </trkpt>
      <trkpt lat="46.46213" lon="5.286">
        <ele>200.6</ele>
        <time>2021-12-31T13:55:34Z</time>
      </trkpt>
      <trkpt lat="46.46214" lon="5.28606">
        <ele>200.8</ele>
        <time>2021-12-31T13:55:35Z</time>
      </trkpt>
      <trkpt lat="46.46214" lon="5.28612">
        <ele>201.2</ele>
        <time>2021-12-31T13:55:36Z</time>
      </trkpt>
      <trkpt lat="46.46215" lon="5.28629">
        <ele>201.8</ele>
        <time>2021-12-31T13:55:39Z</time>
      </trkpt>
      <trkpt lat="46.46218" lon="5.28653">
        <ele>203.2</ele>
        <time>2021-12-31T13:55:44Z</time>
      </trkpt>
      <trkpt lat="46.46223" lon="5.28676">
        <ele>204.4</ele>
        <time>2021-12-31T13:55:48Z</time>
      </trkpt>
      <trkpt lat="46.46226" lon="5.28681">
        <ele>204.6</ele>
        <time>2021-12-31T13:55:49Z</time>
      </trkpt>
      <trkpt lat="46.46228" lon="5.28686">
        <ele>205.2</ele>
        <time>2021-12-31T13:55:50Z</time>
      </trkpt>
      <trkpt lat="46.46236" lon="5.28695">
        <ele>205.6</ele>
        <time>2021-12-31T13:55:52Z</time>
      </trkpt>
      <trkpt lat="46.4624" lon="5.28698">
        <ele>205.8</ele>
        <time>2021-12-31T13:55:53Z</time>
      </trkpt>
      <trkpt lat="46.46251" lon="5.28708">
        <ele>206.6</ele>
        <time>2021-12-31T13:55:56Z</time>
      </trkpt>
      <trkpt lat="46.46267" lon="5.28722">
        <ele>207.8</ele>
        <time>2021-12-31T13:56:00Z</time>
      </trkpt>
      <trkpt lat="46.46271" lon="5.28724">
        <ele>208</ele>
        <time>2021-12-31T13:56:01Z</time>
      </trkpt>
      <trkpt lat="46.46283" lon="5.28734">
        <ele>208.8</ele>
        <time>2021-12-31T13:56:04Z</time>
      </trkpt>
      <trkpt lat="46.46303" lon="5.28746">
        <ele>210</ele>
        <time>2021-12-31T13:56:09Z</time>
      </trkpt>
      <trkpt lat="46.46311" lon="5.28751">
        <ele>210.2</ele>
        <time>2021-12-31T13:56:11Z</time>
      </trkpt>
      <trkpt lat="46.46323" lon="5.28759">
        <ele>210.6</ele>
        <time>2021-12-31T13:56:14Z</time>
      </trkpt>
      <trkpt lat="46.46331" lon="5.28764">
        <ele>211</ele>
        <time>2021-12-31T13:56:16Z</time>
      </trkpt>
      <trkpt lat="46.46342" lon="5.28773">
        <ele>211.4</ele>
        <time>2021-12-31T13:56:19Z</time>
      </trkpt>
      <trkpt lat="46.46361" lon="5.28787">
        <ele>212</ele>
        <time>2021-12-31T13:56:24Z</time>
      </trkpt>
      <trkpt lat="46.46377" lon="5.288">
        <ele>212.6</ele>
        <time>2021-12-31T13:56:28Z</time>
      </trkpt>
      <trkpt lat="46.46388" lon="5.28813">
        <ele>213</ele>
        <time>2021-12-31T13:56:31Z</time>
      </trkpt>
      <trkpt lat="46.46398" lon="5.28831">
        <ele>213.6</ele>
        <time>2021-12-31T13:56:34Z</time>
      </trkpt>
      <trkpt lat="46.46414" lon="5.28869">
        <ele>214</ele>
        <time>2021-12-31T13:56:41Z</time>
      </trkpt>
      <trkpt lat="46.4642" lon="5.28898">
        <ele>214.2</ele>
        <time>2021-12-31T13:56:44Z</time>
      </trkpt>
      <trkpt lat="46.46431" lon="5.28944">
        <ele>214.4</ele>
        <time>2021-12-31T13:56:50Z</time>
      </trkpt>
      <trkpt lat="46.46445" lon="5.29011">
        <ele>215.2</ele>
        <time>2021-12-31T13:56:59Z</time>
      </trkpt>
      <trkpt lat="46.46455" lon="5.29065">
        <ele>216</ele>
        <time>2021-12-31T13:57:06Z</time>
      </trkpt>
      <trkpt lat="46.46461" lon="5.29089">
        <ele>216.2</ele>
        <time>2021-12-31T13:57:09Z</time>
      </trkpt>
      <trkpt lat="46.46473" lon="5.29145">
        <ele>216</ele>
        <time>2021-12-31T13:57:16Z</time>
      </trkpt>
      <trkpt lat="46.46487" lon="5.2921">
        <ele>215.6</ele>
        <time>2021-12-31T13:57:24Z</time>
      </trkpt>
      <trkpt lat="46.46501" lon="5.29279">
        <ele>215.2</ele>
        <time>2021-12-31T13:57:32Z</time>
      </trkpt>
      <trkpt lat="46.46506" lon="5.29306">
        <ele>214.8</ele>
        <time>2021-12-31T13:57:35Z</time>
      </trkpt>
      <trkpt lat="46.46514" lon="5.29344">
        <ele>214.2</ele>
        <time>2021-12-31T13:57:39Z</time>
      </trkpt>
      <trkpt lat="46.46518" lon="5.29364">
        <ele>213.8</ele>
        <time>2021-12-31T13:57:41Z</time>
      </trkpt>
      <trkpt lat="46.46531" lon="5.29421">
        <ele>213.4</ele>
        <time>2021-12-31T13:57:47Z</time>
      </trkpt>
      <trkpt lat="46.46551" lon="5.29502">
        <ele>213.2</ele>
        <time>2021-12-31T13:57:55Z</time>
      </trkpt>
      <trkpt lat="46.46554" lon="5.29513">
        <ele>213.2</ele>
        <time>2021-12-31T13:57:56Z</time>
      </trkpt>
      <trkpt lat="46.46566" lon="5.29566">
        <ele>212.8</ele>
        <time>2021-12-31T13:58:01Z</time>
      </trkpt>
      <trkpt lat="46.4657" lon="5.29585">
        <ele>212.6</ele>
        <time>2021-12-31T13:58:03Z</time>
      </trkpt>
      <trkpt lat="46.46589" lon="5.29653">
        <ele>213.8</ele>
        <time>2021-12-31T13:58:11Z</time>
      </trkpt>
      <trkpt lat="46.46596" lon="5.29679">
        <ele>214.4</ele>
        <time>2021-12-31T13:58:14Z</time>
      </trkpt>
      <trkpt lat="46.46608" lon="5.29726">
        <ele>215</ele>
        <time>2021-12-31T13:58:19Z</time>
      </trkpt>
      <trkpt lat="46.46613" lon="5.29744">
        <ele>215</ele>
        <time>2021-12-31T13:58:21Z</time>
      </trkpt>
      <trkpt lat="46.46625" lon="5.29793">
        <ele>215.6</ele>
        <time>2021-12-31T13:58:27Z</time>
      </trkpt>
      <trkpt lat="46.46628" lon="5.29808">
        <ele>216</ele>
        <time>2021-12-31T13:58:29Z</time>
      </trkpt>
      <trkpt lat="46.46633" lon="5.29829">
        <ele>216.4</ele>
        <time>2021-12-31T13:58:32Z</time>
      </trkpt>
      <trkpt lat="46.46636" lon="5.29845">
        <ele>216.6</ele>
        <time>2021-12-31T13:58:34Z</time>
      </trkpt>
      <trkpt lat="46.46642" lon="5.29865">
        <ele>216.8</ele>
        <time>2021-12-31T13:58:36Z</time>
      </trkpt>
      <trkpt lat="46.46652" lon="5.29901">
        <ele>217</ele>
        <time>2021-12-31T13:58:40Z</time>
      </trkpt>
      <trkpt lat="46.46655" lon="5.29911">
        <ele>217</ele>
        <time>2021-12-31T13:58:41Z</time>
      </trkpt>
      <trkpt lat="46.46669" lon="5.29961">
        <ele>216.8</ele>
        <time>2021-12-31T13:58:46Z</time>
      </trkpt>
      <trkpt lat="46.46687" lon="5.30026">
        <ele>216</ele>
        <time>2021-12-31T13:58:52Z</time>
      </trkpt>
      <trkpt lat="46.46691" lon="5.30038">
        <ele>215.8</ele>
        <time>2021-12-31T13:58:53Z</time>
      </trkpt>
      <trkpt lat="46.46711" lon="5.30112">
        <ele>214.8</ele>
        <time>2021-12-31T13:59:00Z</time>
      </trkpt>
      <trkpt lat="46.46714" lon="5.30122">
        <ele>214.8</ele>
        <time>2021-12-31T13:59:01Z</time>
      </trkpt>
      <trkpt lat="46.46716" lon="5.30133">
        <ele>214.8</ele>
        <time>2021-12-31T13:59:02Z</time>
      </trkpt>
      <trkpt lat="46.46737" lon="5.30207">
        <ele>214.8</ele>
        <time>2021-12-31T13:59:10Z</time>
      </trkpt>
      <trkpt lat="46.46755" lon="5.30235">
        <ele>215.2</ele>
        <time>2021-12-31T13:59:14Z</time>
      </trkpt>
      <trkpt lat="46.468" lon="5.3029">
        <ele>215.8</ele>
        <time>2021-12-31T13:59:23Z</time>
      </trkpt>
      <trkpt lat="46.46843" lon="5.30342">
        <ele>216</ele>
        <time>2021-12-31T13:59:31Z</time>
      </trkpt>
      <trkpt lat="46.46848" lon="5.30348">
        <ele>216</ele>
        <time>2021-12-31T13:59:32Z</time>
      </trkpt>
      <trkpt lat="46.46864" lon="5.30365">
        <ele>215.8</ele>
        <time>2021-12-31T13:59:35Z</time>
      </trkpt>
      <trkpt lat="46.46883" lon="5.30379">
        <ele>215.6</ele>
        <time>2021-12-31T13:59:38Z</time>
      </trkpt>
      <trkpt lat="46.4689" lon="5.30382">
        <ele>215.6</ele>
        <time>2021-12-31T13:59:39Z</time>
      </trkpt>
      <trkpt lat="46.46924" lon="5.30396">
        <ele>215.4</ele>
        <time>2021-12-31T13:59:44Z</time>
      </trkpt>
      <trkpt lat="46.4697" lon="5.30421">
        <ele>215.2</ele>
        <time>2021-12-31T13:59:51Z</time>
      </trkpt>
      <trkpt lat="46.47016" lon="5.30461">
        <ele>215.6</ele>
        <time>2021-12-31T13:59:59Z</time>
      </trkpt>
      <trkpt lat="46.47062" lon="5.305">
        <ele>215.8</ele>
        <time>2021-12-31T14:00:07Z</time>
      </trkpt>
      <trkpt lat="46.47107" lon="5.30536">
        <ele>216.2</ele>
        <time>2021-12-31T14:00:15Z</time>
      </trkpt>
      <trkpt lat="46.4716" lon="5.30558">
        <ele>216.6</ele>
        <time>2021-12-31T14:00:23Z</time>
      </trkpt>
      <trkpt lat="46.47175" lon="5.3056">
        <ele>216.4</ele>
        <time>2021-12-31T14:00:25Z</time>
      </trkpt>
      <trkpt lat="46.47197" lon="5.30558">
        <ele>216.2</ele>
        <time>2021-12-31T14:00:28Z</time>
      </trkpt>
      <trkpt lat="46.4722" lon="5.30557">
        <ele>216.2</ele>
        <time>2021-12-31T14:00:31Z</time>
      </trkpt>
      <trkpt lat="46.47235" lon="5.30562">
        <ele>216</ele>
        <time>2021-12-31T14:00:33Z</time>
      </trkpt>
      <trkpt lat="46.47261" lon="5.30582">
        <ele>215.8</ele>
        <time>2021-12-31T14:00:37Z</time>
      </trkpt>
      <trkpt lat="46.47267" lon="5.30588">
        <ele>215.8</ele>
        <time>2021-12-31T14:00:38Z</time>
      </trkpt>
      <trkpt lat="46.47305" lon="5.30636">
        <ele>216</ele>
        <time>2021-12-31T14:00:45Z</time>
      </trkpt>
      <trkpt lat="46.47314" lon="5.30654">
        <ele>215.8</ele>
        <time>2021-12-31T14:00:47Z</time>
      </trkpt>
      <trkpt lat="46.47316" lon="5.30664">
        <ele>215.8</ele>
        <time>2021-12-31T14:00:48Z</time>
      </trkpt>
      <trkpt lat="46.47317" lon="5.30675">
        <ele>216</ele>
        <time>2021-12-31T14:00:49Z</time>
      </trkpt>
      <trkpt lat="46.47318" lon="5.30719">
        <ele>215.8</ele>
        <time>2021-12-31T14:00:53Z</time>
      </trkpt>
      <trkpt lat="46.47322" lon="5.308">
        <ele>215.2</ele>
        <time>2021-12-31T14:01:00Z</time>
      </trkpt>
      <trkpt lat="46.47325" lon="5.30833">
        <ele>215</ele>
        <time>2021-12-31T14:01:03Z</time>
      </trkpt>
      <trkpt lat="46.47327" lon="5.30844">
        <ele>214.8</ele>
        <time>2021-12-31T14:01:04Z</time>
      </trkpt>
      <trkpt lat="46.47331" lon="5.30874">
        <ele>214.8</ele>
        <time>2021-12-31T14:01:07Z</time>
      </trkpt>
      <trkpt lat="46.47337" lon="5.30889">
        <ele>214.8</ele>
        <time>2021-12-31T14:01:09Z</time>
      </trkpt>
      <trkpt lat="46.47346" lon="5.30895">
        <ele>215</ele>
        <time>2021-12-31T14:01:11Z</time>
      </trkpt>
      <trkpt lat="46.47352" lon="5.30895">
        <ele>215</ele>
        <time>2021-12-31T14:01:12Z</time>
      </trkpt>
      <trkpt lat="46.47387" lon="5.30883">
        <ele>215.4</ele>
        <time>2021-12-31T14:01:17Z</time>
      </trkpt>
      <trkpt lat="46.47433" lon="5.30862">
        <ele>215.2</ele>
        <time>2021-12-31T14:01:24Z</time>
      </trkpt>
      <trkpt lat="46.47482" lon="5.30835">
        <ele>215.2</ele>
        <time>2021-12-31T14:01:32Z</time>
      </trkpt>
      <trkpt lat="46.47514" lon="5.30818">
        <ele>215.8</ele>
        <time>2021-12-31T14:01:38Z</time>
      </trkpt>
      <trkpt lat="46.47524" lon="5.30814">
        <ele>215.8</ele>
        <time>2021-12-31T14:01:40Z</time>
      </trkpt>
      <trkpt lat="46.47547" lon="5.30807">
        <ele>216.4</ele>
        <time>2021-12-31T14:01:45Z</time>
      </trkpt>
      <trkpt lat="46.47569" lon="5.30803">
        <ele>216.8</ele>
        <time>2021-12-31T14:01:50Z</time>
      </trkpt>
      <trkpt lat="46.476" lon="5.30799">
        <ele>216.8</ele>
        <time>2021-12-31T14:01:57Z</time>
      </trkpt>
      <trkpt lat="46.47634" lon="5.30794">
        <ele>216.8</ele>
        <time>2021-12-31T14:02:06Z</time>
      </trkpt>
      <trkpt lat="46.47657" lon="5.3079">
        <ele>216.8</ele>
        <time>2021-12-31T14:02:14Z</time>
      </trkpt>
      <trkpt lat="46.47676" lon="5.30789">
        <ele>216.8</ele>
        <time>2021-12-31T14:02:19Z</time>
      </trkpt>
      <trkpt lat="46.47714" lon="5.30785">
        <ele>216.8</ele>
        <time>2021-12-31T14:02:26Z</time>
      </trkpt>
      <trkpt lat="46.4775" lon="5.30779">
        <ele>216.6</ele>
        <time>2021-12-31T14:02:32Z</time>
      </trkpt>
      <trkpt lat="46.47756" lon="5.30777">
        <ele>216.6</ele>
        <time>2021-12-31T14:02:33Z</time>
      </trkpt>
      <trkpt lat="46.47761" lon="5.30776">
        <ele>216.2</ele>
        <time>2021-12-31T14:02:34Z</time>
      </trkpt>
      <trkpt lat="46.47772" lon="5.30775">
        <ele>216</ele>
        <time>2021-12-31T14:02:36Z</time>
      </trkpt>
      <trkpt lat="46.47778" lon="5.30775">
        <ele>216</ele>
        <time>2021-12-31T14:02:37Z</time>
      </trkpt>
      <trkpt lat="46.47796" lon="5.30772">
        <ele>215.6</ele>
        <time>2021-12-31T14:02:40Z</time>
      </trkpt>
      <trkpt lat="46.4782" lon="5.30773">
        <ele>215.6</ele>
        <time>2021-12-31T14:02:44Z</time>
      </trkpt>
      <trkpt lat="46.47825" lon="5.30774">
        <ele>215.6</ele>
        <time>2021-12-31T14:02:45Z</time>
      </trkpt>
      <trkpt lat="46.47835" lon="5.30777">
        <ele>215.8</ele>
        <time>2021-12-31T14:02:47Z</time>
      </trkpt>
      <trkpt lat="46.4784" lon="5.30782">
        <ele>216</ele>
        <time>2021-12-31T14:02:48Z</time>
      </trkpt>
      <trkpt lat="46.47842" lon="5.30785">
        <ele>216.2</ele>
        <time>2021-12-31T14:02:49Z</time>
      </trkpt>
      <trkpt lat="46.47847" lon="5.30799">
        <ele>217</ele>
        <time>2021-12-31T14:02:52Z</time>
      </trkpt>
      <trkpt lat="46.4785" lon="5.30802">
        <ele>217.2</ele>
        <time>2021-12-31T14:02:53Z</time>
      </trkpt>
      <trkpt lat="46.47861" lon="5.30804">
        <ele>218</ele>
        <time>2021-12-31T14:02:55Z</time>
      </trkpt>
      <trkpt lat="46.47868" lon="5.30804">
        <ele>218.4</ele>
        <time>2021-12-31T14:02:56Z</time>
      </trkpt>
      <trkpt lat="46.47891" lon="5.30808">
        <ele>218.6</ele>
        <time>2021-12-31T14:02:59Z</time>
      </trkpt>
      <trkpt lat="46.47936" lon="5.3082">
        <ele>217.4</ele>
        <time>2021-12-31T14:03:04Z</time>
      </trkpt>
      <trkpt lat="46.47946" lon="5.30821">
        <ele>217.2</ele>
        <time>2021-12-31T14:03:05Z</time>
      </trkpt>
      <trkpt lat="46.47966" lon="5.30818">
        <ele>216</ele>
        <time>2021-12-31T14:03:07Z</time>
      </trkpt>
      <trkpt lat="46.47975" lon="5.30814">
        <ele>215.4</ele>
        <time>2021-12-31T14:03:08Z</time>
      </trkpt>
      <trkpt lat="46.47984" lon="5.3081">
        <ele>215</ele>
        <time>2021-12-31T14:03:09Z</time>
      </trkpt>
      <trkpt lat="46.48002" lon="5.30801">
        <ele>213.8</ele>
        <time>2021-12-31T14:03:11Z</time>
      </trkpt>
      <trkpt lat="46.48017" lon="5.30793">
        <ele>213.6</ele>
        <time>2021-12-31T14:03:13Z</time>
      </trkpt>
      <trkpt lat="46.48059" lon="5.30769">
        <ele>213.6</ele>
        <time>2021-12-31T14:03:19Z</time>
      </trkpt>
      <trkpt lat="46.48103" lon="5.30745">
        <ele>214.6</ele>
        <time>2021-12-31T14:03:26Z</time>
      </trkpt>
      <trkpt lat="46.4815" lon="5.30719">
        <ele>214.8</ele>
        <time>2021-12-31T14:03:33Z</time>
      </trkpt>
      <trkpt lat="46.48209" lon="5.30689">
        <ele>214</ele>
        <time>2021-12-31T14:03:41Z</time>
      </trkpt>
      <trkpt lat="46.48225" lon="5.30687">
        <ele>213.4</ele>
        <time>2021-12-31T14:03:43Z</time>
      </trkpt>
      <trkpt lat="46.48242" lon="5.30688">
        <ele>213.2</ele>
        <time>2021-12-31T14:03:45Z</time>
      </trkpt>
      <trkpt lat="46.48262" lon="5.30693">
        <ele>212.8</ele>
        <time>2021-12-31T14:03:47Z</time>
      </trkpt>
      <trkpt lat="46.48294" lon="5.307">
        <ele>211.8</ele>
        <time>2021-12-31T14:03:51Z</time>
      </trkpt>
      <trkpt lat="46.48303" lon="5.307">
        <ele>211.6</ele>
        <time>2021-12-31T14:03:52Z</time>
      </trkpt>
      <trkpt lat="46.4832" lon="5.30697">
        <ele>211.2</ele>
        <time>2021-12-31T14:03:54Z</time>
      </trkpt>
      <trkpt lat="46.48328" lon="5.30694">
        <ele>211.2</ele>
        <time>2021-12-31T14:03:55Z</time>
      </trkpt>
      <trkpt lat="46.48357" lon="5.30673">
        <ele>210.6</ele>
        <time>2021-12-31T14:03:59Z</time>
      </trkpt>
      <trkpt lat="46.48388" lon="5.30642">
        <ele>210.6</ele>
        <time>2021-12-31T14:04:04Z</time>
      </trkpt>
      <trkpt lat="46.48428" lon="5.30603">
        <ele>211.2</ele>
        <time>2021-12-31T14:04:11Z</time>
      </trkpt>
      <trkpt lat="46.48465" lon="5.30567">
        <ele>211.8</ele>
        <time>2021-12-31T14:04:18Z</time>
      </trkpt>
      <trkpt lat="46.48511" lon="5.30524">
        <ele>212.4</ele>
        <time>2021-12-31T14:04:27Z</time>
      </trkpt>
      <trkpt lat="46.48517" lon="5.30519">
        <ele>212.6</ele>
        <time>2021-12-31T14:04:28Z</time>
      </trkpt>
      <trkpt lat="46.4856" lon="5.30493">
        <ele>213</ele>
        <time>2021-12-31T14:04:35Z</time>
      </trkpt>
      <trkpt lat="46.48574" lon="5.30491">
        <ele>213</ele>
        <time>2021-12-31T14:04:37Z</time>
      </trkpt>
      <trkpt lat="46.48595" lon="5.30491">
        <ele>212.8</ele>
        <time>2021-12-31T14:04:40Z</time>
      </trkpt>
      <trkpt lat="46.48654" lon="5.305">
        <ele>212.4</ele>
        <time>2021-12-31T14:04:48Z</time>
      </trkpt>
      <trkpt lat="46.48713" lon="5.30499">
        <ele>212.2</ele>
        <time>2021-12-31T14:04:56Z</time>
      </trkpt>
      <trkpt lat="46.48727" lon="5.30503">
        <ele>212.2</ele>
        <time>2021-12-31T14:04:58Z</time>
      </trkpt>
      <trkpt lat="46.48748" lon="5.30512">
        <ele>212.2</ele>
        <time>2021-12-31T14:05:01Z</time>
      </trkpt>
      <trkpt lat="46.48804" lon="5.30535">
        <ele>212.6</ele>
        <time>2021-12-31T14:05:09Z</time>
      </trkpt>
      <trkpt lat="46.48811" lon="5.30536">
        <ele>212.6</ele>
        <time>2021-12-31T14:05:10Z</time>
      </trkpt>
      <trkpt lat="46.48869" lon="5.3054">
        <ele>212.6</ele>
        <time>2021-12-31T14:05:18Z</time>
      </trkpt>
      <trkpt lat="46.48921" lon="5.30522">
        <ele>212.8</ele>
        <time>2021-12-31T14:05:25Z</time>
      </trkpt>
      <trkpt lat="46.48979" lon="5.30499">
        <ele>212.8</ele>
        <time>2021-12-31T14:05:33Z</time>
      </trkpt>
      <trkpt lat="46.49002" lon="5.30489">
        <ele>212.6</ele>
        <time>2021-12-31T14:05:36Z</time>
      </trkpt>
      <trkpt lat="46.49061" lon="5.30465">
        <ele>212.4</ele>
        <time>2021-12-31T14:05:44Z</time>
      </trkpt>
      <trkpt lat="46.49076" lon="5.30459">
        <ele>212.4</ele>
        <time>2021-12-31T14:05:46Z</time>
      </trkpt>
      <trkpt lat="46.49128" lon="5.30438">
        <ele>212</ele>
        <time>2021-12-31T14:05:53Z</time>
      </trkpt>
      <trkpt lat="46.49143" lon="5.30432">
        <ele>211.8</ele>
        <time>2021-12-31T14:05:55Z</time>
      </trkpt>
      <trkpt lat="46.49194" lon="5.30412">
        <ele>211.4</ele>
        <time>2021-12-31T14:06:02Z</time>
      </trkpt>
      <trkpt lat="46.49209" lon="5.30406">
        <ele>211.4</ele>
        <time>2021-12-31T14:06:04Z</time>
      </trkpt>
      <trkpt lat="46.49262" lon="5.30384">
        <ele>211.2</ele>
        <time>2021-12-31T14:06:11Z</time>
      </trkpt>
      <trkpt lat="46.4927" lon="5.30381">
        <ele>211.2</ele>
        <time>2021-12-31T14:06:12Z</time>
      </trkpt>
      <trkpt lat="46.49323" lon="5.30359">
        <ele>210.8</ele>
        <time>2021-12-31T14:06:19Z</time>
      </trkpt>
      <trkpt lat="46.49338" lon="5.30353">
        <ele>210.8</ele>
        <time>2021-12-31T14:06:21Z</time>
      </trkpt>
      <trkpt lat="46.4939" lon="5.30333">
        <ele>210.4</ele>
        <time>2021-12-31T14:06:28Z</time>
      </trkpt>
      <trkpt lat="46.49427" lon="5.30317">
        <ele>210.2</ele>
        <time>2021-12-31T14:06:33Z</time>
      </trkpt>
      <trkpt lat="46.49456" lon="5.30301">
        <ele>210</ele>
        <time>2021-12-31T14:06:37Z</time>
      </trkpt>
      <trkpt lat="46.49463" lon="5.30295">
        <ele>210</ele>
        <time>2021-12-31T14:06:38Z</time>
      </trkpt>
      <trkpt lat="46.49486" lon="5.30263">
        <ele>210</ele>
        <time>2021-12-31T14:06:42Z</time>
      </trkpt>
      <trkpt lat="46.49506" lon="5.3022">
        <ele>209.2</ele>
        <time>2021-12-31T14:06:46Z</time>
      </trkpt>
      <trkpt lat="46.49511" lon="5.3021">
        <ele>209</ele>
        <time>2021-12-31T14:06:47Z</time>
      </trkpt>
      <trkpt lat="46.49524" lon="5.30191">
        <ele>208</ele>
        <time>2021-12-31T14:06:49Z</time>
      </trkpt>
      <trkpt lat="46.49538" lon="5.30175">
        <ele>207.2</ele>
        <time>2021-12-31T14:06:51Z</time>
      </trkpt>
      <trkpt lat="46.49574" lon="5.30149">
        <ele>207</ele>
        <time>2021-12-31T14:06:56Z</time>
      </trkpt>
      <trkpt lat="46.4961" lon="5.30116">
        <ele>207.2</ele>
        <time>2021-12-31T14:07:02Z</time>
      </trkpt>
      <trkpt lat="46.49644" lon="5.30077">
        <ele>207.6</ele>
        <time>2021-12-31T14:07:08Z</time>
      </trkpt>
      <trkpt lat="46.4966" lon="5.30035">
        <ele>207.4</ele>
        <time>2021-12-31T14:07:12Z</time>
      </trkpt>
      <trkpt lat="46.49678" lon="5.2996">
        <ele>205.6</ele>
        <time>2021-12-31T14:07:18Z</time>
      </trkpt>
      <trkpt lat="46.49688" lon="5.29911">
        <ele>204.4</ele>
        <time>2021-12-31T14:07:22Z</time>
      </trkpt>
      <trkpt lat="46.49692" lon="5.2989">
        <ele>204.2</ele>
        <time>2021-12-31T14:07:24Z</time>
      </trkpt>
      <trkpt lat="46.49701" lon="5.29861">
        <ele>204.2</ele>
        <time>2021-12-31T14:07:27Z</time>
      </trkpt>
      <trkpt lat="46.49708" lon="5.29845">
        <ele>204.4</ele>
        <time>2021-12-31T14:07:29Z</time>
      </trkpt>
      <trkpt lat="46.49712" lon="5.29837">
        <ele>204.6</ele>
        <time>2021-12-31T14:07:30Z</time>
      </trkpt>
      <trkpt lat="46.49731" lon="5.29811">
        <ele>205.2</ele>
        <time>2021-12-31T14:07:34Z</time>
      </trkpt>
      <trkpt lat="46.49741" lon="5.29799">
        <ele>205.4</ele>
        <time>2021-12-31T14:07:36Z</time>
      </trkpt>
      <trkpt lat="46.49747" lon="5.29794">
        <ele>205.4</ele>
        <time>2021-12-31T14:07:37Z</time>
      </trkpt>
      <trkpt lat="46.4976" lon="5.29789">
        <ele>205.8</ele>
        <time>2021-12-31T14:07:39Z</time>
      </trkpt>
      <trkpt lat="46.49794" lon="5.29792">
        <ele>206.2</ele>
        <time>2021-12-31T14:07:44Z</time>
      </trkpt>
      <trkpt lat="46.49821" lon="5.298">
        <ele>206.4</ele>
        <time>2021-12-31T14:07:48Z</time>
      </trkpt>
      <trkpt lat="46.49848" lon="5.2981">
        <ele>206.6</ele>
        <time>2021-12-31T14:07:52Z</time>
      </trkpt>
      <trkpt lat="46.49898" lon="5.29832">
        <ele>206.4</ele>
        <time>2021-12-31T14:07:59Z</time>
      </trkpt>
      <trkpt lat="46.49945" lon="5.29848">
        <ele>205.4</ele>
        <time>2021-12-31T14:08:05Z</time>
      </trkpt>
      <trkpt lat="46.49962" lon="5.29852">
        <ele>205.2</ele>
        <time>2021-12-31T14:08:07Z</time>
      </trkpt>
      <trkpt lat="46.49996" lon="5.29858">
        <ele>204.4</ele>
        <time>2021-12-31T14:08:11Z</time>
      </trkpt>
      <trkpt lat="46.50004" lon="5.29861">
        <ele>204.2</ele>
        <time>2021-12-31T14:08:12Z</time>
      </trkpt>
      <trkpt lat="46.50011" lon="5.29865">
        <ele>204</ele>
        <time>2021-12-31T14:08:13Z</time>
      </trkpt>
      <trkpt lat="46.50018" lon="5.2987">
        <ele>204</ele>
        <time>2021-12-31T14:08:14Z</time>
      </trkpt>
      <trkpt lat="46.50037" lon="5.29891">
        <ele>204</ele>
        <time>2021-12-31T14:08:17Z</time>
      </trkpt>
      <trkpt lat="46.50053" lon="5.29912">
        <ele>203.6</ele>
        <time>2021-12-31T14:08:20Z</time>
      </trkpt>
      <trkpt lat="46.50062" lon="5.29927">
        <ele>203.6</ele>
        <time>2021-12-31T14:08:22Z</time>
      </trkpt>
      <trkpt lat="46.50078" lon="5.29968">
        <ele>204</ele>
        <time>2021-12-31T14:08:27Z</time>
      </trkpt>
      <trkpt lat="46.50086" lon="5.30021">
        <ele>204.4</ele>
        <time>2021-12-31T14:08:33Z</time>
      </trkpt>
      <trkpt lat="46.50087" lon="5.30086">
        <ele>205.4</ele>
        <time>2021-12-31T14:08:40Z</time>
      </trkpt>
      <trkpt lat="46.50087" lon="5.30096">
        <ele>205.4</ele>
        <time>2021-12-31T14:08:41Z</time>
      </trkpt>
      <trkpt lat="46.50086" lon="5.30173">
        <ele>205.4</ele>
        <time>2021-12-31T14:08:49Z</time>
      </trkpt>
      <trkpt lat="46.50085" lon="5.30202">
        <ele>205</ele>
        <time>2021-12-31T14:08:52Z</time>
      </trkpt>
      <trkpt lat="46.50085" lon="5.30228">
        <ele>205</ele>
        <time>2021-12-31T14:08:55Z</time>
      </trkpt>
      <trkpt lat="46.50084" lon="5.30256">
        <ele>204.8</ele>
        <time>2021-12-31T14:08:58Z</time>
      </trkpt>
      <trkpt lat="46.50082" lon="5.30285">
        <ele>204.6</ele>
        <time>2021-12-31T14:09:01Z</time>
      </trkpt>
      <trkpt lat="46.50076" lon="5.30314">
        <ele>204</ele>
        <time>2021-12-31T14:09:04Z</time>
      </trkpt>
      <trkpt lat="46.50071" lon="5.30333">
        <ele>203.6</ele>
        <time>2021-12-31T14:09:06Z</time>
      </trkpt>
      <trkpt lat="46.50057" lon="5.30364">
        <ele>203.2</ele>
        <time>2021-12-31T14:09:09Z</time>
      </trkpt>
      <trkpt lat="46.50052" lon="5.3037">
        <ele>202.8</ele>
        <time>2021-12-31T14:09:10Z</time>
      </trkpt>
      <trkpt lat="46.50047" lon="5.30378">
        <ele>202.4</ele>
        <time>2021-12-31T14:09:11Z</time>
      </trkpt>
      <trkpt lat="46.50027" lon="5.30399">
        <ele>201.6</ele>
        <time>2021-12-31T14:09:14Z</time>
      </trkpt>
      <trkpt lat="46.50015" lon="5.30408">
        <ele>201.4</ele>
        <time>2021-12-31T14:09:16Z</time>
      </trkpt>
      <trkpt lat="46.49983" lon="5.30433">
        <ele>201.4</ele>
        <time>2021-12-31T14:09:22Z</time>
      </trkpt>
      <trkpt lat="46.49962" lon="5.30457">
        <ele>202</ele>
        <time>2021-12-31T14:09:27Z</time>
      </trkpt>
      <trkpt lat="46.49958" lon="5.30462">
        <ele>202.2</ele>
        <time>2021-12-31T14:09:28Z</time>
      </trkpt>
      <trkpt lat="46.49946" lon="5.30486">
        <ele>202.8</ele>
        <time>2021-12-31T14:09:32Z</time>
      </trkpt>
      <trkpt lat="46.4994" lon="5.30503">
        <ele>203.4</ele>
        <time>2021-12-31T14:09:35Z</time>
      </trkpt>
      <trkpt lat="46.49935" lon="5.30523">
        <ele>203.8</ele>
        <time>2021-12-31T14:09:38Z</time>
      </trkpt>
      <trkpt lat="46.49931" lon="5.30541">
        <ele>204.4</ele>
        <time>2021-12-31T14:09:41Z</time>
      </trkpt>
      <trkpt lat="46.49929" lon="5.30561">
        <ele>205</ele>
        <time>2021-12-31T14:09:44Z</time>
      </trkpt>
      <trkpt lat="46.49928" lon="5.30581">
        <ele>205.8</ele>
        <time>2021-12-31T14:09:47Z</time>
      </trkpt>
      <trkpt lat="46.49929" lon="5.3059">
        <ele>205.8</ele>
        <time>2021-12-31T14:09:48Z</time>
      </trkpt>
      <trkpt lat="46.4993" lon="5.30602">
        <ele>206.2</ele>
        <time>2021-12-31T14:09:50Z</time>
      </trkpt>
      <trkpt lat="46.49937" lon="5.30637">
        <ele>207</ele>
        <time>2021-12-31T14:09:55Z</time>
      </trkpt>
      <trkpt lat="46.49939" lon="5.30651">
        <ele>207.4</ele>
        <time>2021-12-31T14:09:57Z</time>
      </trkpt>
      <trkpt lat="46.49947" lon="5.30692">
        <ele>208.6</ele>
        <time>2021-12-31T14:10:03Z</time>
      </trkpt>
      <trkpt lat="46.49948" lon="5.30698">
        <ele>208.6</ele>
        <time>2021-12-31T14:10:04Z</time>
      </trkpt>
      <trkpt lat="46.49954" lon="5.30732">
        <ele>209.6</ele>
        <time>2021-12-31T14:10:09Z</time>
      </trkpt>
      <trkpt lat="46.4996" lon="5.30762">
        <ele>210.2</ele>
        <time>2021-12-31T14:10:13Z</time>
      </trkpt>
      <trkpt lat="46.49972" lon="5.30815">
        <ele>210.4</ele>
        <time>2021-12-31T14:10:19Z</time>
      </trkpt>
      <trkpt lat="46.49994" lon="5.30878">
        <ele>210</ele>
        <time>2021-12-31T14:10:26Z</time>
      </trkpt>
      <trkpt lat="46.50013" lon="5.3093">
        <ele>208.6</ele>
        <time>2021-12-31T14:10:31Z</time>
      </trkpt>
      <trkpt lat="46.50021" lon="5.30952">
        <ele>208</ele>
        <time>2021-12-31T14:10:33Z</time>
      </trkpt>
      <trkpt lat="46.50029" lon="5.30974">
        <ele>207.6</ele>
        <time>2021-12-31T14:10:35Z</time>
      </trkpt>
      <trkpt lat="46.50042" lon="5.31009">
        <ele>206.4</ele>
        <time>2021-12-31T14:10:38Z</time>
      </trkpt>
      <trkpt lat="46.50049" lon="5.31033">
        <ele>205.2</ele>
        <time>2021-12-31T14:10:40Z</time>
      </trkpt>
      <trkpt lat="46.50057" lon="5.31058">
        <ele>204</ele>
        <time>2021-12-31T14:10:42Z</time>
      </trkpt>
      <trkpt lat="46.50071" lon="5.31097">
        <ele>203</ele>
        <time>2021-12-31T14:10:45Z</time>
      </trkpt>
      <trkpt lat="46.50076" lon="5.31111">
        <ele>202.4</ele>
        <time>2021-12-31T14:10:46Z</time>
      </trkpt>
      <trkpt lat="46.50081" lon="5.31125">
        <ele>201.8</ele>
        <time>2021-12-31T14:10:47Z</time>
      </trkpt>
      <trkpt lat="46.5009" lon="5.31151">
        <ele>200.6</ele>
        <time>2021-12-31T14:10:49Z</time>
      </trkpt>
      <trkpt lat="46.50102" lon="5.31187">
        <ele>199.6</ele>
        <time>2021-12-31T14:10:52Z</time>
      </trkpt>
      <trkpt lat="46.50106" lon="5.31199">
        <ele>199.4</ele>
        <time>2021-12-31T14:10:53Z</time>
      </trkpt>
      <trkpt lat="46.50132" lon="5.31276">
        <ele>199.4</ele>
        <time>2021-12-31T14:11:00Z</time>
      </trkpt>
      <trkpt lat="46.50157" lon="5.31348">
        <ele>200.6</ele>
        <time>2021-12-31T14:11:07Z</time>
      </trkpt>
      <trkpt lat="46.50161" lon="5.31359">
        <ele>200.6</ele>
        <time>2021-12-31T14:11:08Z</time>
      </trkpt>
      <trkpt lat="46.50169" lon="5.31381">
        <ele>200.6</ele>
        <time>2021-12-31T14:11:10Z</time>
      </trkpt>
      <trkpt lat="46.50196" lon="5.31464">
        <ele>199.8</ele>
        <time>2021-12-31T14:11:17Z</time>
      </trkpt>
      <trkpt lat="46.50201" lon="5.31479">
        <ele>199.4</ele>
        <time>2021-12-31T14:11:18Z</time>
      </trkpt>
      <trkpt lat="46.50214" lon="5.31516">
        <ele>198.4</ele>
        <time>2021-12-31T14:11:21Z</time>
      </trkpt>
      <trkpt lat="46.50227" lon="5.31542">
        <ele>197.8</ele>
        <time>2021-12-31T14:11:23Z</time>
      </trkpt>
      <trkpt lat="46.50239" lon="5.3156">
        <ele>196.6</ele>
        <time>2021-12-31T14:11:25Z</time>
      </trkpt>
      <trkpt lat="46.50254" lon="5.31578">
        <ele>195.8</ele>
        <time>2021-12-31T14:11:27Z</time>
      </trkpt>
      <trkpt lat="46.50262" lon="5.31586">
        <ele>195.2</ele>
        <time>2021-12-31T14:11:28Z</time>
      </trkpt>
      <trkpt lat="46.50293" lon="5.31613">
        <ele>194.2</ele>
        <time>2021-12-31T14:11:32Z</time>
      </trkpt>
      <trkpt lat="46.50346" lon="5.31653">
        <ele>193.4</ele>
        <time>2021-12-31T14:11:39Z</time>
      </trkpt>
      <trkpt lat="46.50377" lon="5.3169">
        <ele>193.2</ele>
        <time>2021-12-31T14:11:44Z</time>
      </trkpt>
      <trkpt lat="46.50403" lon="5.31742">
        <ele>193.4</ele>
        <time>2021-12-31T14:11:50Z</time>
      </trkpt>
      <trkpt lat="46.5042" lon="5.31796">
        <ele>193.8</ele>
        <time>2021-12-31T14:11:56Z</time>
      </trkpt>
      <trkpt lat="46.50434" lon="5.3187">
        <ele>194.4</ele>
        <time>2021-12-31T14:12:04Z</time>
      </trkpt>
      <trkpt lat="46.50436" lon="5.31938">
        <ele>194.2</ele>
        <time>2021-12-31T14:12:11Z</time>
      </trkpt>
      <trkpt lat="46.50434" lon="5.32012">
        <ele>194.6</ele>
        <time>2021-12-31T14:12:19Z</time>
      </trkpt>
      <trkpt lat="46.50432" lon="5.32086">
        <ele>195.4</ele>
        <time>2021-12-31T14:12:27Z</time>
      </trkpt>
      <trkpt lat="46.50431" lon="5.32113">
        <ele>195.6</ele>
        <time>2021-12-31T14:12:30Z</time>
      </trkpt>
      <trkpt lat="46.50429" lon="5.32188">
        <ele>196.4</ele>
        <time>2021-12-31T14:12:39Z</time>
      </trkpt>
      <trkpt lat="46.5043" lon="5.3226">
        <ele>197.2</ele>
        <time>2021-12-31T14:12:48Z</time>
      </trkpt>
      <trkpt lat="46.50432" lon="5.32283">
        <ele>197.4</ele>
        <time>2021-12-31T14:12:51Z</time>
      </trkpt>
      <trkpt lat="46.50436" lon="5.32308">
        <ele>197.8</ele>
        <time>2021-12-31T14:12:54Z</time>
      </trkpt>
      <trkpt lat="46.50446" lon="5.32354">
        <ele>198</ele>
        <time>2021-12-31T14:12:59Z</time>
      </trkpt>
      <trkpt lat="46.5046" lon="5.3242">
        <ele>197.6</ele>
        <time>2021-12-31T14:13:06Z</time>
      </trkpt>
      <trkpt lat="46.50469" lon="5.32493">
        <ele>197.6</ele>
        <time>2021-12-31T14:13:14Z</time>
      </trkpt>
      <trkpt lat="46.50473" lon="5.32564">
        <ele>198</ele>
        <time>2021-12-31T14:13:22Z</time>
      </trkpt>
      <trkpt lat="46.50474" lon="5.32607">
        <ele>198.4</ele>
        <time>2021-12-31T14:13:27Z</time>
      </trkpt>
      <trkpt lat="46.50474" lon="5.32647">
        <ele>199</ele>
        <time>2021-12-31T14:13:32Z</time>
      </trkpt>
      <trkpt lat="46.50474" lon="5.3268">
        <ele>199.4</ele>
        <time>2021-12-31T14:13:36Z</time>
      </trkpt>
      <trkpt lat="46.50473" lon="5.3272">
        <ele>199.8</ele>
        <time>2021-12-31T14:13:41Z</time>
      </trkpt>
      <trkpt lat="46.50472" lon="5.32752">
        <ele>200.4</ele>
        <time>2021-12-31T14:13:45Z</time>
      </trkpt>
      <trkpt lat="46.50471" lon="5.32793">
        <ele>200.8</ele>
        <time>2021-12-31T14:13:50Z</time>
      </trkpt>
      <trkpt lat="46.5047" lon="5.32868">
        <ele>201.6</ele>
        <time>2021-12-31T14:13:59Z</time>
      </trkpt>
      <trkpt lat="46.50468" lon="5.3292">
        <ele>202.6</ele>
        <time>2021-12-31T14:14:06Z</time>
      </trkpt>
      <trkpt lat="46.50468" lon="5.32927">
        <ele>202.8</ele>
        <time>2021-12-31T14:14:07Z</time>
      </trkpt>
      <trkpt lat="46.50467" lon="5.32955">
        <ele>203.8</ele>
        <time>2021-12-31T14:14:11Z</time>
      </trkpt>
      <trkpt lat="46.50467" lon="5.32981">
        <ele>204.8</ele>
        <time>2021-12-31T14:14:15Z</time>
      </trkpt>
      <trkpt lat="46.50466" lon="5.33013">
        <ele>205.8</ele>
        <time>2021-12-31T14:14:20Z</time>
      </trkpt>
      <trkpt lat="46.50466" lon="5.33031">
        <ele>206.2</ele>
        <time>2021-12-31T14:14:23Z</time>
      </trkpt>
      <trkpt lat="46.50465" lon="5.33044">
        <ele>206.8</ele>
        <time>2021-12-31T14:14:25Z</time>
      </trkpt>
      <trkpt lat="46.50464" lon="5.33074">
        <ele>208</ele>
        <time>2021-12-31T14:14:30Z</time>
      </trkpt>
      <trkpt lat="46.50463" lon="5.33096">
        <ele>209</ele>
        <time>2021-12-31T14:14:34Z</time>
      </trkpt>
      <trkpt lat="46.50462" lon="5.33103">
        <ele>209</ele>
        <time>2021-12-31T14:14:35Z</time>
      </trkpt>
      <trkpt lat="46.50462" lon="5.33128">
        <ele>210</ele>
        <time>2021-12-31T14:14:39Z</time>
      </trkpt>
      <trkpt lat="46.50462" lon="5.33134">
        <ele>210.4</ele>
        <time>2021-12-31T14:14:40Z</time>
      </trkpt>
      <trkpt lat="46.50463" lon="5.33146">
        <ele>211</ele>
        <time>2021-12-31T14:14:42Z</time>
      </trkpt>
      <trkpt lat="46.50462" lon="5.33176">
        <ele>212.4</ele>
        <time>2021-12-31T14:14:47Z</time>
      </trkpt>
      <trkpt lat="46.50463" lon="5.33188">
        <ele>212.8</ele>
        <time>2021-12-31T14:14:49Z</time>
      </trkpt>
      <trkpt lat="46.50465" lon="5.3322">
        <ele>213.6</ele>
        <time>2021-12-31T14:14:54Z</time>
      </trkpt>
      <trkpt lat="46.50468" lon="5.33257">
        <ele>214</ele>
        <time>2021-12-31T14:14:58Z</time>
      </trkpt>
      <trkpt lat="46.50469" lon="5.33283">
        <ele>214.2</ele>
        <time>2021-12-31T14:15:01Z</time>
      </trkpt>
      <trkpt lat="46.50466" lon="5.33313">
        <ele>214</ele>
        <time>2021-12-31T14:15:04Z</time>
      </trkpt>
      <trkpt lat="46.50459" lon="5.33381">
        <ele>213</ele>
        <time>2021-12-31T14:15:12Z</time>
      </trkpt>
      <trkpt lat="46.50452" lon="5.33406">
        <ele>212.8</ele>
        <time>2021-12-31T14:15:15Z</time>
      </trkpt>
      <trkpt lat="46.50444" lon="5.3342">
        <ele>213</ele>
        <time>2021-12-31T14:15:17Z</time>
      </trkpt>
      <trkpt lat="46.50417" lon="5.33454">
        <ele>213.2</ele>
        <time>2021-12-31T14:15:23Z</time>
      </trkpt>
      <trkpt lat="46.50389" lon="5.33483">
        <ele>214</ele>
        <time>2021-12-31T14:15:29Z</time>
      </trkpt>
      <trkpt lat="46.50375" lon="5.33497">
        <ele>214.4</ele>
        <time>2021-12-31T14:15:32Z</time>
      </trkpt>
      <trkpt lat="46.50357" lon="5.33516">
        <ele>215</ele>
        <time>2021-12-31T14:15:36Z</time>
      </trkpt>
      <trkpt lat="46.50352" lon="5.33521">
        <ele>215</ele>
        <time>2021-12-31T14:15:37Z</time>
      </trkpt>
      <trkpt lat="46.50329" lon="5.33544">
        <ele>215.6</ele>
        <time>2021-12-31T14:15:42Z</time>
      </trkpt>
      <trkpt lat="46.50313" lon="5.33565">
        <ele>215.8</ele>
        <time>2021-12-31T14:15:46Z</time>
      </trkpt>
      <trkpt lat="46.5027" lon="5.33611">
        <ele>216.2</ele>
        <time>2021-12-31T14:15:55Z</time>
      </trkpt>
      <trkpt lat="46.50256" lon="5.33626">
        <ele>216.6</ele>
        <time>2021-12-31T14:15:58Z</time>
      </trkpt>
      <trkpt lat="46.50238" lon="5.33644">
        <ele>217</ele>
        <time>2021-12-31T14:16:02Z</time>
      </trkpt>
      <trkpt lat="46.50205" lon="5.33681">
        <ele>217.4</ele>
        <time>2021-12-31T14:16:09Z</time>
      </trkpt>
      <trkpt lat="46.50174" lon="5.33713">
        <ele>217.6</ele>
        <time>2021-12-31T14:16:15Z</time>
      </trkpt>
      <trkpt lat="46.50169" lon="5.33719">
        <ele>217.6</ele>
        <time>2021-12-31T14:16:16Z</time>
      </trkpt>
      <trkpt lat="46.50154" lon="5.33735">
        <ele>217.6</ele>
        <time>2021-12-31T14:16:19Z</time>
      </trkpt>
      <trkpt lat="46.50138" lon="5.33753">
        <ele>217.4</ele>
        <time>2021-12-31T14:16:22Z</time>
      </trkpt>
      <trkpt lat="46.50104" lon="5.3379">
        <ele>216.8</ele>
        <time>2021-12-31T14:16:28Z</time>
      </trkpt>
      <trkpt lat="46.50065" lon="5.33832">
        <ele>217</ele>
        <time>2021-12-31T14:16:35Z</time>
      </trkpt>
      <trkpt lat="46.50038" lon="5.33863">
        <ele>217.8</ele>
        <time>2021-12-31T14:16:41Z</time>
      </trkpt>
      <trkpt lat="46.50017" lon="5.33885">
        <ele>218.4</ele>
        <time>2021-12-31T14:16:46Z</time>
      </trkpt>
      <trkpt lat="46.50008" lon="5.33894">
        <ele>218.8</ele>
        <time>2021-12-31T14:16:48Z</time>
      </trkpt>
      <trkpt lat="46.49981" lon="5.33923">
        <ele>219.6</ele>
        <time>2021-12-31T14:16:54Z</time>
      </trkpt>
      <trkpt lat="46.49971" lon="5.33936">
        <ele>219.6</ele>
        <time>2021-12-31T14:16:56Z</time>
      </trkpt>
      <trkpt lat="46.49937" lon="5.33974">
        <ele>219.8</ele>
        <time>2021-12-31T14:17:02Z</time>
      </trkpt>
      <trkpt lat="46.49891" lon="5.34025">
        <ele>218.8</ele>
        <time>2021-12-31T14:17:09Z</time>
      </trkpt>
      <trkpt lat="46.49884" lon="5.34033">
        <ele>218.4</ele>
        <time>2021-12-31T14:17:10Z</time>
      </trkpt>
      <trkpt lat="46.49846" lon="5.3408">
        <ele>217.2</ele>
        <time>2021-12-31T14:17:16Z</time>
      </trkpt>
      <trkpt lat="46.49822" lon="5.34119">
        <ele>216.8</ele>
        <time>2021-12-31T14:17:21Z</time>
      </trkpt>
      <trkpt lat="46.4979" lon="5.3417">
        <ele>217</ele>
        <time>2021-12-31T14:17:28Z</time>
      </trkpt>
      <trkpt lat="46.49763" lon="5.34216">
        <ele>216.8</ele>
        <time>2021-12-31T14:17:34Z</time>
      </trkpt>
      <trkpt lat="46.49731" lon="5.3427">
        <ele>216.4</ele>
        <time>2021-12-31T14:17:41Z</time>
      </trkpt>
      <trkpt lat="46.49719" lon="5.34292">
        <ele>216.4</ele>
        <time>2021-12-31T14:17:44Z</time>
      </trkpt>
      <trkpt lat="46.497" lon="5.34335">
        <ele>216.6</ele>
        <time>2021-12-31T14:17:49Z</time>
      </trkpt>
      <trkpt lat="46.49684" lon="5.34398">
        <ele>216.4</ele>
        <time>2021-12-31T14:17:55Z</time>
      </trkpt>
      <trkpt lat="46.49678" lon="5.3442">
        <ele>215.8</ele>
        <time>2021-12-31T14:17:57Z</time>
      </trkpt>
      <trkpt lat="46.49662" lon="5.34475">
        <ele>214.6</ele>
        <time>2021-12-31T14:18:02Z</time>
      </trkpt>
      <trkpt lat="46.49645" lon="5.34529">
        <ele>213.2</ele>
        <time>2021-12-31T14:18:07Z</time>
      </trkpt>
      <trkpt lat="46.49633" lon="5.34545">
        <ele>212.8</ele>
        <time>2021-12-31T14:18:09Z</time>
      </trkpt>
      <trkpt lat="46.49627" lon="5.34552">
        <ele>212.8</ele>
        <time>2021-12-31T14:18:10Z</time>
      </trkpt>
      <trkpt lat="46.49614" lon="5.34567">
        <ele>212.2</ele>
        <time>2021-12-31T14:18:12Z</time>
      </trkpt>
      <trkpt lat="46.49592" lon="5.34599">
        <ele>211.6</ele>
        <time>2021-12-31T14:18:16Z</time>
      </trkpt>
      <trkpt lat="46.49584" lon="5.34614">
        <ele>211.6</ele>
        <time>2021-12-31T14:18:18Z</time>
      </trkpt>
      <trkpt lat="46.49574" lon="5.34628">
        <ele>211.6</ele>
        <time>2021-12-31T14:18:20Z</time>
      </trkpt>
      <trkpt lat="46.49546" lon="5.34662">
        <ele>212.4</ele>
        <time>2021-12-31T14:18:26Z</time>
      </trkpt>
      <trkpt lat="46.49527" lon="5.3468">
        <ele>213.2</ele>
        <time>2021-12-31T14:18:31Z</time>
      </trkpt>
      <trkpt lat="46.49523" lon="5.34684">
        <ele>213.4</ele>
        <time>2021-12-31T14:18:32Z</time>
      </trkpt>
      <trkpt lat="46.49503" lon="5.34706">
        <ele>214.4</ele>
        <time>2021-12-31T14:18:37Z</time>
      </trkpt>
      <trkpt lat="46.49484" lon="5.34727">
        <ele>215.8</ele>
        <time>2021-12-31T14:18:42Z</time>
      </trkpt>
      <trkpt lat="46.49468" lon="5.34745">
        <ele>217.2</ele>
        <time>2021-12-31T14:18:46Z</time>
      </trkpt>
      <trkpt lat="46.49458" lon="5.34757">
        <ele>218</ele>
        <time>2021-12-31T14:18:49Z</time>
      </trkpt>
      <trkpt lat="46.49451" lon="5.34766">
        <ele>218.6</ele>
        <time>2021-12-31T14:18:51Z</time>
      </trkpt>
      <trkpt lat="46.49436" lon="5.34781">
        <ele>219.4</ele>
        <time>2021-12-31T14:18:55Z</time>
      </trkpt>
      <trkpt lat="46.49432" lon="5.34785">
        <ele>219.6</ele>
        <time>2021-12-31T14:18:56Z</time>
      </trkpt>
      <trkpt lat="46.49417" lon="5.34799">
        <ele>220.8</ele>
        <time>2021-12-31T14:19:00Z</time>
      </trkpt>
      <trkpt lat="46.49409" lon="5.34804">
        <ele>221.4</ele>
        <time>2021-12-31T14:19:02Z</time>
      </trkpt>
      <trkpt lat="46.49397" lon="5.34812">
        <ele>222</ele>
        <time>2021-12-31T14:19:05Z</time>
      </trkpt>
      <trkpt lat="46.49394" lon="5.34815">
        <ele>222.2</ele>
        <time>2021-12-31T14:19:06Z</time>
      </trkpt>
      <trkpt lat="46.4939" lon="5.34817">
        <ele>222.2</ele>
        <time>2021-12-31T14:19:07Z</time>
      </trkpt>
      <trkpt lat="46.49376" lon="5.34822">
        <ele>222.6</ele>
        <time>2021-12-31T14:19:10Z</time>
      </trkpt>
      <trkpt lat="46.49366" lon="5.34824">
        <ele>223</ele>
        <time>2021-12-31T14:19:12Z</time>
      </trkpt>
      <trkpt lat="46.49361" lon="5.34825">
        <ele>223.2</ele>
        <time>2021-12-31T14:19:13Z</time>
      </trkpt>
      <trkpt lat="46.49328" lon="5.34831">
        <ele>223.4</ele>
        <time>2021-12-31T14:19:19Z</time>
      </trkpt>
      <trkpt lat="46.49288" lon="5.34844">
        <ele>222.8</ele>
        <time>2021-12-31T14:19:26Z</time>
      </trkpt>
      <trkpt lat="46.49283" lon="5.34848">
        <ele>222.8</ele>
        <time>2021-12-31T14:19:27Z</time>
      </trkpt>
      <trkpt lat="46.49278" lon="5.34852">
        <ele>223</ele>
        <time>2021-12-31T14:19:28Z</time>
      </trkpt>
      <trkpt lat="46.49273" lon="5.34857">
        <ele>223</ele>
        <time>2021-12-31T14:19:29Z</time>
      </trkpt>
      <trkpt lat="46.49256" lon="5.34877">
        <ele>223</ele>
        <time>2021-12-31T14:19:33Z</time>
      </trkpt>
      <trkpt lat="46.49233" lon="5.34909">
        <ele>223.4</ele>
        <time>2021-12-31T14:19:38Z</time>
      </trkpt>
      <trkpt lat="46.49203" lon="5.34954">
        <ele>223.6</ele>
        <time>2021-12-31T14:19:45Z</time>
      </trkpt>
      <trkpt lat="46.49177" lon="5.3499">
        <ele>223.6</ele>
        <time>2021-12-31T14:19:51Z</time>
      </trkpt>
      <trkpt lat="46.49148" lon="5.35017">
        <ele>223.6</ele>
        <time>2021-12-31T14:19:57Z</time>
      </trkpt>
      <trkpt lat="46.49108" lon="5.35055">
        <ele>223.6</ele>
        <time>2021-12-31T14:20:06Z</time>
      </trkpt>
      <trkpt lat="46.49085" lon="5.35074">
        <ele>224</ele>
        <time>2021-12-31T14:20:11Z</time>
      </trkpt>
      <trkpt lat="46.49075" lon="5.35082">
        <ele>224.2</ele>
        <time>2021-12-31T14:20:13Z</time>
      </trkpt>
      <trkpt lat="46.4906" lon="5.35096">
        <ele>225</ele>
        <time>2021-12-31T14:20:17Z</time>
      </trkpt>
      <trkpt lat="46.49045" lon="5.35109">
        <ele>225.4</ele>
        <time>2021-12-31T14:20:20Z</time>
      </trkpt>
      <trkpt lat="46.49041" lon="5.35115">
        <ele>225.4</ele>
        <time>2021-12-31T14:20:21Z</time>
      </trkpt>
      <trkpt lat="46.49025" lon="5.35139">
        <ele>226</ele>
        <time>2021-12-31T14:20:25Z</time>
      </trkpt>
      <trkpt lat="46.48994" lon="5.35204">
        <ele>225.8</ele>
        <time>2021-12-31T14:20:34Z</time>
      </trkpt>
      <trkpt lat="46.48976" lon="5.35247">
        <ele>225.2</ele>
        <time>2021-12-31T14:20:39Z</time>
      </trkpt>
      <trkpt lat="46.48945" lon="5.35313">
        <ele>224</ele>
        <time>2021-12-31T14:20:47Z</time>
      </trkpt>
      <trkpt lat="46.48938" lon="5.35329">
        <ele>224</ele>
        <time>2021-12-31T14:20:49Z</time>
      </trkpt>
      <trkpt lat="46.48935" lon="5.35337">
        <ele>223.8</ele>
        <time>2021-12-31T14:20:50Z</time>
      </trkpt>
      <trkpt lat="46.48906" lon="5.354">
        <ele>223.6</ele>
        <time>2021-12-31T14:20:58Z</time>
      </trkpt>
      <trkpt lat="46.48884" lon="5.35451">
        <ele>224</ele>
        <time>2021-12-31T14:21:05Z</time>
      </trkpt>
      <trkpt lat="46.48865" lon="5.35494">
        <ele>224.4</ele>
        <time>2021-12-31T14:21:11Z</time>
      </trkpt>
      <trkpt lat="46.48843" lon="5.35544">
        <ele>224.6</ele>
        <time>2021-12-31T14:21:18Z</time>
      </trkpt>
      <trkpt lat="46.4882" lon="5.35599">
        <ele>225</ele>
        <time>2021-12-31T14:21:25Z</time>
      </trkpt>
      <trkpt lat="46.48817" lon="5.35608">
        <ele>225</ele>
        <time>2021-12-31T14:21:26Z</time>
      </trkpt>
      <trkpt lat="46.48796" lon="5.35658">
        <ele>225</ele>
        <time>2021-12-31T14:21:32Z</time>
      </trkpt>
      <trkpt lat="46.48766" lon="5.35725">
        <ele>225</ele>
        <time>2021-12-31T14:21:40Z</time>
      </trkpt>
      <trkpt lat="46.48759" lon="5.35742">
        <ele>224.8</ele>
        <time>2021-12-31T14:21:42Z</time>
      </trkpt>
      <trkpt lat="46.48737" lon="5.35787">
        <ele>224.8</ele>
        <time>2021-12-31T14:21:48Z</time>
      </trkpt>
      <trkpt lat="46.48734" lon="5.35796">
        <ele>224.8</ele>
        <time>2021-12-31T14:21:49Z</time>
      </trkpt>
      <trkpt lat="46.48722" lon="5.35826">
        <ele>225.2</ele>
        <time>2021-12-31T14:21:53Z</time>
      </trkpt>
      <trkpt lat="46.487" lon="5.35878">
        <ele>225.6</ele>
        <time>2021-12-31T14:22:00Z</time>
      </trkpt>
      <trkpt lat="46.48695" lon="5.3589">
        <ele>225.6</ele>
        <time>2021-12-31T14:22:02Z</time>
      </trkpt>
      <trkpt lat="46.48688" lon="5.35912">
        <ele>226</ele>
        <time>2021-12-31T14:22:05Z</time>
      </trkpt>
      <trkpt lat="46.4868" lon="5.35952">
        <ele>227</ele>
        <time>2021-12-31T14:22:10Z</time>
      </trkpt>
      <trkpt lat="46.48678" lon="5.35975">
        <ele>227.6</ele>
        <time>2021-12-31T14:22:13Z</time>
      </trkpt>
      <trkpt lat="46.48675" lon="5.35999">
        <ele>228</ele>
        <time>2021-12-31T14:22:16Z</time>
      </trkpt>
      <trkpt lat="46.4867" lon="5.36026">
        <ele>228.2</ele>
        <time>2021-12-31T14:22:19Z</time>
      </trkpt>
      <trkpt lat="46.48656" lon="5.36085">
        <ele>227.6</ele>
        <time>2021-12-31T14:22:25Z</time>
      </trkpt>
      <trkpt lat="46.4865" lon="5.36117">
        <ele>226.8</ele>
        <time>2021-12-31T14:22:28Z</time>
      </trkpt>
      <trkpt lat="46.48642" lon="5.36167">
        <ele>226</ele>
        <time>2021-12-31T14:22:33Z</time>
      </trkpt>
      <trkpt lat="46.48636" lon="5.36232">
        <ele>226</ele>
        <time>2021-12-31T14:22:40Z</time>
      </trkpt>
      <trkpt lat="46.48631" lon="5.36276">
        <ele>226.4</ele>
        <time>2021-12-31T14:22:45Z</time>
      </trkpt>
      <trkpt lat="46.48628" lon="5.36291">
        <ele>226.8</ele>
        <time>2021-12-31T14:22:47Z</time>
      </trkpt>
      <trkpt lat="46.48626" lon="5.36298">
        <ele>227</ele>
        <time>2021-12-31T14:22:48Z</time>
      </trkpt>
      <trkpt lat="46.48619" lon="5.3631">
        <ele>227.4</ele>
        <time>2021-12-31T14:22:50Z</time>
      </trkpt>
      <trkpt lat="46.48615" lon="5.36314">
        <ele>227.6</ele>
        <time>2021-12-31T14:22:51Z</time>
      </trkpt>
      <trkpt lat="46.4861" lon="5.36316">
        <ele>227.8</ele>
        <time>2021-12-31T14:22:52Z</time>
      </trkpt>
      <trkpt lat="46.48605" lon="5.36318">
        <ele>228</ele>
        <time>2021-12-31T14:22:53Z</time>
      </trkpt>
      <trkpt lat="46.48595" lon="5.3632">
        <ele>228.6</ele>
        <time>2021-12-31T14:22:55Z</time>
      </trkpt>
      <trkpt lat="46.48585" lon="5.36321">
        <ele>229.2</ele>
        <time>2021-12-31T14:22:57Z</time>
      </trkpt>
      <trkpt lat="46.48571" lon="5.36322">
        <ele>230.2</ele>
        <time>2021-12-31T14:23:00Z</time>
      </trkpt>
      <trkpt lat="46.48551" lon="5.36325">
        <ele>230.8</ele>
        <time>2021-12-31T14:23:04Z</time>
      </trkpt>
      <trkpt lat="46.48537" lon="5.36328">
        <ele>231.4</ele>
        <time>2021-12-31T14:23:07Z</time>
      </trkpt>
      <trkpt lat="46.48517" lon="5.36331">
        <ele>232.6</ele>
        <time>2021-12-31T14:23:11Z</time>
      </trkpt>
      <trkpt lat="46.48513" lon="5.36332">
        <ele>232.6</ele>
        <time>2021-12-31T14:23:12Z</time>
      </trkpt>
      <trkpt lat="46.48472" lon="5.36339">
        <ele>233.6</ele>
        <time>2021-12-31T14:23:20Z</time>
      </trkpt>
      <trkpt lat="46.48456" lon="5.36342">
        <ele>233.6</ele>
        <time>2021-12-31T14:23:23Z</time>
      </trkpt>
      <trkpt lat="46.48425" lon="5.3635">
        <ele>233.8</ele>
        <time>2021-12-31T14:23:29Z</time>
      </trkpt>
      <trkpt lat="46.48413" lon="5.36356">
        <ele>233.8</ele>
        <time>2021-12-31T14:23:31Z</time>
      </trkpt>
      <trkpt lat="46.48408" lon="5.3636">
        <ele>233.8</ele>
        <time>2021-12-31T14:23:32Z</time>
      </trkpt>
      <trkpt lat="46.48388" lon="5.36378">
        <ele>234.2</ele>
        <time>2021-12-31T14:23:36Z</time>
      </trkpt>
      <trkpt lat="46.48379" lon="5.36387">
        <ele>234.2</ele>
        <time>2021-12-31T14:23:38Z</time>
      </trkpt>
      <trkpt lat="46.48364" lon="5.36403">
        <ele>234.6</ele>
        <time>2021-12-31T14:23:41Z</time>
      </trkpt>
      <trkpt lat="46.48339" lon="5.36431">
        <ele>235</ele>
        <time>2021-12-31T14:23:47Z</time>
      </trkpt>
      <trkpt lat="46.48323" lon="5.36448">
        <ele>235.6</ele>
        <time>2021-12-31T14:23:51Z</time>
      </trkpt>
      <trkpt lat="46.48311" lon="5.36461">
        <ele>236</ele>
        <time>2021-12-31T14:23:54Z</time>
      </trkpt>
      <trkpt lat="46.48288" lon="5.36487">
        <ele>236.8</ele>
        <time>2021-12-31T14:24:00Z</time>
      </trkpt>
      <trkpt lat="46.48284" lon="5.36491">
        <ele>236.8</ele>
        <time>2021-12-31T14:24:01Z</time>
      </trkpt>
      <trkpt lat="46.48264" lon="5.36512">
        <ele>237.8</ele>
        <time>2021-12-31T14:24:06Z</time>
      </trkpt>
      <trkpt lat="46.48246" lon="5.36532">
        <ele>238.6</ele>
        <time>2021-12-31T14:24:11Z</time>
      </trkpt>
      <trkpt lat="46.48238" lon="5.36541">
        <ele>239</ele>
        <time>2021-12-31T14:24:13Z</time>
      </trkpt>
      <trkpt lat="46.48224" lon="5.36554">
        <ele>239.2</ele>
        <time>2021-12-31T14:24:17Z</time>
      </trkpt>
      <trkpt lat="46.4822" lon="5.36556">
        <ele>239.4</ele>
        <time>2021-12-31T14:24:18Z</time>
      </trkpt>
      <trkpt lat="46.48216" lon="5.36556">
        <ele>239.4</ele>
        <time>2021-12-31T14:24:19Z</time>
      </trkpt>
      <trkpt lat="46.48203" lon="5.36557">
        <ele>240</ele>
        <time>2021-12-31T14:24:22Z</time>
      </trkpt>
      <trkpt lat="46.48199" lon="5.36558">
        <ele>240</ele>
        <time>2021-12-31T14:24:23Z</time>
      </trkpt>
      <trkpt lat="46.48195" lon="5.36561">
        <ele>240</ele>
        <time>2021-12-31T14:24:24Z</time>
      </trkpt>
      <trkpt lat="46.48189" lon="5.36571">
        <ele>240.2</ele>
        <time>2021-12-31T14:24:26Z</time>
      </trkpt>
      <trkpt lat="46.48185" lon="5.36589">
        <ele>240.6</ele>
        <time>2021-12-31T14:24:29Z</time>
      </trkpt>
      <trkpt lat="46.48179" lon="5.36602">
        <ele>240.8</ele>
        <time>2021-12-31T14:24:31Z</time>
      </trkpt>
      <trkpt lat="46.48158" lon="5.3663">
        <ele>241</ele>
        <time>2021-12-31T14:24:37Z</time>
      </trkpt>
      <trkpt lat="46.48154" lon="5.36635">
        <ele>241</ele>
        <time>2021-12-31T14:24:38Z</time>
      </trkpt>
      <trkpt lat="46.48151" lon="5.3664">
        <ele>241</ele>
        <time>2021-12-31T14:24:39Z</time>
      </trkpt>
      <trkpt lat="46.48123" lon="5.36671">
        <ele>241.6</ele>
        <time>2021-12-31T14:24:46Z</time>
      </trkpt>
      <trkpt lat="46.48106" lon="5.36689">
        <ele>242</ele>
        <time>2021-12-31T14:24:51Z</time>
      </trkpt>
      <trkpt lat="46.48104" lon="5.36693">
        <ele>242</ele>
        <time>2021-12-31T14:24:52Z</time>
      </trkpt>
      <trkpt lat="46.48104" lon="5.36698">
        <ele>242.2</ele>
        <time>2021-12-31T14:24:53Z</time>
      </trkpt>
      <trkpt lat="46.48105" lon="5.36702">
        <ele>242.4</ele>
        <time>2021-12-31T14:24:54Z</time>
      </trkpt>
      <trkpt lat="46.48117" lon="5.36716">
        <ele>243.2</ele>
        <time>2021-12-31T14:24:58Z</time>
      </trkpt>
      <trkpt lat="46.48119" lon="5.36719">
        <ele>243.4</ele>
        <time>2021-12-31T14:24:59Z</time>
      </trkpt>
      <trkpt lat="46.48146" lon="5.36738">
        <ele>244.2</ele>
        <time>2021-12-31T14:25:06Z</time>
      </trkpt>
      <trkpt lat="46.48152" lon="5.36744">
        <ele>244.4</ele>
        <time>2021-12-31T14:25:08Z</time>
      </trkpt>
      <trkpt lat="46.48159" lon="5.3675">
        <ele>245.2</ele>
        <time>2021-12-31T14:25:10Z</time>
      </trkpt>
      <trkpt lat="46.48163" lon="5.36753">
        <ele>245.6</ele>
        <time>2021-12-31T14:25:11Z</time>
      </trkpt>
      <trkpt lat="46.4817" lon="5.36758">
        <ele>246</ele>
        <time>2021-12-31T14:25:13Z</time>
      </trkpt>
      <trkpt lat="46.48178" lon="5.36764">
        <ele>246.4</ele>
        <time>2021-12-31T14:25:15Z</time>
      </trkpt>
      <trkpt lat="46.48196" lon="5.36777">
        <ele>247.4</ele>
        <time>2021-12-31T14:25:20Z</time>
      </trkpt>
      <trkpt lat="46.48203" lon="5.36782">
        <ele>247.8</ele>
        <time>2021-12-31T14:25:22Z</time>
      </trkpt>
      <trkpt lat="46.48213" lon="5.36788">
        <ele>248.6</ele>
        <time>2021-12-31T14:25:25Z</time>
      </trkpt>
      <trkpt lat="46.48232" lon="5.36804">
        <ele>250</ele>
        <time>2021-12-31T14:25:31Z</time>
      </trkpt>
      <trkpt lat="46.48237" lon="5.36809">
        <ele>250.4</ele>
        <time>2021-12-31T14:25:33Z</time>
      </trkpt>
      <trkpt lat="46.48247" lon="5.36816">
        <ele>251.2</ele>
        <time>2021-12-31T14:25:36Z</time>
      </trkpt>
      <trkpt lat="46.48262" lon="5.3683">
        <ele>252</ele>
        <time>2021-12-31T14:25:41Z</time>
      </trkpt>
      <trkpt lat="46.48265" lon="5.36833">
        <ele>252.2</ele>
        <time>2021-12-31T14:25:42Z</time>
      </trkpt>
    </trkseg>
  </trk>
</gpx>